<?xml version='1.0' encoding='UTF-8'?>
<gpx version="1.1" creator="https://www.komoot.de" xmlns="http://www.topografix.com/GPX/1/1" xmlns:xsi="http://www.w3.org/2001/XMLSchema-instance" xsi:schemaLocation="http://www.topografix.com/GPX/1/1 http://www.topografix.com/GPX/1/1/gpx.xsd">
  <metadata>
    <name>260506 Groningen Ride: Aduarderdiep</name>
    <author>
      <link href="https://www.komoot.de">
        <text>komoot</text>
        <type>text/html</type>
      </link>
    </author>
  </metadata>
  <trk>
    <name>260506 Groningen Ride: Aduarderdiep</name>
    <trkseg>
      <trkpt lat="53.240492" lon="6.536685">
        <ele>42.997422</ele>
        <time>2026-05-06T16:09:38.584Z</time>
      </trkpt>
      <trkpt lat="53.240335" lon="6.536759">
        <ele>42.997422</ele>
        <time>2026-05-06T16:09:50.979Z</time>
      </trkpt>
      <trkpt lat="53.240249" lon="6.536818">
        <ele>42.997422</ele>
        <time>2026-05-06T16:09:53.972Z</time>
      </trkpt>
      <trkpt lat="53.240154" lon="6.536852">
        <ele>42.997422</ele>
        <time>2026-05-06T16:09:56.983Z</time>
      </trkpt>
      <trkpt lat="53.240082" lon="6.536759">
        <ele>42.997422</ele>
        <time>2026-05-06T16:09:59.984Z</time>
      </trkpt>
      <trkpt lat="53.240071" lon="6.536606">
        <ele>42.997422</ele>
        <time>2026-05-06T16:10:02.982Z</time>
      </trkpt>
      <trkpt lat="53.240049" lon="6.536441">
        <ele>42.997422</ele>
        <time>2026-05-06T16:10:05.982Z</time>
      </trkpt>
      <trkpt lat="53.240020" lon="6.536276">
        <ele>42.997422</ele>
        <time>2026-05-06T16:10:08.981Z</time>
      </trkpt>
      <trkpt lat="53.239925" lon="6.536191">
        <ele>42.997422</ele>
        <time>2026-05-06T16:10:11.981Z</time>
      </trkpt>
      <trkpt lat="53.239836" lon="6.536254">
        <ele>42.914686</ele>
        <time>2026-05-06T16:10:13.985Z</time>
      </trkpt>
      <trkpt lat="53.239741" lon="6.536327">
        <ele>42.725201</ele>
        <time>2026-05-06T16:10:15.988Z</time>
      </trkpt>
      <trkpt lat="53.239651" lon="6.536392">
        <ele>42.547526</ele>
        <time>2026-05-06T16:10:17.988Z</time>
      </trkpt>
      <trkpt lat="53.239559" lon="6.536452">
        <ele>42.368560</ele>
        <time>2026-05-06T16:10:19.980Z</time>
      </trkpt>
      <trkpt lat="53.239469" lon="6.536518">
        <ele>42.190452</ele>
        <time>2026-05-06T16:10:21.983Z</time>
      </trkpt>
      <trkpt lat="53.239385" lon="6.536587">
        <ele>42.020833</ele>
        <time>2026-05-06T16:10:23.975Z</time>
      </trkpt>
      <trkpt lat="53.239291" lon="6.536656">
        <ele>41.834780</ele>
        <time>2026-05-06T16:10:25.980Z</time>
      </trkpt>
      <trkpt lat="53.239195" lon="6.536722">
        <ele>41.646664</ele>
        <time>2026-05-06T16:10:27.989Z</time>
      </trkpt>
      <trkpt lat="53.239105" lon="6.536792">
        <ele>41.466769</ele>
        <time>2026-05-06T16:10:29.989Z</time>
      </trkpt>
      <trkpt lat="53.239010" lon="6.536853">
        <ele>41.282342</ele>
        <time>2026-05-06T16:10:31.980Z</time>
      </trkpt>
      <trkpt lat="53.238924" lon="6.536917">
        <ele>41.111740</ele>
        <time>2026-05-06T16:10:33.979Z</time>
      </trkpt>
      <trkpt lat="53.238834" lon="6.536995">
        <ele>40.928014</ele>
        <time>2026-05-06T16:10:35.978Z</time>
      </trkpt>
      <trkpt lat="53.238740" lon="6.537062">
        <ele>40.742822</ele>
        <time>2026-05-06T16:10:37.976Z</time>
      </trkpt>
      <trkpt lat="53.238650" lon="6.537122">
        <ele>40.567227</ele>
        <time>2026-05-06T16:10:39.989Z</time>
      </trkpt>
      <trkpt lat="53.238525" lon="6.537208">
        <ele>40.322259</ele>
        <time>2026-05-06T16:10:42.997Z</time>
      </trkpt>
      <trkpt lat="53.238439" lon="6.537265">
        <ele>40.154602</ele>
        <time>2026-05-06T16:10:44.977Z</time>
      </trkpt>
      <trkpt lat="53.238354" lon="6.537322">
        <ele>39.988628</ele>
        <time>2026-05-06T16:10:46.977Z</time>
      </trkpt>
      <trkpt lat="53.238244" lon="6.537414">
        <ele>39.765715</ele>
        <time>2026-05-06T16:10:49.984Z</time>
      </trkpt>
      <trkpt lat="53.238163" lon="6.537339">
        <ele>39.666415</ele>
        <time>2026-05-06T16:10:53.984Z</time>
      </trkpt>
      <trkpt lat="53.238115" lon="6.537185">
        <ele>39.570174</ele>
        <time>2026-05-06T16:10:56.982Z</time>
      </trkpt>
      <trkpt lat="53.238102" lon="6.537021">
        <ele>39.478479</ele>
        <time>2026-05-06T16:10:58.980Z</time>
      </trkpt>
      <trkpt lat="53.238047" lon="6.536887">
        <ele>39.388418</ele>
        <time>2026-05-06T16:11:00.986Z</time>
      </trkpt>
      <trkpt lat="53.237988" lon="6.536733">
        <ele>39.287069</ele>
        <time>2026-05-06T16:11:02.981Z</time>
      </trkpt>
      <trkpt lat="53.237945" lon="6.536564">
        <ele>39.185282</ele>
        <time>2026-05-06T16:11:04.982Z</time>
      </trkpt>
      <trkpt lat="53.237896" lon="6.536399">
        <ele>39.083186</ele>
        <time>2026-05-06T16:11:06.981Z</time>
      </trkpt>
      <trkpt lat="53.237854" lon="6.536239">
        <ele>38.986347</ele>
        <time>2026-05-06T16:11:08.984Z</time>
      </trkpt>
      <trkpt lat="53.237821" lon="6.536071">
        <ele>38.888341</ele>
        <time>2026-05-06T16:11:10.983Z</time>
      </trkpt>
      <trkpt lat="53.237777" lon="6.535905">
        <ele>38.787711</ele>
        <time>2026-05-06T16:11:12.976Z</time>
      </trkpt>
      <trkpt lat="53.237739" lon="6.535737">
        <ele>38.688163</ele>
        <time>2026-05-06T16:11:14.977Z</time>
      </trkpt>
      <trkpt lat="53.237698" lon="6.535570">
        <ele>38.588113</ele>
        <time>2026-05-06T16:11:16.981Z</time>
      </trkpt>
      <trkpt lat="53.237651" lon="6.535395">
        <ele>38.481795</ele>
        <time>2026-05-06T16:11:18.980Z</time>
      </trkpt>
      <trkpt lat="53.237611" lon="6.535221">
        <ele>38.378480</ele>
        <time>2026-05-06T16:11:20.975Z</time>
      </trkpt>
      <trkpt lat="53.237579" lon="6.535048">
        <ele>38.278114</ele>
        <time>2026-05-06T16:11:22.987Z</time>
      </trkpt>
      <trkpt lat="53.237533" lon="6.534869">
        <ele>38.170138</ele>
        <time>2026-05-06T16:11:24.980Z</time>
      </trkpt>
      <trkpt lat="53.237487" lon="6.534695">
        <ele>38.073377</ele>
        <time>2026-05-06T16:11:26.979Z</time>
      </trkpt>
      <trkpt lat="53.237433" lon="6.534540">
        <ele>38.087949</ele>
        <time>2026-05-06T16:11:28.980Z</time>
      </trkpt>
      <trkpt lat="53.237396" lon="6.534380">
        <ele>38.101886</ele>
        <time>2026-05-06T16:11:30.994Z</time>
      </trkpt>
      <trkpt lat="53.237346" lon="6.534205">
        <ele>38.117642</ele>
        <time>2026-05-06T16:11:32.986Z</time>
      </trkpt>
      <trkpt lat="53.237306" lon="6.534025">
        <ele>38.133243</ele>
        <time>2026-05-06T16:11:34.985Z</time>
      </trkpt>
      <trkpt lat="53.237255" lon="6.533865">
        <ele>38.147972</ele>
        <time>2026-05-06T16:11:36.980Z</time>
      </trkpt>
      <trkpt lat="53.237219" lon="6.533707">
        <ele>38.161708</ele>
        <time>2026-05-06T16:11:38.981Z</time>
      </trkpt>
      <trkpt lat="53.237173" lon="6.533540">
        <ele>38.176646</ele>
        <time>2026-05-06T16:11:40.985Z</time>
      </trkpt>
      <trkpt lat="53.237134" lon="6.533380">
        <ele>38.190683</ele>
        <time>2026-05-06T16:11:42.986Z</time>
      </trkpt>
      <trkpt lat="53.237096" lon="6.533225">
        <ele>38.204292</ele>
        <time>2026-05-06T16:11:44.985Z</time>
      </trkpt>
      <trkpt lat="53.237051" lon="6.533065">
        <ele>38.218657</ele>
        <time>2026-05-06T16:11:46.983Z</time>
      </trkpt>
      <trkpt lat="53.237009" lon="6.532898">
        <ele>38.233375</ele>
        <time>2026-05-06T16:11:48.979Z</time>
      </trkpt>
      <trkpt lat="53.236972" lon="6.532732">
        <ele>38.247768</ele>
        <time>2026-05-06T16:11:50.983Z</time>
      </trkpt>
      <trkpt lat="53.236939" lon="6.532586">
        <ele>38.260448</ele>
        <time>2026-05-06T16:11:52.978Z</time>
      </trkpt>
      <trkpt lat="53.236941" lon="6.532416">
        <ele>38.274264</ele>
        <time>2026-05-06T16:11:55.983Z</time>
      </trkpt>
      <trkpt lat="53.236931" lon="6.532245">
        <ele>38.288224</ele>
        <time>2026-05-06T16:12:00.981Z</time>
      </trkpt>
      <trkpt lat="53.236888" lon="6.532088">
        <ele>38.302253</ele>
        <time>2026-05-06T16:12:08.982Z</time>
      </trkpt>
      <trkpt lat="53.236798" lon="6.531999">
        <ele>38.316451</ele>
        <time>2026-05-06T16:12:13.979Z</time>
      </trkpt>
      <trkpt lat="53.236744" lon="6.531828">
        <ele>38.331594</ele>
        <time>2026-05-06T16:12:17.983Z</time>
      </trkpt>
      <trkpt lat="53.236712" lon="6.531686">
        <ele>38.343478</ele>
        <time>2026-05-06T16:12:22.979Z</time>
      </trkpt>
      <trkpt lat="53.236617" lon="6.531621">
        <ele>38.356912</ele>
        <time>2026-05-06T16:12:28.989Z</time>
      </trkpt>
      <trkpt lat="53.236574" lon="6.531457">
        <ele>38.370936</ele>
        <time>2026-05-06T16:12:32.980Z</time>
      </trkpt>
      <trkpt lat="53.236534" lon="6.531296">
        <ele>38.384589</ele>
        <time>2026-05-06T16:12:36.981Z</time>
      </trkpt>
      <trkpt lat="53.236489" lon="6.531132">
        <ele>38.398720</ele>
        <time>2026-05-06T16:12:40.985Z</time>
      </trkpt>
      <trkpt lat="53.236395" lon="6.531186">
        <ele>38.411728</ele>
        <time>2026-05-06T16:12:46.985Z</time>
      </trkpt>
      <trkpt lat="53.236305" lon="6.531100">
        <ele>38.425296</ele>
        <time>2026-05-06T16:12:56.984Z</time>
      </trkpt>
      <trkpt lat="53.236266" lon="6.530926">
        <ele>38.439848</ele>
        <time>2026-05-06T16:13:01.991Z</time>
      </trkpt>
      <trkpt lat="53.236234" lon="6.530764">
        <ele>38.453210</ele>
        <time>2026-05-06T16:13:04.980Z</time>
      </trkpt>
      <trkpt lat="53.236176" lon="6.530638">
        <ele>38.465660</ele>
        <time>2026-05-06T16:13:07.982Z</time>
      </trkpt>
      <trkpt lat="53.236059" lon="6.530680">
        <ele>38.481320</ele>
        <time>2026-05-06T16:13:10.985Z</time>
      </trkpt>
      <trkpt lat="53.235972" lon="6.530733">
        <ele>38.493439</ele>
        <time>2026-05-06T16:13:12.982Z</time>
      </trkpt>
      <trkpt lat="53.235882" lon="6.530802">
        <ele>38.506397</ele>
        <time>2026-05-06T16:13:14.983Z</time>
      </trkpt>
      <trkpt lat="53.235787" lon="6.530867">
        <ele>38.519831</ele>
        <time>2026-05-06T16:13:16.980Z</time>
      </trkpt>
      <trkpt lat="53.235689" lon="6.530943">
        <ele>38.533970</ele>
        <time>2026-05-06T16:13:18.984Z</time>
      </trkpt>
      <trkpt lat="53.235603" lon="6.531005">
        <ele>38.546227</ele>
        <time>2026-05-06T16:13:20.986Z</time>
      </trkpt>
      <trkpt lat="53.235505" lon="6.531084">
        <ele>38.679884</ele>
        <time>2026-05-06T16:13:22.988Z</time>
      </trkpt>
      <trkpt lat="53.235408" lon="6.531136">
        <ele>38.877441</ele>
        <time>2026-05-06T16:13:24.978Z</time>
      </trkpt>
      <trkpt lat="53.235321" lon="6.531190">
        <ele>39.057425</ele>
        <time>2026-05-06T16:13:26.979Z</time>
      </trkpt>
      <trkpt lat="53.235228" lon="6.531160">
        <ele>39.241109</ele>
        <time>2026-05-06T16:13:28.972Z</time>
      </trkpt>
      <trkpt lat="53.235167" lon="6.531048">
        <ele>39.416877</ele>
        <time>2026-05-06T16:13:30.985Z</time>
      </trkpt>
      <trkpt lat="53.235140" lon="6.530897">
        <ele>39.599800</ele>
        <time>2026-05-06T16:13:32.981Z</time>
      </trkpt>
      <trkpt lat="53.235100" lon="6.530753">
        <ele>39.784068</ele>
        <time>2026-05-06T16:13:34.984Z</time>
      </trkpt>
      <trkpt lat="53.235062" lon="6.530614">
        <ele>39.961441</ele>
        <time>2026-05-06T16:13:36.985Z</time>
      </trkpt>
      <trkpt lat="53.235046" lon="6.530457">
        <ele>40.146298</ele>
        <time>2026-05-06T16:13:38.984Z</time>
      </trkpt>
      <trkpt lat="53.235003" lon="6.530313">
        <ele>40.333090</ele>
        <time>2026-05-06T16:13:40.980Z</time>
      </trkpt>
      <trkpt lat="53.234965" lon="6.530171">
        <ele>40.513637</ele>
        <time>2026-05-06T16:13:43.984Z</time>
      </trkpt>
      <trkpt lat="53.234918" lon="6.529982">
        <ele>40.751196</ele>
        <time>2026-05-06T16:13:47.983Z</time>
      </trkpt>
      <trkpt lat="53.234890" lon="6.529793">
        <ele>40.977195</ele>
        <time>2026-05-06T16:13:50.985Z</time>
      </trkpt>
      <trkpt lat="53.234872" lon="6.529645">
        <ele>41.152493</ele>
        <time>2026-05-06T16:13:52.985Z</time>
      </trkpt>
      <trkpt lat="53.234852" lon="6.529497">
        <ele>41.328606</ele>
        <time>2026-05-06T16:13:54.980Z</time>
      </trkpt>
      <trkpt lat="53.234833" lon="6.529309">
        <ele>41.549912</ele>
        <time>2026-05-06T16:13:57.980Z</time>
      </trkpt>
      <trkpt lat="53.234934" lon="6.529288">
        <ele>41.747291</ele>
        <time>2026-05-06T16:14:03.981Z</time>
      </trkpt>
      <trkpt lat="53.235033" lon="6.529210">
        <ele>41.959556</ele>
        <time>2026-05-06T16:14:07.987Z</time>
      </trkpt>
      <trkpt lat="53.235150" lon="6.529165">
        <ele>42.042141</ele>
        <time>2026-05-06T16:14:12.979Z</time>
      </trkpt>
      <trkpt lat="53.235255" lon="6.529139">
        <ele>42.045160</ele>
        <time>2026-05-06T16:14:15.981Z</time>
      </trkpt>
      <trkpt lat="53.235348" lon="6.529143">
        <ele>42.047807</ele>
        <time>2026-05-06T16:14:18.987Z</time>
      </trkpt>
      <trkpt lat="53.235440" lon="6.529115">
        <ele>42.050467</ele>
        <time>2026-05-06T16:14:23.978Z</time>
      </trkpt>
      <trkpt lat="53.235522" lon="6.529047">
        <ele>42.053071</ele>
        <time>2026-05-06T16:14:28.985Z</time>
      </trkpt>
      <trkpt lat="53.235432" lon="6.529117">
        <ele>42.055895</ele>
        <time>2026-05-06T16:14:46.982Z</time>
      </trkpt>
      <trkpt lat="53.235341" lon="6.529136">
        <ele>42.058503</ele>
        <time>2026-05-06T16:14:51.982Z</time>
      </trkpt>
      <trkpt lat="53.235433" lon="6.529040">
        <ele>42.061589</ele>
        <time>2026-05-06T16:15:01.985Z</time>
      </trkpt>
      <trkpt lat="53.235467" lon="6.528869">
        <ele>42.064656</ele>
        <time>2026-05-06T16:15:06.986Z</time>
      </trkpt>
      <trkpt lat="53.235426" lon="6.528690">
        <ele>42.067919</ele>
        <time>2026-05-06T16:15:10.981Z</time>
      </trkpt>
      <trkpt lat="53.235466" lon="6.528846">
        <ele>42.070809</ele>
        <time>2026-05-06T16:15:20.985Z</time>
      </trkpt>
      <trkpt lat="53.235516" lon="6.528716">
        <ele>42.073440</ele>
        <time>2026-05-06T16:15:28.983Z</time>
      </trkpt>
      <trkpt lat="53.235462" lon="6.528546">
        <ele>42.076716</ele>
        <time>2026-05-06T16:15:31.983Z</time>
      </trkpt>
      <trkpt lat="53.235435" lon="6.528354">
        <ele>42.080074</ele>
        <time>2026-05-06T16:15:34.983Z</time>
      </trkpt>
      <trkpt lat="53.235400" lon="6.528176">
        <ele>42.083264</ele>
        <time>2026-05-06T16:15:37.983Z</time>
      </trkpt>
      <trkpt lat="53.235357" lon="6.528018">
        <ele>42.086219</ele>
        <time>2026-05-06T16:15:40.983Z</time>
      </trkpt>
      <trkpt lat="53.235283" lon="6.527899">
        <ele>42.089141</ele>
        <time>2026-05-06T16:15:43.988Z</time>
      </trkpt>
      <trkpt lat="53.235213" lon="6.527803">
        <ele>42.068890</ele>
        <time>2026-05-06T16:15:46.984Z</time>
      </trkpt>
      <trkpt lat="53.235175" lon="6.527631">
        <ele>41.962310</ele>
        <time>2026-05-06T16:15:49.980Z</time>
      </trkpt>
      <trkpt lat="53.235170" lon="6.527448">
        <ele>41.855819</ele>
        <time>2026-05-06T16:15:52.982Z</time>
      </trkpt>
      <trkpt lat="53.235249" lon="6.527347">
        <ele>41.759206</ele>
        <time>2026-05-06T16:15:55.982Z</time>
      </trkpt>
      <trkpt lat="53.235349" lon="6.527272">
        <ele>41.652746</ele>
        <time>2026-05-06T16:15:58.992Z</time>
      </trkpt>
      <trkpt lat="53.235459" lon="6.527177">
        <ele>41.532481</ele>
        <time>2026-05-06T16:16:01.986Z</time>
      </trkpt>
      <trkpt lat="53.235534" lon="6.527092">
        <ele>41.444461</ele>
        <time>2026-05-06T16:16:03.981Z</time>
      </trkpt>
      <trkpt lat="53.235612" lon="6.527017">
        <ele>41.357056</ele>
        <time>2026-05-06T16:16:05.982Z</time>
      </trkpt>
      <trkpt lat="53.235695" lon="6.526931">
        <ele>41.262200</ele>
        <time>2026-05-06T16:16:07.978Z</time>
      </trkpt>
      <trkpt lat="53.235771" lon="6.526838">
        <ele>41.170707</ele>
        <time>2026-05-06T16:16:09.985Z</time>
      </trkpt>
      <trkpt lat="53.235855" lon="6.526761">
        <ele>41.077651</ele>
        <time>2026-05-06T16:16:11.979Z</time>
      </trkpt>
      <trkpt lat="53.235941" lon="6.526678">
        <ele>40.981191</ele>
        <time>2026-05-06T16:16:13.984Z</time>
      </trkpt>
      <trkpt lat="53.236033" lon="6.526603">
        <ele>40.881769</ele>
        <time>2026-05-06T16:16:15.985Z</time>
      </trkpt>
      <trkpt lat="53.236120" lon="6.526531">
        <ele>40.787474</ele>
        <time>2026-05-06T16:16:17.980Z</time>
      </trkpt>
      <trkpt lat="53.236200" lon="6.526446">
        <ele>40.695396</ele>
        <time>2026-05-06T16:16:19.991Z</time>
      </trkpt>
      <trkpt lat="53.236292" lon="6.526373">
        <ele>40.596478</ele>
        <time>2026-05-06T16:16:21.979Z</time>
      </trkpt>
      <trkpt lat="53.236382" lon="6.526288">
        <ele>40.496069</ele>
        <time>2026-05-06T16:16:23.978Z</time>
      </trkpt>
      <trkpt lat="53.236467" lon="6.526215">
        <ele>40.403247</ele>
        <time>2026-05-06T16:16:25.980Z</time>
      </trkpt>
      <trkpt lat="53.236557" lon="6.526144">
        <ele>40.311267</ele>
        <time>2026-05-06T16:16:27.978Z</time>
      </trkpt>
      <trkpt lat="53.236653" lon="6.526054">
        <ele>40.217680</ele>
        <time>2026-05-06T16:16:29.992Z</time>
      </trkpt>
      <trkpt lat="53.236736" lon="6.525987">
        <ele>40.139311</ele>
        <time>2026-05-06T16:16:31.982Z</time>
      </trkpt>
      <trkpt lat="53.236852" lon="6.525892">
        <ele>40.029480</ele>
        <time>2026-05-06T16:16:34.980Z</time>
      </trkpt>
      <trkpt lat="53.236970" lon="6.525787">
        <ele>39.915819</ele>
        <time>2026-05-06T16:16:37.978Z</time>
      </trkpt>
      <trkpt lat="53.237090" lon="6.525677">
        <ele>39.799452</ele>
        <time>2026-05-06T16:16:40.980Z</time>
      </trkpt>
      <trkpt lat="53.237198" lon="6.525563">
        <ele>39.690844</ele>
        <time>2026-05-06T16:16:43.988Z</time>
      </trkpt>
      <trkpt lat="53.237295" lon="6.525490">
        <ele>39.600397</ele>
        <time>2026-05-06T16:16:46.980Z</time>
      </trkpt>
      <trkpt lat="53.237402" lon="6.525426">
        <ele>39.503775</ele>
        <time>2026-05-06T16:16:50.987Z</time>
      </trkpt>
      <trkpt lat="53.237589" lon="6.525263">
        <ele>39.324458</ele>
        <time>2026-05-06T16:18:54.988Z</time>
      </trkpt>
      <trkpt lat="53.237685" lon="6.525183">
        <ele>39.233253</ele>
        <time>2026-05-06T16:18:59.981Z</time>
      </trkpt>
      <trkpt lat="53.237780" lon="6.525107">
        <ele>39.143705</ele>
        <time>2026-05-06T16:19:04.981Z</time>
      </trkpt>
      <trkpt lat="53.237867" lon="6.525029">
        <ele>39.059764</ele>
        <time>2026-05-06T16:19:08.982Z</time>
      </trkpt>
      <trkpt lat="53.237952" lon="6.524949">
        <ele>38.976823</ele>
        <time>2026-05-06T16:19:12.984Z</time>
      </trkpt>
      <trkpt lat="53.238066" lon="6.524857">
        <ele>38.869190</ele>
        <time>2026-05-06T16:19:16.983Z</time>
      </trkpt>
      <trkpt lat="53.238188" lon="6.524760">
        <ele>38.779692</ele>
        <time>2026-05-06T16:19:19.986Z</time>
      </trkpt>
      <trkpt lat="53.238273" lon="6.524686">
        <ele>38.732274</ele>
        <time>2026-05-06T16:19:21.985Z</time>
      </trkpt>
      <trkpt lat="53.238368" lon="6.524606">
        <ele>38.679644</ele>
        <time>2026-05-06T16:19:23.983Z</time>
      </trkpt>
      <trkpt lat="53.238463" lon="6.524522">
        <ele>38.626469</ele>
        <time>2026-05-06T16:19:25.984Z</time>
      </trkpt>
      <trkpt lat="53.238558" lon="6.524431">
        <ele>38.572294</ele>
        <time>2026-05-06T16:19:27.976Z</time>
      </trkpt>
      <trkpt lat="53.238649" lon="6.524347">
        <ele>38.520861</ele>
        <time>2026-05-06T16:19:29.985Z</time>
      </trkpt>
      <trkpt lat="53.238745" lon="6.524256">
        <ele>38.466256</ele>
        <time>2026-05-06T16:19:31.983Z</time>
      </trkpt>
      <trkpt lat="53.238833" lon="6.524186">
        <ele>38.418039</ele>
        <time>2026-05-06T16:19:33.983Z</time>
      </trkpt>
      <trkpt lat="53.238917" lon="6.524116">
        <ele>38.371600</ele>
        <time>2026-05-06T16:19:35.984Z</time>
      </trkpt>
      <trkpt lat="53.238995" lon="6.524035">
        <ele>38.326166</ele>
        <time>2026-05-06T16:19:37.981Z</time>
      </trkpt>
      <trkpt lat="53.239072" lon="6.523954">
        <ele>38.281151</ele>
        <time>2026-05-06T16:19:39.984Z</time>
      </trkpt>
      <trkpt lat="53.239155" lon="6.523891">
        <ele>38.236050</ele>
        <time>2026-05-06T16:19:41.982Z</time>
      </trkpt>
      <trkpt lat="53.239238" lon="6.523815">
        <ele>38.189226</ele>
        <time>2026-05-06T16:19:43.988Z</time>
      </trkpt>
      <trkpt lat="53.239324" lon="6.523734">
        <ele>38.140386</ele>
        <time>2026-05-06T16:19:45.979Z</time>
      </trkpt>
      <trkpt lat="53.239411" lon="6.523659">
        <ele>38.091954</ele>
        <time>2026-05-06T16:19:47.989Z</time>
      </trkpt>
      <trkpt lat="53.239504" lon="6.523576">
        <ele>38.039792</ele>
        <time>2026-05-06T16:19:49.977Z</time>
      </trkpt>
      <trkpt lat="53.239589" lon="6.523510">
        <ele>37.993422</ele>
        <time>2026-05-06T16:19:51.984Z</time>
      </trkpt>
      <trkpt lat="53.239676" lon="6.523436">
        <ele>37.945125</ele>
        <time>2026-05-06T16:19:53.979Z</time>
      </trkpt>
      <trkpt lat="53.239768" lon="6.523356">
        <ele>38.004186</ele>
        <time>2026-05-06T16:19:55.977Z</time>
      </trkpt>
      <trkpt lat="53.239853" lon="6.523280">
        <ele>38.124426</ele>
        <time>2026-05-06T16:19:57.984Z</time>
      </trkpt>
      <trkpt lat="53.239934" lon="6.523211">
        <ele>38.237824</ele>
        <time>2026-05-06T16:19:59.983Z</time>
      </trkpt>
      <trkpt lat="53.240019" lon="6.523128">
        <ele>38.360615</ele>
        <time>2026-05-06T16:20:01.992Z</time>
      </trkpt>
      <trkpt lat="53.240106" lon="6.523053">
        <ele>38.482716</ele>
        <time>2026-05-06T16:20:03.982Z</time>
      </trkpt>
      <trkpt lat="53.240184" lon="6.522975">
        <ele>38.596093</ele>
        <time>2026-05-06T16:20:05.978Z</time>
      </trkpt>
      <trkpt lat="53.240267" lon="6.522870">
        <ele>38.725937</ele>
        <time>2026-05-06T16:20:08.992Z</time>
      </trkpt>
      <trkpt lat="53.240200" lon="6.522713">
        <ele>38.869869</ele>
        <time>2026-05-06T16:20:12.977Z</time>
      </trkpt>
      <trkpt lat="53.240147" lon="6.522546">
        <ele>39.010966</ele>
        <time>2026-05-06T16:20:15.990Z</time>
      </trkpt>
      <trkpt lat="53.240093" lon="6.522350">
        <ele>39.172026</ele>
        <time>2026-05-06T16:20:18.977Z</time>
      </trkpt>
      <trkpt lat="53.240035" lon="6.522163">
        <ele>39.329241</ele>
        <time>2026-05-06T16:20:21.983Z</time>
      </trkpt>
      <trkpt lat="53.239982" lon="6.521982">
        <ele>39.479650</ele>
        <time>2026-05-06T16:20:24.983Z</time>
      </trkpt>
      <trkpt lat="53.239926" lon="6.521795">
        <ele>39.635734</ele>
        <time>2026-05-06T16:20:27.979Z</time>
      </trkpt>
      <trkpt lat="53.239872" lon="6.521606">
        <ele>39.792063</ele>
        <time>2026-05-06T16:20:30.983Z</time>
      </trkpt>
      <trkpt lat="53.239824" lon="6.521455">
        <ele>39.919688</ele>
        <time>2026-05-06T16:20:34.985Z</time>
      </trkpt>
      <trkpt lat="53.239861" lon="6.521295">
        <ele>40.047724</ele>
        <time>2026-05-06T16:20:41.981Z</time>
      </trkpt>
      <trkpt lat="53.239953" lon="6.521208">
        <ele>40.163458</ele>
        <time>2026-05-06T16:20:44.978Z</time>
      </trkpt>
      <trkpt lat="53.240061" lon="6.521116">
        <ele>40.094257</ele>
        <time>2026-05-06T16:20:47.977Z</time>
      </trkpt>
      <trkpt lat="53.240187" lon="6.521032">
        <ele>40.016816</ele>
        <time>2026-05-06T16:20:50.980Z</time>
      </trkpt>
      <trkpt lat="53.240280" lon="6.520981">
        <ele>39.960941</ele>
        <time>2026-05-06T16:20:52.992Z</time>
      </trkpt>
      <trkpt lat="53.240372" lon="6.520947">
        <ele>39.907153</ele>
        <time>2026-05-06T16:20:54.985Z</time>
      </trkpt>
      <trkpt lat="53.240462" lon="6.520929">
        <ele>39.855410</ele>
        <time>2026-05-06T16:20:56.985Z</time>
      </trkpt>
      <trkpt lat="53.240581" lon="6.520914">
        <ele>39.787285</ele>
        <time>2026-05-06T16:20:59.983Z</time>
      </trkpt>
      <trkpt lat="53.240671" lon="6.520871">
        <ele>39.733849</ele>
        <time>2026-05-06T16:21:02.983Z</time>
      </trkpt>
      <trkpt lat="53.240738" lon="6.520761">
        <ele>39.680230</ele>
        <time>2026-05-06T16:21:05.984Z</time>
      </trkpt>
      <trkpt lat="53.240785" lon="6.520574">
        <ele>39.610940</ele>
        <time>2026-05-06T16:21:08.983Z</time>
      </trkpt>
      <trkpt lat="53.240801" lon="6.520374">
        <ele>39.542007</ele>
        <time>2026-05-06T16:21:11.983Z</time>
      </trkpt>
      <trkpt lat="53.240773" lon="6.520229">
        <ele>39.489956</ele>
        <time>2026-05-06T16:21:13.983Z</time>
      </trkpt>
      <trkpt lat="53.240733" lon="6.520089">
        <ele>39.436956</ele>
        <time>2026-05-06T16:21:15.983Z</time>
      </trkpt>
      <trkpt lat="53.240688" lon="6.519955">
        <ele>39.384463</ele>
        <time>2026-05-06T16:21:17.982Z</time>
      </trkpt>
      <trkpt lat="53.240620" lon="6.519756">
        <ele>39.306177</ele>
        <time>2026-05-06T16:21:20.988Z</time>
      </trkpt>
      <trkpt lat="53.240577" lon="6.519600">
        <ele>39.247501</ele>
        <time>2026-05-06T16:21:22.984Z</time>
      </trkpt>
      <trkpt lat="53.240562" lon="6.519435">
        <ele>39.190486</ele>
        <time>2026-05-06T16:21:24.982Z</time>
      </trkpt>
      <trkpt lat="53.240526" lon="6.519283">
        <ele>39.142682</ele>
        <time>2026-05-06T16:21:26.980Z</time>
      </trkpt>
      <trkpt lat="53.240490" lon="6.519067">
        <ele>39.152632</ele>
        <time>2026-05-06T16:21:29.981Z</time>
      </trkpt>
      <trkpt lat="53.240461" lon="6.518918">
        <ele>39.159585</ele>
        <time>2026-05-06T16:21:31.979Z</time>
      </trkpt>
      <trkpt lat="53.240420" lon="6.518756">
        <ele>39.167390</ele>
        <time>2026-05-06T16:21:33.987Z</time>
      </trkpt>
      <trkpt lat="53.240386" lon="6.518603">
        <ele>39.174632</ele>
        <time>2026-05-06T16:21:35.986Z</time>
      </trkpt>
      <trkpt lat="53.240347" lon="6.518444">
        <ele>39.182258</ele>
        <time>2026-05-06T16:21:37.986Z</time>
      </trkpt>
      <trkpt lat="53.240313" lon="6.518285">
        <ele>39.189750</ele>
        <time>2026-05-06T16:21:39.984Z</time>
      </trkpt>
      <trkpt lat="53.240270" lon="6.518126">
        <ele>39.197493</ele>
        <time>2026-05-06T16:21:41.985Z</time>
      </trkpt>
      <trkpt lat="53.240234" lon="6.517959">
        <ele>39.205370</ele>
        <time>2026-05-06T16:21:43.976Z</time>
      </trkpt>
      <trkpt lat="53.240198" lon="6.517797">
        <ele>39.213038</ele>
        <time>2026-05-06T16:21:45.985Z</time>
      </trkpt>
      <trkpt lat="53.240163" lon="6.517652">
        <ele>39.219976</ele>
        <time>2026-05-06T16:21:47.993Z</time>
      </trkpt>
      <trkpt lat="53.240133" lon="6.517501">
        <ele>39.227037</ele>
        <time>2026-05-06T16:21:49.996Z</time>
      </trkpt>
      <trkpt lat="53.240087" lon="6.517352">
        <ele>39.234476</ele>
        <time>2026-05-06T16:21:51.983Z</time>
      </trkpt>
      <trkpt lat="53.240048" lon="6.517214">
        <ele>39.241249</ele>
        <time>2026-05-06T16:21:53.984Z</time>
      </trkpt>
      <trkpt lat="53.240053" lon="6.517022">
        <ele>39.249777</ele>
        <time>2026-05-06T16:21:56.977Z</time>
      </trkpt>
      <trkpt lat="53.240141" lon="6.516980">
        <ele>39.256563</ele>
        <time>2026-05-06T16:21:58.981Z</time>
      </trkpt>
      <trkpt lat="53.240244" lon="6.516947">
        <ele>39.264340</ele>
        <time>2026-05-06T16:22:00.979Z</time>
      </trkpt>
      <trkpt lat="53.240347" lon="6.516898">
        <ele>39.272280</ele>
        <time>2026-05-06T16:22:02.993Z</time>
      </trkpt>
      <trkpt lat="53.240446" lon="6.516853">
        <ele>39.314774</ele>
        <time>2026-05-06T16:22:04.981Z</time>
      </trkpt>
      <trkpt lat="53.240550" lon="6.516817">
        <ele>39.380339</ele>
        <time>2026-05-06T16:22:06.990Z</time>
      </trkpt>
      <trkpt lat="53.240649" lon="6.516772">
        <ele>39.443676</ele>
        <time>2026-05-06T16:22:08.981Z</time>
      </trkpt>
      <trkpt lat="53.240749" lon="6.516722">
        <ele>39.508113</ele>
        <time>2026-05-06T16:22:10.982Z</time>
      </trkpt>
      <trkpt lat="53.240842" lon="6.516685">
        <ele>39.567129</ele>
        <time>2026-05-06T16:22:12.987Z</time>
      </trkpt>
      <trkpt lat="53.240936" lon="6.516640">
        <ele>39.627493</ele>
        <time>2026-05-06T16:22:14.988Z</time>
      </trkpt>
      <trkpt lat="53.241035" lon="6.516595">
        <ele>39.690829</ele>
        <time>2026-05-06T16:22:16.983Z</time>
      </trkpt>
      <trkpt lat="53.241143" lon="6.516540">
        <ele>39.760528</ele>
        <time>2026-05-06T16:22:18.981Z</time>
      </trkpt>
      <trkpt lat="53.241241" lon="6.516486">
        <ele>39.824231</ele>
        <time>2026-05-06T16:22:20.981Z</time>
      </trkpt>
      <trkpt lat="53.241329" lon="6.516434">
        <ele>39.881853</ele>
        <time>2026-05-06T16:22:22.999Z</time>
      </trkpt>
      <trkpt lat="53.241421" lon="6.516385">
        <ele>39.941462</ele>
        <time>2026-05-06T16:22:24.981Z</time>
      </trkpt>
      <trkpt lat="53.241516" lon="6.516348">
        <ele>40.001680</ele>
        <time>2026-05-06T16:22:26.981Z</time>
      </trkpt>
      <trkpt lat="53.241613" lon="6.516313">
        <ele>40.062941</ele>
        <time>2026-05-06T16:22:28.988Z</time>
      </trkpt>
      <trkpt lat="53.241712" lon="6.516263">
        <ele>40.126788</ele>
        <time>2026-05-06T16:22:30.978Z</time>
      </trkpt>
      <trkpt lat="53.241843" lon="6.516206">
        <ele>40.210354</ele>
        <time>2026-05-06T16:22:33.985Z</time>
      </trkpt>
      <trkpt lat="53.241928" lon="6.516156">
        <ele>40.265984</ele>
        <time>2026-05-06T16:22:35.982Z</time>
      </trkpt>
      <trkpt lat="53.242020" lon="6.516114">
        <ele>40.324859</ele>
        <time>2026-05-06T16:22:37.981Z</time>
      </trkpt>
      <trkpt lat="53.242110" lon="6.516070">
        <ele>40.382748</ele>
        <time>2026-05-06T16:22:39.986Z</time>
      </trkpt>
      <trkpt lat="53.242200" lon="6.516028">
        <ele>40.410057</ele>
        <time>2026-05-06T16:22:41.987Z</time>
      </trkpt>
      <trkpt lat="53.242290" lon="6.515980">
        <ele>40.436140</ele>
        <time>2026-05-06T16:22:43.981Z</time>
      </trkpt>
      <trkpt lat="53.242391" lon="6.515932">
        <ele>40.465130</ele>
        <time>2026-05-06T16:22:45.985Z</time>
      </trkpt>
      <trkpt lat="53.242522" lon="6.515866">
        <ele>40.502905</ele>
        <time>2026-05-06T16:22:48.992Z</time>
      </trkpt>
      <trkpt lat="53.242615" lon="6.515830">
        <ele>40.529261</ele>
        <time>2026-05-06T16:22:50.993Z</time>
      </trkpt>
      <trkpt lat="53.242712" lon="6.515791">
        <ele>40.556806</ele>
        <time>2026-05-06T16:22:52.985Z</time>
      </trkpt>
      <trkpt lat="53.242800" lon="6.515756">
        <ele>40.581780</ele>
        <time>2026-05-06T16:22:54.991Z</time>
      </trkpt>
      <trkpt lat="53.242891" lon="6.515720">
        <ele>40.607598</ele>
        <time>2026-05-06T16:22:56.984Z</time>
      </trkpt>
      <trkpt lat="53.242978" lon="6.515675">
        <ele>40.632742</ele>
        <time>2026-05-06T16:22:58.983Z</time>
      </trkpt>
      <trkpt lat="53.243074" lon="6.515643">
        <ele>40.659769</ele>
        <time>2026-05-06T16:23:00.983Z</time>
      </trkpt>
      <trkpt lat="53.243164" lon="6.515602">
        <ele>40.685523</ele>
        <time>2026-05-06T16:23:02.991Z</time>
      </trkpt>
      <trkpt lat="53.243261" lon="6.515559">
        <ele>40.713230</ele>
        <time>2026-05-06T16:23:04.983Z</time>
      </trkpt>
      <trkpt lat="53.243351" lon="6.515512">
        <ele>40.739263</ele>
        <time>2026-05-06T16:23:06.983Z</time>
      </trkpt>
      <trkpt lat="53.243477" lon="6.515450">
        <ele>40.775526</ele>
        <time>2026-05-06T16:23:09.990Z</time>
      </trkpt>
      <trkpt lat="53.243575" lon="6.515413">
        <ele>40.803265</ele>
        <time>2026-05-06T16:23:11.996Z</time>
      </trkpt>
      <trkpt lat="53.243671" lon="6.515376">
        <ele>40.830465</ele>
        <time>2026-05-06T16:23:13.980Z</time>
      </trkpt>
      <trkpt lat="53.243766" lon="6.515328">
        <ele>40.857865</ele>
        <time>2026-05-06T16:23:15.984Z</time>
      </trkpt>
      <trkpt lat="53.243856" lon="6.515280">
        <ele>40.878417</ele>
        <time>2026-05-06T16:23:17.978Z</time>
      </trkpt>
      <trkpt lat="53.243946" lon="6.515231">
        <ele>40.827962</ele>
        <time>2026-05-06T16:23:19.980Z</time>
      </trkpt>
      <trkpt lat="53.244043" lon="6.515180">
        <ele>40.773758</ele>
        <time>2026-05-06T16:23:21.982Z</time>
      </trkpt>
      <trkpt lat="53.244133" lon="6.515144">
        <ele>40.724430</ele>
        <time>2026-05-06T16:23:23.980Z</time>
      </trkpt>
      <trkpt lat="53.244229" lon="6.515096">
        <ele>40.671016</ele>
        <time>2026-05-06T16:23:25.987Z</time>
      </trkpt>
      <trkpt lat="53.244352" lon="6.515043">
        <ele>40.603308</ele>
        <time>2026-05-06T16:23:28.984Z</time>
      </trkpt>
      <trkpt lat="53.244470" lon="6.514984">
        <ele>40.537654</ele>
        <time>2026-05-06T16:23:31.986Z</time>
      </trkpt>
      <trkpt lat="53.244597" lon="6.514929">
        <ele>40.467722</ele>
        <time>2026-05-06T16:23:34.982Z</time>
      </trkpt>
      <trkpt lat="53.244714" lon="6.514866">
        <ele>40.402199</ele>
        <time>2026-05-06T16:23:37.983Z</time>
      </trkpt>
      <trkpt lat="53.244820" lon="6.514815">
        <ele>40.343402</ele>
        <time>2026-05-06T16:23:40.985Z</time>
      </trkpt>
      <trkpt lat="53.244903" lon="6.514750">
        <ele>40.294542</ele>
        <time>2026-05-06T16:23:43.986Z</time>
      </trkpt>
      <trkpt lat="53.244893" lon="6.514933">
        <ele>40.235928</ele>
        <time>2026-05-06T16:25:46.981Z</time>
      </trkpt>
      <trkpt lat="53.244947" lon="6.515098">
        <ele>40.175941</ele>
        <time>2026-05-06T16:25:49.989Z</time>
      </trkpt>
      <trkpt lat="53.244995" lon="6.515275">
        <ele>40.113957</ele>
        <time>2026-05-06T16:25:52.983Z</time>
      </trkpt>
      <trkpt lat="53.245056" lon="6.515456">
        <ele>40.047697</ele>
        <time>2026-05-06T16:25:55.983Z</time>
      </trkpt>
      <trkpt lat="53.245113" lon="6.515641">
        <ele>39.981326</ele>
        <time>2026-05-06T16:25:58.980Z</time>
      </trkpt>
      <trkpt lat="53.245180" lon="6.515826">
        <ele>39.928119</ele>
        <time>2026-05-06T16:26:01.988Z</time>
      </trkpt>
      <trkpt lat="53.245242" lon="6.516005">
        <ele>39.957041</ele>
        <time>2026-05-06T16:26:04.977Z</time>
      </trkpt>
      <trkpt lat="53.245299" lon="6.516197">
        <ele>39.987013</ele>
        <time>2026-05-06T16:26:07.979Z</time>
      </trkpt>
      <trkpt lat="53.245345" lon="6.516327">
        <ele>40.008132</ele>
        <time>2026-05-06T16:26:09.986Z</time>
      </trkpt>
      <trkpt lat="53.245392" lon="6.516458">
        <ele>40.029491</ele>
        <time>2026-05-06T16:26:11.983Z</time>
      </trkpt>
      <trkpt lat="53.245450" lon="6.516638">
        <ele>40.058079</ele>
        <time>2026-05-06T16:26:14.977Z</time>
      </trkpt>
      <trkpt lat="53.245500" lon="6.516834">
        <ele>40.087874</ele>
        <time>2026-05-06T16:26:17.987Z</time>
      </trkpt>
      <trkpt lat="53.245561" lon="6.517036">
        <ele>40.119514</ele>
        <time>2026-05-06T16:26:20.991Z</time>
      </trkpt>
      <trkpt lat="53.245625" lon="6.517230">
        <ele>40.150492</ele>
        <time>2026-05-06T16:26:23.979Z</time>
      </trkpt>
      <trkpt lat="53.245694" lon="6.517424">
        <ele>40.182051</ele>
        <time>2026-05-06T16:26:26.981Z</time>
      </trkpt>
      <trkpt lat="53.245750" lon="6.517615">
        <ele>40.211793</ele>
        <time>2026-05-06T16:26:29.983Z</time>
      </trkpt>
      <trkpt lat="53.245813" lon="6.517783">
        <ele>40.239518</ele>
        <time>2026-05-06T16:26:32.982Z</time>
      </trkpt>
      <trkpt lat="53.245913" lon="6.517857">
        <ele>40.265075</ele>
        <time>2026-05-06T16:26:35.989Z</time>
      </trkpt>
      <trkpt lat="53.246035" lon="6.517787">
        <ele>40.295219</ele>
        <time>2026-05-06T16:26:38.981Z</time>
      </trkpt>
      <trkpt lat="53.246124" lon="6.517702">
        <ele>40.319174</ele>
        <time>2026-05-06T16:26:40.983Z</time>
      </trkpt>
      <trkpt lat="53.246213" lon="6.517618">
        <ele>40.343060</ele>
        <time>2026-05-06T16:26:42.986Z</time>
      </trkpt>
      <trkpt lat="53.246297" lon="6.517542">
        <ele>40.369575</ele>
        <time>2026-05-06T16:26:44.979Z</time>
      </trkpt>
      <trkpt lat="53.246384" lon="6.517468">
        <ele>40.396787</ele>
        <time>2026-05-06T16:26:46.981Z</time>
      </trkpt>
      <trkpt lat="53.246475" lon="6.517382">
        <ele>40.425929</ele>
        <time>2026-05-06T16:26:48.988Z</time>
      </trkpt>
      <trkpt lat="53.246561" lon="6.517311">
        <ele>40.452668</ele>
        <time>2026-05-06T16:26:50.980Z</time>
      </trkpt>
      <trkpt lat="53.246648" lon="6.517229">
        <ele>40.480510</ele>
        <time>2026-05-06T16:26:52.979Z</time>
      </trkpt>
      <trkpt lat="53.246736" lon="6.517157">
        <ele>40.507823</ele>
        <time>2026-05-06T16:26:54.980Z</time>
      </trkpt>
      <trkpt lat="53.246823" lon="6.517079">
        <ele>40.535344</ele>
        <time>2026-05-06T16:26:56.977Z</time>
      </trkpt>
      <trkpt lat="53.246908" lon="6.517003">
        <ele>40.562216</ele>
        <time>2026-05-06T16:26:58.984Z</time>
      </trkpt>
      <trkpt lat="53.246993" lon="6.516930">
        <ele>40.588856</ele>
        <time>2026-05-06T16:27:00.984Z</time>
      </trkpt>
      <trkpt lat="53.247075" lon="6.516852">
        <ele>40.615157</ele>
        <time>2026-05-06T16:27:02.991Z</time>
      </trkpt>
      <trkpt lat="53.247157" lon="6.516774">
        <ele>40.641458</ele>
        <time>2026-05-06T16:27:04.986Z</time>
      </trkpt>
      <trkpt lat="53.247241" lon="6.516696">
        <ele>40.668245</ele>
        <time>2026-05-06T16:27:06.981Z</time>
      </trkpt>
      <trkpt lat="53.247323" lon="6.516627">
        <ele>40.693837</ele>
        <time>2026-05-06T16:27:08.984Z</time>
      </trkpt>
      <trkpt lat="53.247406" lon="6.516558">
        <ele>40.719678</ele>
        <time>2026-05-06T16:27:10.979Z</time>
      </trkpt>
      <trkpt lat="53.247488" lon="6.516490">
        <ele>40.745195</ele>
        <time>2026-05-06T16:27:12.985Z</time>
      </trkpt>
      <trkpt lat="53.247571" lon="6.516416">
        <ele>40.771418</ele>
        <time>2026-05-06T16:27:14.982Z</time>
      </trkpt>
      <trkpt lat="53.247652" lon="6.516338">
        <ele>40.797477</ele>
        <time>2026-05-06T16:27:16.990Z</time>
      </trkpt>
      <trkpt lat="53.247734" lon="6.516258">
        <ele>40.823944</ele>
        <time>2026-05-06T16:27:18.982Z</time>
      </trkpt>
      <trkpt lat="53.247821" lon="6.516184">
        <ele>40.842121</ele>
        <time>2026-05-06T16:27:20.982Z</time>
      </trkpt>
      <trkpt lat="53.247906" lon="6.516110">
        <ele>40.829517</ele>
        <time>2026-05-06T16:27:22.982Z</time>
      </trkpt>
      <trkpt lat="53.248026" lon="6.516006">
        <ele>40.811740</ele>
        <time>2026-05-06T16:27:25.985Z</time>
      </trkpt>
      <trkpt lat="53.248110" lon="6.515935">
        <ele>40.799360</ele>
        <time>2026-05-06T16:27:27.988Z</time>
      </trkpt>
      <trkpt lat="53.248189" lon="6.515859">
        <ele>40.787372</ele>
        <time>2026-05-06T16:27:29.992Z</time>
      </trkpt>
      <trkpt lat="53.248272" lon="6.515790">
        <ele>40.775181</ele>
        <time>2026-05-06T16:27:31.989Z</time>
      </trkpt>
      <trkpt lat="53.248351" lon="6.515719">
        <ele>40.763385</ele>
        <time>2026-05-06T16:27:33.982Z</time>
      </trkpt>
      <trkpt lat="53.248461" lon="6.515615">
        <ele>40.746764</ele>
        <time>2026-05-06T16:27:36.981Z</time>
      </trkpt>
      <trkpt lat="53.248576" lon="6.515518">
        <ele>40.729823</ele>
        <time>2026-05-06T16:27:39.982Z</time>
      </trkpt>
      <trkpt lat="53.248693" lon="6.515420">
        <ele>40.712612</ele>
        <time>2026-05-06T16:27:42.980Z</time>
      </trkpt>
      <trkpt lat="53.248812" lon="6.515313">
        <ele>40.694841</ele>
        <time>2026-05-06T16:27:45.980Z</time>
      </trkpt>
      <trkpt lat="53.248893" lon="6.515244">
        <ele>40.682884</ele>
        <time>2026-05-06T16:27:47.987Z</time>
      </trkpt>
      <trkpt lat="53.248972" lon="6.515171">
        <ele>40.671013</ele>
        <time>2026-05-06T16:27:49.993Z</time>
      </trkpt>
      <trkpt lat="53.249060" lon="6.515090">
        <ele>40.657801</ele>
        <time>2026-05-06T16:27:51.992Z</time>
      </trkpt>
      <trkpt lat="53.249178" lon="6.514986">
        <ele>40.640257</ele>
        <time>2026-05-06T16:27:54.975Z</time>
      </trkpt>
      <trkpt lat="53.249259" lon="6.514914">
        <ele>40.628191</ele>
        <time>2026-05-06T16:27:56.982Z</time>
      </trkpt>
      <trkpt lat="53.249338" lon="6.514843">
        <ele>40.616395</ele>
        <time>2026-05-06T16:27:58.984Z</time>
      </trkpt>
      <trkpt lat="53.249457" lon="6.514743">
        <ele>40.634357</ele>
        <time>2026-05-06T16:28:01.985Z</time>
      </trkpt>
      <trkpt lat="53.249535" lon="6.514667">
        <ele>40.666384</ele>
        <time>2026-05-06T16:28:03.986Z</time>
      </trkpt>
      <trkpt lat="53.249618" lon="6.514592">
        <ele>40.699853</ele>
        <time>2026-05-06T16:28:05.985Z</time>
      </trkpt>
      <trkpt lat="53.249697" lon="6.514520">
        <ele>40.731771</ele>
        <time>2026-05-06T16:28:07.984Z</time>
      </trkpt>
      <trkpt lat="53.249811" lon="6.514418">
        <ele>40.777639</ele>
        <time>2026-05-06T16:28:10.982Z</time>
      </trkpt>
      <trkpt lat="53.249932" lon="6.514319">
        <ele>40.825427</ele>
        <time>2026-05-06T16:28:13.997Z</time>
      </trkpt>
      <trkpt lat="53.250014" lon="6.514243">
        <ele>40.858687</ele>
        <time>2026-05-06T16:28:15.983Z</time>
      </trkpt>
      <trkpt lat="53.250130" lon="6.514128">
        <ele>40.906528</ele>
        <time>2026-05-06T16:28:18.984Z</time>
      </trkpt>
      <trkpt lat="53.250210" lon="6.514058">
        <ele>40.938559</ele>
        <time>2026-05-06T16:28:20.982Z</time>
      </trkpt>
      <trkpt lat="53.250295" lon="6.513987">
        <ele>40.972266</ele>
        <time>2026-05-06T16:28:22.981Z</time>
      </trkpt>
      <trkpt lat="53.250374" lon="6.513910">
        <ele>41.004706</ele>
        <time>2026-05-06T16:28:24.988Z</time>
      </trkpt>
      <trkpt lat="53.250456" lon="6.513835">
        <ele>41.037863</ele>
        <time>2026-05-06T16:28:26.984Z</time>
      </trkpt>
      <trkpt lat="53.250545" lon="6.513768">
        <ele>41.072487</ele>
        <time>2026-05-06T16:28:28.988Z</time>
      </trkpt>
      <trkpt lat="53.250664" lon="6.513673">
        <ele>41.119267</ele>
        <time>2026-05-06T16:28:31.979Z</time>
      </trkpt>
      <trkpt lat="53.250772" lon="6.513563">
        <ele>41.164129</ele>
        <time>2026-05-06T16:28:34.985Z</time>
      </trkpt>
      <trkpt lat="53.250856" lon="6.513493">
        <ele>41.197424</ele>
        <time>2026-05-06T16:28:36.986Z</time>
      </trkpt>
      <trkpt lat="53.250936" lon="6.513423">
        <ele>41.229455</ele>
        <time>2026-05-06T16:28:38.986Z</time>
      </trkpt>
      <trkpt lat="53.251018" lon="6.513344">
        <ele>41.226583</ele>
        <time>2026-05-06T16:28:40.985Z</time>
      </trkpt>
      <trkpt lat="53.251102" lon="6.513265">
        <ele>41.185455</ele>
        <time>2026-05-06T16:28:42.979Z</time>
      </trkpt>
      <trkpt lat="53.251188" lon="6.513194">
        <ele>41.144526</ele>
        <time>2026-05-06T16:28:44.986Z</time>
      </trkpt>
      <trkpt lat="53.251302" lon="6.513067">
        <ele>41.086066</ele>
        <time>2026-05-06T16:28:47.986Z</time>
      </trkpt>
      <trkpt lat="53.251381" lon="6.512977">
        <ele>41.045271</ele>
        <time>2026-05-06T16:28:49.991Z</time>
      </trkpt>
      <trkpt lat="53.251454" lon="6.512878">
        <ele>41.005157</ele>
        <time>2026-05-06T16:28:51.983Z</time>
      </trkpt>
      <trkpt lat="53.251541" lon="6.512716">
        <ele>40.949582</ele>
        <time>2026-05-06T16:28:54.983Z</time>
      </trkpt>
      <trkpt lat="53.251593" lon="6.512586">
        <ele>40.909659</ele>
        <time>2026-05-06T16:28:56.993Z</time>
      </trkpt>
      <trkpt lat="53.251649" lon="6.512459">
        <ele>40.869383</ele>
        <time>2026-05-06T16:28:58.983Z</time>
      </trkpt>
      <trkpt lat="53.251698" lon="6.512328">
        <ele>40.829941</ele>
        <time>2026-05-06T16:29:00.984Z</time>
      </trkpt>
      <trkpt lat="53.251760" lon="6.512205">
        <ele>40.788881</ele>
        <time>2026-05-06T16:29:02.985Z</time>
      </trkpt>
      <trkpt lat="53.251807" lon="6.512075">
        <ele>40.750103</ele>
        <time>2026-05-06T16:29:04.989Z</time>
      </trkpt>
      <trkpt lat="53.251867" lon="6.511950">
        <ele>40.709191</ele>
        <time>2026-05-06T16:29:06.982Z</time>
      </trkpt>
      <trkpt lat="53.251916" lon="6.511822">
        <ele>40.670396</ele>
        <time>2026-05-06T16:29:08.982Z</time>
      </trkpt>
      <trkpt lat="53.251970" lon="6.511699">
        <ele>40.631448</ele>
        <time>2026-05-06T16:29:10.983Z</time>
      </trkpt>
      <trkpt lat="53.252045" lon="6.511518">
        <ele>40.575240</ele>
        <time>2026-05-06T16:29:13.987Z</time>
      </trkpt>
      <trkpt lat="53.252097" lon="6.511395">
        <ele>40.536790</ele>
        <time>2026-05-06T16:29:15.988Z</time>
      </trkpt>
      <trkpt lat="53.252151" lon="6.511272">
        <ele>40.497842</ele>
        <time>2026-05-06T16:29:17.986Z</time>
      </trkpt>
      <trkpt lat="53.252202" lon="6.511146">
        <ele>40.469493</ele>
        <time>2026-05-06T16:29:19.986Z</time>
      </trkpt>
      <trkpt lat="53.252257" lon="6.511025">
        <ele>40.451049</ele>
        <time>2026-05-06T16:29:21.979Z</time>
      </trkpt>
      <trkpt lat="53.252309" lon="6.510893">
        <ele>40.431866</ele>
        <time>2026-05-06T16:29:23.982Z</time>
      </trkpt>
      <trkpt lat="53.252361" lon="6.510770">
        <ele>40.413586</ele>
        <time>2026-05-06T16:29:25.984Z</time>
      </trkpt>
      <trkpt lat="53.252419" lon="6.510640">
        <ele>40.393903</ele>
        <time>2026-05-06T16:29:27.986Z</time>
      </trkpt>
      <trkpt lat="53.252489" lon="6.510452">
        <ele>40.367027</ele>
        <time>2026-05-06T16:29:30.981Z</time>
      </trkpt>
      <trkpt lat="53.252567" lon="6.510274">
        <ele>40.340247</ele>
        <time>2026-05-06T16:29:33.986Z</time>
      </trkpt>
      <trkpt lat="53.252622" lon="6.510143">
        <ele>40.320823</ele>
        <time>2026-05-06T16:29:35.986Z</time>
      </trkpt>
      <trkpt lat="53.252680" lon="6.510010">
        <ele>40.300847</ele>
        <time>2026-05-06T16:29:37.986Z</time>
      </trkpt>
      <trkpt lat="53.252735" lon="6.509881">
        <ele>40.281621</ele>
        <time>2026-05-06T16:29:39.984Z</time>
      </trkpt>
      <trkpt lat="53.252788" lon="6.509753">
        <ele>40.262727</ele>
        <time>2026-05-06T16:29:41.984Z</time>
      </trkpt>
      <trkpt lat="53.252853" lon="6.509621">
        <ele>40.241977</ele>
        <time>2026-05-06T16:29:43.979Z</time>
      </trkpt>
      <trkpt lat="53.252920" lon="6.509494">
        <ele>40.221426</ele>
        <time>2026-05-06T16:29:45.980Z</time>
      </trkpt>
      <trkpt lat="53.252986" lon="6.509373">
        <ele>40.201553</ele>
        <time>2026-05-06T16:29:47.981Z</time>
      </trkpt>
      <trkpt lat="53.253049" lon="6.509240">
        <ele>40.180963</ele>
        <time>2026-05-06T16:29:49.981Z</time>
      </trkpt>
      <trkpt lat="53.253112" lon="6.509126">
        <ele>40.162127</ele>
        <time>2026-05-06T16:29:51.984Z</time>
      </trkpt>
      <trkpt lat="53.253177" lon="6.509008">
        <ele>40.142659</ele>
        <time>2026-05-06T16:29:53.977Z</time>
      </trkpt>
      <trkpt lat="53.253240" lon="6.508890">
        <ele>40.123464</ele>
        <time>2026-05-06T16:29:55.990Z</time>
      </trkpt>
      <trkpt lat="53.253297" lon="6.508773">
        <ele>40.116805</ele>
        <time>2026-05-06T16:29:57.980Z</time>
      </trkpt>
      <trkpt lat="53.253380" lon="6.508616">
        <ele>40.124454</ele>
        <time>2026-05-06T16:30:00.979Z</time>
      </trkpt>
      <trkpt lat="53.253469" lon="6.508453">
        <ele>40.132510</ele>
        <time>2026-05-06T16:30:03.983Z</time>
      </trkpt>
      <trkpt lat="53.253528" lon="6.508338">
        <ele>40.138040</ele>
        <time>2026-05-06T16:30:05.987Z</time>
      </trkpt>
      <trkpt lat="53.253592" lon="6.508220">
        <ele>40.143854</ele>
        <time>2026-05-06T16:30:07.988Z</time>
      </trkpt>
      <trkpt lat="53.253684" lon="6.508064">
        <ele>40.151851</ele>
        <time>2026-05-06T16:30:10.985Z</time>
      </trkpt>
      <trkpt lat="53.253745" lon="6.507954">
        <ele>40.157326</ele>
        <time>2026-05-06T16:30:12.988Z</time>
      </trkpt>
      <trkpt lat="53.253802" lon="6.507830">
        <ele>40.163035</ele>
        <time>2026-05-06T16:30:14.985Z</time>
      </trkpt>
      <trkpt lat="53.253865" lon="6.507717">
        <ele>40.168674</ele>
        <time>2026-05-06T16:30:16.986Z</time>
      </trkpt>
      <trkpt lat="53.253929" lon="6.507596">
        <ele>40.174569</ele>
        <time>2026-05-06T16:30:18.978Z</time>
      </trkpt>
      <trkpt lat="53.254018" lon="6.507424">
        <ele>40.182871</ele>
        <time>2026-05-06T16:30:21.991Z</time>
      </trkpt>
      <trkpt lat="53.254082" lon="6.507303">
        <ele>40.188767</ele>
        <time>2026-05-06T16:30:23.984Z</time>
      </trkpt>
      <trkpt lat="53.254143" lon="6.507188">
        <ele>40.194378</ele>
        <time>2026-05-06T16:30:25.985Z</time>
      </trkpt>
      <trkpt lat="53.254231" lon="6.507021">
        <ele>40.202502</ele>
        <time>2026-05-06T16:30:28.984Z</time>
      </trkpt>
      <trkpt lat="53.254293" lon="6.506901">
        <ele>40.208290</ele>
        <time>2026-05-06T16:30:30.979Z</time>
      </trkpt>
      <trkpt lat="53.254357" lon="6.506780">
        <ele>40.214186</ele>
        <time>2026-05-06T16:30:32.985Z</time>
      </trkpt>
      <trkpt lat="53.254417" lon="6.506660">
        <ele>40.219895</ele>
        <time>2026-05-06T16:30:34.991Z</time>
      </trkpt>
      <trkpt lat="53.254481" lon="6.506549">
        <ele>40.218958</ele>
        <time>2026-05-06T16:30:36.985Z</time>
      </trkpt>
      <trkpt lat="53.254546" lon="6.506434">
        <ele>40.201916</ele>
        <time>2026-05-06T16:30:38.990Z</time>
      </trkpt>
      <trkpt lat="53.254605" lon="6.506318">
        <ele>40.185514</ele>
        <time>2026-05-06T16:30:40.982Z</time>
      </trkpt>
      <trkpt lat="53.254684" lon="6.506151">
        <ele>40.162580</ele>
        <time>2026-05-06T16:30:43.983Z</time>
      </trkpt>
      <trkpt lat="53.254766" lon="6.505976">
        <ele>40.138635</ele>
        <time>2026-05-06T16:30:46.989Z</time>
      </trkpt>
      <trkpt lat="53.254820" lon="6.505852">
        <ele>40.122113</ele>
        <time>2026-05-06T16:30:48.985Z</time>
      </trkpt>
      <trkpt lat="53.254873" lon="6.505725">
        <ele>40.105433</ele>
        <time>2026-05-06T16:30:50.979Z</time>
      </trkpt>
      <trkpt lat="53.254931" lon="6.505601">
        <ele>40.088478</ele>
        <time>2026-05-06T16:30:52.989Z</time>
      </trkpt>
      <trkpt lat="53.255014" lon="6.505424">
        <ele>40.064252</ele>
        <time>2026-05-06T16:30:55.992Z</time>
      </trkpt>
      <trkpt lat="53.255074" lon="6.505297">
        <ele>40.046820</ele>
        <time>2026-05-06T16:30:57.998Z</time>
      </trkpt>
      <trkpt lat="53.255125" lon="6.505172">
        <ele>40.030521</ele>
        <time>2026-05-06T16:30:59.980Z</time>
      </trkpt>
      <trkpt lat="53.255179" lon="6.505048">
        <ele>40.014000</ele>
        <time>2026-05-06T16:31:01.987Z</time>
      </trkpt>
      <trkpt lat="53.255236" lon="6.504922">
        <ele>39.996983</ele>
        <time>2026-05-06T16:31:03.987Z</time>
      </trkpt>
      <trkpt lat="53.255293" lon="6.504802">
        <ele>39.980478</ele>
        <time>2026-05-06T16:31:05.985Z</time>
      </trkpt>
      <trkpt lat="53.255345" lon="6.504668">
        <ele>39.963272</ele>
        <time>2026-05-06T16:31:07.987Z</time>
      </trkpt>
      <trkpt lat="53.255421" lon="6.504487">
        <ele>39.939452</ele>
        <time>2026-05-06T16:31:10.988Z</time>
      </trkpt>
      <trkpt lat="53.255481" lon="6.504367">
        <ele>39.922605</ele>
        <time>2026-05-06T16:31:12.987Z</time>
      </trkpt>
      <trkpt lat="53.255540" lon="6.504240">
        <ele>39.905284</ele>
        <time>2026-05-06T16:31:14.985Z</time>
      </trkpt>
      <trkpt lat="53.255598" lon="6.504118">
        <ele>39.940199</ele>
        <time>2026-05-06T16:31:16.985Z</time>
      </trkpt>
      <trkpt lat="53.255664" lon="6.503999">
        <ele>40.001309</ele>
        <time>2026-05-06T16:31:18.984Z</time>
      </trkpt>
      <trkpt lat="53.255758" lon="6.503844">
        <ele>40.084425</ele>
        <time>2026-05-06T16:31:21.984Z</time>
      </trkpt>
      <trkpt lat="53.255830" lon="6.503749">
        <ele>40.142167</ele>
        <time>2026-05-06T16:31:23.992Z</time>
      </trkpt>
      <trkpt lat="53.255938" lon="6.503616">
        <ele>40.226608</ele>
        <time>2026-05-06T16:31:26.983Z</time>
      </trkpt>
      <trkpt lat="53.256018" lon="6.503539">
        <ele>40.284719</ele>
        <time>2026-05-06T16:31:28.993Z</time>
      </trkpt>
      <trkpt lat="53.256107" lon="6.503470">
        <ele>40.346475</ele>
        <time>2026-05-06T16:31:30.991Z</time>
      </trkpt>
      <trkpt lat="53.256193" lon="6.503401">
        <ele>40.406524</ele>
        <time>2026-05-06T16:31:32.984Z</time>
      </trkpt>
      <trkpt lat="53.256279" lon="6.503345">
        <ele>40.464622</ele>
        <time>2026-05-06T16:31:34.981Z</time>
      </trkpt>
      <trkpt lat="53.256366" lon="6.503275">
        <ele>40.525401</ele>
        <time>2026-05-06T16:31:36.991Z</time>
      </trkpt>
      <trkpt lat="53.256451" lon="6.503219">
        <ele>40.582913</ele>
        <time>2026-05-06T16:31:38.980Z</time>
      </trkpt>
      <trkpt lat="53.256535" lon="6.503164">
        <ele>40.639701</ele>
        <time>2026-05-06T16:31:40.998Z</time>
      </trkpt>
      <trkpt lat="53.256620" lon="6.503109">
        <ele>40.697076</ele>
        <time>2026-05-06T16:31:42.981Z</time>
      </trkpt>
      <trkpt lat="53.256740" lon="6.503034">
        <ele>40.777722</ele>
        <time>2026-05-06T16:31:45.984Z</time>
      </trkpt>
      <trkpt lat="53.256859" lon="6.502949">
        <ele>40.859183</ele>
        <time>2026-05-06T16:31:48.984Z</time>
      </trkpt>
      <trkpt lat="53.256948" lon="6.502906">
        <ele>40.917500</ele>
        <time>2026-05-06T16:31:50.989Z</time>
      </trkpt>
      <trkpt lat="53.257038" lon="6.502851">
        <ele>40.977820</ele>
        <time>2026-05-06T16:31:52.983Z</time>
      </trkpt>
      <trkpt lat="53.257131" lon="6.502801">
        <ele>41.043203</ele>
        <time>2026-05-06T16:31:54.984Z</time>
      </trkpt>
      <trkpt lat="53.257217" lon="6.502749">
        <ele>41.132277</ele>
        <time>2026-05-06T16:31:56.982Z</time>
      </trkpt>
      <trkpt lat="53.257307" lon="6.502695">
        <ele>41.225412</ele>
        <time>2026-05-06T16:31:58.981Z</time>
      </trkpt>
      <trkpt lat="53.257395" lon="6.502654">
        <ele>41.314390</ele>
        <time>2026-05-06T16:32:00.986Z</time>
      </trkpt>
      <trkpt lat="53.257484" lon="6.502604">
        <ele>41.405839</ele>
        <time>2026-05-06T16:32:02.986Z</time>
      </trkpt>
      <trkpt lat="53.257612" lon="6.502535">
        <ele>41.536832</ele>
        <time>2026-05-06T16:32:05.984Z</time>
      </trkpt>
      <trkpt lat="53.257730" lon="6.502446">
        <ele>41.662920</ele>
        <time>2026-05-06T16:32:08.985Z</time>
      </trkpt>
      <trkpt lat="53.257838" lon="6.502321">
        <ele>41.790864</ele>
        <time>2026-05-06T16:32:11.981Z</time>
      </trkpt>
      <trkpt lat="53.257926" lon="6.502153">
        <ele>41.920972</ele>
        <time>2026-05-06T16:32:14.984Z</time>
      </trkpt>
      <trkpt lat="53.257997" lon="6.501968">
        <ele>42.049038</ele>
        <time>2026-05-06T16:32:17.986Z</time>
      </trkpt>
      <trkpt lat="53.258076" lon="6.501800">
        <ele>42.173546</ele>
        <time>2026-05-06T16:32:20.984Z</time>
      </trkpt>
      <trkpt lat="53.258178" lon="6.501714">
        <ele>42.284814</ele>
        <time>2026-05-06T16:32:23.983Z</time>
      </trkpt>
      <trkpt lat="53.258294" lon="6.501708">
        <ele>42.397851</ele>
        <time>2026-05-06T16:32:26.985Z</time>
      </trkpt>
      <trkpt lat="53.258363" lon="6.501610">
        <ele>42.486038</ele>
        <time>2026-05-06T16:32:29.993Z</time>
      </trkpt>
      <trkpt lat="53.258427" lon="6.501206">
        <ele>42.729541</ele>
        <time>2026-05-06T16:33:12.979Z</time>
      </trkpt>
      <trkpt lat="53.258500" lon="6.501031">
        <ele>42.721796</ele>
        <time>2026-05-06T16:33:15.983Z</time>
      </trkpt>
      <trkpt lat="53.258557" lon="6.500830">
        <ele>42.606117</ele>
        <time>2026-05-06T16:33:18.982Z</time>
      </trkpt>
      <trkpt lat="53.258582" lon="6.500667">
        <ele>42.518608</ele>
        <time>2026-05-06T16:33:20.984Z</time>
      </trkpt>
      <trkpt lat="53.258610" lon="6.500498">
        <ele>42.427412</ele>
        <time>2026-05-06T16:33:22.985Z</time>
      </trkpt>
      <trkpt lat="53.258635" lon="6.500318">
        <ele>42.331314</ele>
        <time>2026-05-06T16:33:24.983Z</time>
      </trkpt>
      <trkpt lat="53.258658" lon="6.500155">
        <ele>42.244221</ele>
        <time>2026-05-06T16:33:26.986Z</time>
      </trkpt>
      <trkpt lat="53.258682" lon="6.499991">
        <ele>42.156419</ele>
        <time>2026-05-06T16:33:28.989Z</time>
      </trkpt>
      <trkpt lat="53.258713" lon="6.499828">
        <ele>42.067471</ele>
        <time>2026-05-06T16:33:30.981Z</time>
      </trkpt>
      <trkpt lat="53.258735" lon="6.499663">
        <ele>41.979559</ele>
        <time>2026-05-06T16:33:32.980Z</time>
      </trkpt>
      <trkpt lat="53.258754" lon="6.499496">
        <ele>41.891155</ele>
        <time>2026-05-06T16:33:34.985Z</time>
      </trkpt>
      <trkpt lat="53.258775" lon="6.499341">
        <ele>41.808507</ele>
        <time>2026-05-06T16:33:36.983Z</time>
      </trkpt>
      <trkpt lat="53.258791" lon="6.499177">
        <ele>41.722093</ele>
        <time>2026-05-06T16:33:38.989Z</time>
      </trkpt>
      <trkpt lat="53.258812" lon="6.499005">
        <ele>41.630802</ele>
        <time>2026-05-06T16:33:40.987Z</time>
      </trkpt>
      <trkpt lat="53.258825" lon="6.498841">
        <ele>41.544770</ele>
        <time>2026-05-06T16:33:42.991Z</time>
      </trkpt>
      <trkpt lat="53.258843" lon="6.498687">
        <ele>41.463169</ele>
        <time>2026-05-06T16:33:44.992Z</time>
      </trkpt>
      <trkpt lat="53.258855" lon="6.498513">
        <ele>41.372083</ele>
        <time>2026-05-06T16:33:46.978Z</time>
      </trkpt>
      <trkpt lat="53.258870" lon="6.498338">
        <ele>41.280146</ele>
        <time>2026-05-06T16:33:48.988Z</time>
      </trkpt>
      <trkpt lat="53.258879" lon="6.498167">
        <ele>41.230579</ele>
        <time>2026-05-06T16:33:50.981Z</time>
      </trkpt>
      <trkpt lat="53.258889" lon="6.498011">
        <ele>41.258565</ele>
        <time>2026-05-06T16:33:52.995Z</time>
      </trkpt>
      <trkpt lat="53.258906" lon="6.497850">
        <ele>41.287727</ele>
        <time>2026-05-06T16:33:54.995Z</time>
      </trkpt>
      <trkpt lat="53.258909" lon="6.497688">
        <ele>41.316638</ele>
        <time>2026-05-06T16:33:56.988Z</time>
      </trkpt>
      <trkpt lat="53.258925" lon="6.497511">
        <ele>41.348568</ele>
        <time>2026-05-06T16:33:58.986Z</time>
      </trkpt>
      <trkpt lat="53.258936" lon="6.497337">
        <ele>41.379779</ele>
        <time>2026-05-06T16:34:00.993Z</time>
      </trkpt>
      <trkpt lat="53.258948" lon="6.497159">
        <ele>41.411730</ele>
        <time>2026-05-06T16:34:02.985Z</time>
      </trkpt>
      <trkpt lat="53.258946" lon="6.496997">
        <ele>41.440633</ele>
        <time>2026-05-06T16:34:04.981Z</time>
      </trkpt>
      <trkpt lat="53.258961" lon="6.496822">
        <ele>41.472168</ele>
        <time>2026-05-06T16:34:06.986Z</time>
      </trkpt>
      <trkpt lat="53.258971" lon="6.496651">
        <ele>41.502815</ele>
        <time>2026-05-06T16:34:08.984Z</time>
      </trkpt>
      <trkpt lat="53.258980" lon="6.496482">
        <ele>41.533080</ele>
        <time>2026-05-06T16:34:10.981Z</time>
      </trkpt>
      <trkpt lat="53.258982" lon="6.496320">
        <ele>41.561983</ele>
        <time>2026-05-06T16:34:12.993Z</time>
      </trkpt>
      <trkpt lat="53.258994" lon="6.496146">
        <ele>41.593225</ele>
        <time>2026-05-06T16:34:14.984Z</time>
      </trkpt>
      <trkpt lat="53.259002" lon="6.495963">
        <ele>41.625955</ele>
        <time>2026-05-06T16:34:16.984Z</time>
      </trkpt>
      <trkpt lat="53.259017" lon="6.495786">
        <ele>41.657842</ele>
        <time>2026-05-06T16:34:18.983Z</time>
      </trkpt>
      <trkpt lat="53.259022" lon="6.495620">
        <ele>41.687490</ele>
        <time>2026-05-06T16:34:20.984Z</time>
      </trkpt>
      <trkpt lat="53.259032" lon="6.495448">
        <ele>41.718315</ele>
        <time>2026-05-06T16:34:22.985Z</time>
      </trkpt>
      <trkpt lat="53.259045" lon="6.495280">
        <ele>41.748532</ele>
        <time>2026-05-06T16:34:24.994Z</time>
      </trkpt>
      <trkpt lat="53.259049" lon="6.495102">
        <ele>41.770352</ele>
        <time>2026-05-06T16:34:26.990Z</time>
      </trkpt>
      <trkpt lat="53.259060" lon="6.494923">
        <ele>41.788875</ele>
        <time>2026-05-06T16:34:28.985Z</time>
      </trkpt>
      <trkpt lat="53.259064" lon="6.494741">
        <ele>41.807623</ele>
        <time>2026-05-06T16:34:30.984Z</time>
      </trkpt>
      <trkpt lat="53.259074" lon="6.494548">
        <ele>41.827564</ele>
        <time>2026-05-06T16:34:32.988Z</time>
      </trkpt>
      <trkpt lat="53.259089" lon="6.494376">
        <ele>41.845457</ele>
        <time>2026-05-06T16:34:34.990Z</time>
      </trkpt>
      <trkpt lat="53.259099" lon="6.494202">
        <ele>41.863451</ele>
        <time>2026-05-06T16:34:36.989Z</time>
      </trkpt>
      <trkpt lat="53.259107" lon="6.494027">
        <ele>41.881518</ele>
        <time>2026-05-06T16:34:38.988Z</time>
      </trkpt>
      <trkpt lat="53.259117" lon="6.493840">
        <ele>41.900845</ele>
        <time>2026-05-06T16:34:40.985Z</time>
      </trkpt>
      <trkpt lat="53.259125" lon="6.493665">
        <ele>41.918912</ele>
        <time>2026-05-06T16:34:42.988Z</time>
      </trkpt>
      <trkpt lat="53.259130" lon="6.493494">
        <ele>41.936535</ele>
        <time>2026-05-06T16:34:44.987Z</time>
      </trkpt>
      <trkpt lat="53.259140" lon="6.493317">
        <ele>41.954837</ele>
        <time>2026-05-06T16:34:46.988Z</time>
      </trkpt>
      <trkpt lat="53.259153" lon="6.493135">
        <ele>41.973705</ele>
        <time>2026-05-06T16:34:48.983Z</time>
      </trkpt>
      <trkpt lat="53.259154" lon="6.492955">
        <ele>41.992235</ele>
        <time>2026-05-06T16:34:50.988Z</time>
      </trkpt>
      <trkpt lat="53.259171" lon="6.492785">
        <ele>42.009977</ele>
        <time>2026-05-06T16:34:52.986Z</time>
      </trkpt>
      <trkpt lat="53.259180" lon="6.492613">
        <ele>42.027751</ele>
        <time>2026-05-06T16:34:54.986Z</time>
      </trkpt>
      <trkpt lat="53.259182" lon="6.492446">
        <ele>42.044945</ele>
        <time>2026-05-06T16:34:56.987Z</time>
      </trkpt>
      <trkpt lat="53.259188" lon="6.492277">
        <ele>42.062372</ele>
        <time>2026-05-06T16:34:58.981Z</time>
      </trkpt>
      <trkpt lat="53.259193" lon="6.492107">
        <ele>42.018111</ele>
        <time>2026-05-06T16:35:00.985Z</time>
      </trkpt>
      <trkpt lat="53.259195" lon="6.491951">
        <ele>41.961245</ele>
        <time>2026-05-06T16:35:02.988Z</time>
      </trkpt>
      <trkpt lat="53.259208" lon="6.491735">
        <ele>41.882128</ele>
        <time>2026-05-06T16:35:05.984Z</time>
      </trkpt>
      <trkpt lat="53.259219" lon="6.491583">
        <ele>41.826329</ele>
        <time>2026-05-06T16:35:07.986Z</time>
      </trkpt>
      <trkpt lat="53.259224" lon="6.491373">
        <ele>41.749736</ele>
        <time>2026-05-06T16:35:10.983Z</time>
      </trkpt>
      <trkpt lat="53.259238" lon="6.491174">
        <ele>41.676712</ele>
        <time>2026-05-06T16:35:13.988Z</time>
      </trkpt>
      <trkpt lat="53.259248" lon="6.490989">
        <ele>41.609015</ele>
        <time>2026-05-06T16:35:16.989Z</time>
      </trkpt>
      <trkpt lat="53.259259" lon="6.490805">
        <ele>41.541624</ele>
        <time>2026-05-06T16:35:19.983Z</time>
      </trkpt>
      <trkpt lat="53.259271" lon="6.490598">
        <ele>41.465831</ele>
        <time>2026-05-06T16:35:22.982Z</time>
      </trkpt>
      <trkpt lat="53.259279" lon="6.490372">
        <ele>41.383323</ele>
        <time>2026-05-06T16:35:25.985Z</time>
      </trkpt>
      <trkpt lat="53.259289" lon="6.490219">
        <ele>41.327232</ele>
        <time>2026-05-06T16:35:27.993Z</time>
      </trkpt>
      <trkpt lat="53.259288" lon="6.490055">
        <ele>41.267460</ele>
        <time>2026-05-06T16:35:29.983Z</time>
      </trkpt>
      <trkpt lat="53.259293" lon="6.489891">
        <ele>41.207614</ele>
        <time>2026-05-06T16:35:31.988Z</time>
      </trkpt>
      <trkpt lat="53.259303" lon="6.489721">
        <ele>41.145360</ele>
        <time>2026-05-06T16:35:33.989Z</time>
      </trkpt>
      <trkpt lat="53.259316" lon="6.489559">
        <ele>41.085792</ele>
        <time>2026-05-06T16:35:35.979Z</time>
      </trkpt>
      <trkpt lat="53.259323" lon="6.489395">
        <ele>41.025871</ele>
        <time>2026-05-06T16:35:37.987Z</time>
      </trkpt>
      <trkpt lat="53.259329" lon="6.489177">
        <ele>40.945924</ele>
        <time>2026-05-06T16:35:40.982Z</time>
      </trkpt>
      <trkpt lat="53.259342" lon="6.488986">
        <ele>40.874662</ele>
        <time>2026-05-06T16:35:43.983Z</time>
      </trkpt>
      <trkpt lat="53.259344" lon="6.488793">
        <ele>40.803104</ele>
        <time>2026-05-06T16:35:46.987Z</time>
      </trkpt>
      <trkpt lat="53.259357" lon="6.488593">
        <ele>40.728526</ele>
        <time>2026-05-06T16:35:49.987Z</time>
      </trkpt>
      <trkpt lat="53.259367" lon="6.488442">
        <ele>40.672207</ele>
        <time>2026-05-06T16:35:51.982Z</time>
      </trkpt>
      <trkpt lat="53.259374" lon="6.488291">
        <ele>40.616062</ele>
        <time>2026-05-06T16:35:53.987Z</time>
      </trkpt>
      <trkpt lat="53.259346" lon="6.488146">
        <ele>40.559578</ele>
        <time>2026-05-06T16:35:55.987Z</time>
      </trkpt>
      <trkpt lat="53.259269" lon="6.488060">
        <ele>40.502190</ele>
        <time>2026-05-06T16:35:57.986Z</time>
      </trkpt>
      <trkpt lat="53.259177" lon="6.488042">
        <ele>40.444787</ele>
        <time>2026-05-06T16:35:59.985Z</time>
      </trkpt>
      <trkpt lat="53.259075" lon="6.488024">
        <ele>40.381225</ele>
        <time>2026-05-06T16:36:01.994Z</time>
      </trkpt>
      <trkpt lat="53.258985" lon="6.488000">
        <ele>40.324746</ele>
        <time>2026-05-06T16:36:03.985Z</time>
      </trkpt>
      <trkpt lat="53.258856" lon="6.487968">
        <ele>40.243928</ele>
        <time>2026-05-06T16:36:06.979Z</time>
      </trkpt>
      <trkpt lat="53.258764" lon="6.487959">
        <ele>40.186817</ele>
        <time>2026-05-06T16:36:08.996Z</time>
      </trkpt>
      <trkpt lat="53.258629" lon="6.487946">
        <ele>40.103017</ele>
        <time>2026-05-06T16:36:11.983Z</time>
      </trkpt>
      <trkpt lat="53.258532" lon="6.487941">
        <ele>40.042876</ele>
        <time>2026-05-06T16:36:13.999Z</time>
      </trkpt>
      <trkpt lat="53.258438" lon="6.487924">
        <ele>39.984283</ele>
        <time>2026-05-06T16:36:15.985Z</time>
      </trkpt>
      <trkpt lat="53.258341" lon="6.487896">
        <ele>39.923281</ele>
        <time>2026-05-06T16:36:17.984Z</time>
      </trkpt>
      <trkpt lat="53.258242" lon="6.487834">
        <ele>39.857766</ele>
        <time>2026-05-06T16:36:19.983Z</time>
      </trkpt>
      <trkpt lat="53.258152" lon="6.487733">
        <ele>39.914864</ele>
        <time>2026-05-06T16:36:21.983Z</time>
      </trkpt>
      <trkpt lat="53.258084" lon="6.487607">
        <ele>39.971760</ele>
        <time>2026-05-06T16:36:23.982Z</time>
      </trkpt>
      <trkpt lat="53.258018" lon="6.487478">
        <ele>40.028673</ele>
        <time>2026-05-06T16:36:25.989Z</time>
      </trkpt>
      <trkpt lat="53.257953" lon="6.487356">
        <ele>40.083448</ele>
        <time>2026-05-06T16:36:27.979Z</time>
      </trkpt>
      <trkpt lat="53.257888" lon="6.487238">
        <ele>40.137230</ele>
        <time>2026-05-06T16:36:29.989Z</time>
      </trkpt>
      <trkpt lat="53.257813" lon="6.487118">
        <ele>40.195417</ele>
        <time>2026-05-06T16:36:31.986Z</time>
      </trkpt>
      <trkpt lat="53.257731" lon="6.487006">
        <ele>40.254767</ele>
        <time>2026-05-06T16:36:33.984Z</time>
      </trkpt>
      <trkpt lat="53.257645" lon="6.486904">
        <ele>40.313868</ele>
        <time>2026-05-06T16:36:35.987Z</time>
      </trkpt>
      <trkpt lat="53.257561" lon="6.486794">
        <ele>40.373674</ele>
        <time>2026-05-06T16:36:37.994Z</time>
      </trkpt>
      <trkpt lat="53.257478" lon="6.486706">
        <ele>40.428761</ele>
        <time>2026-05-06T16:36:39.986Z</time>
      </trkpt>
      <trkpt lat="53.257393" lon="6.486639">
        <ele>40.481432</ele>
        <time>2026-05-06T16:36:41.987Z</time>
      </trkpt>
      <trkpt lat="53.257309" lon="6.486572">
        <ele>40.533596</ele>
        <time>2026-05-06T16:36:43.990Z</time>
      </trkpt>
      <trkpt lat="53.257216" lon="6.486517">
        <ele>40.588887</ele>
        <time>2026-05-06T16:36:45.988Z</time>
      </trkpt>
      <trkpt lat="53.257116" lon="6.486483">
        <ele>40.646081</ele>
        <time>2026-05-06T16:36:47.985Z</time>
      </trkpt>
      <trkpt lat="53.257016" lon="6.486471">
        <ele>40.702273</ele>
        <time>2026-05-06T16:36:49.986Z</time>
      </trkpt>
      <trkpt lat="53.256913" lon="6.486455">
        <ele>40.760251</ele>
        <time>2026-05-06T16:36:51.984Z</time>
      </trkpt>
      <trkpt lat="53.256813" lon="6.486449">
        <ele>40.816334</ele>
        <time>2026-05-06T16:36:53.985Z</time>
      </trkpt>
      <trkpt lat="53.256720" lon="6.486441">
        <ele>40.859335</ele>
        <time>2026-05-06T16:36:55.992Z</time>
      </trkpt>
      <trkpt lat="53.256627" lon="6.486432">
        <ele>40.806965</ele>
        <time>2026-05-06T16:36:57.984Z</time>
      </trkpt>
      <trkpt lat="53.256527" lon="6.486445">
        <ele>40.750579</ele>
        <time>2026-05-06T16:36:59.985Z</time>
      </trkpt>
      <trkpt lat="53.256428" lon="6.486482">
        <ele>40.693550</ele>
        <time>2026-05-06T16:37:01.985Z</time>
      </trkpt>
      <trkpt lat="53.256340" lon="6.486517">
        <ele>40.642699</ele>
        <time>2026-05-06T16:37:03.992Z</time>
      </trkpt>
      <trkpt lat="53.256247" lon="6.486566">
        <ele>40.587881</ele>
        <time>2026-05-06T16:37:05.986Z</time>
      </trkpt>
      <trkpt lat="53.256154" lon="6.486621">
        <ele>40.532424</ele>
        <time>2026-05-06T16:37:07.981Z</time>
      </trkpt>
      <trkpt lat="53.256059" lon="6.486676">
        <ele>40.475906</ele>
        <time>2026-05-06T16:37:09.984Z</time>
      </trkpt>
      <trkpt lat="53.255965" lon="6.486735">
        <ele>40.419459</ele>
        <time>2026-05-06T16:37:11.998Z</time>
      </trkpt>
      <trkpt lat="53.255869" lon="6.486770">
        <ele>40.364223</ele>
        <time>2026-05-06T16:37:13.990Z</time>
      </trkpt>
      <trkpt lat="53.255775" lon="6.486800">
        <ele>40.310424</ele>
        <time>2026-05-06T16:37:15.984Z</time>
      </trkpt>
      <trkpt lat="53.255681" lon="6.486823">
        <ele>40.257017</ele>
        <time>2026-05-06T16:37:17.989Z</time>
      </trkpt>
      <trkpt lat="53.255581" lon="6.486843">
        <ele>40.200400</ele>
        <time>2026-05-06T16:37:19.990Z</time>
      </trkpt>
      <trkpt lat="53.255473" lon="6.486868">
        <ele>40.139106</ele>
        <time>2026-05-06T16:37:21.984Z</time>
      </trkpt>
      <trkpt lat="53.255366" lon="6.486891">
        <ele>40.078459</ele>
        <time>2026-05-06T16:37:23.981Z</time>
      </trkpt>
      <trkpt lat="53.255262" lon="6.486898">
        <ele>40.019946</ele>
        <time>2026-05-06T16:37:25.984Z</time>
      </trkpt>
      <trkpt lat="53.255164" lon="6.486894">
        <ele>39.964837</ele>
        <time>2026-05-06T16:37:27.987Z</time>
      </trkpt>
      <trkpt lat="53.255069" lon="6.486884">
        <ele>39.911326</ele>
        <time>2026-05-06T16:37:29.987Z</time>
      </trkpt>
      <trkpt lat="53.254977" lon="6.486876">
        <ele>39.859536</ele>
        <time>2026-05-06T16:37:31.989Z</time>
      </trkpt>
      <trkpt lat="53.254880" lon="6.486874">
        <ele>39.825345</ele>
        <time>2026-05-06T16:37:33.994Z</time>
      </trkpt>
      <trkpt lat="53.254771" lon="6.486881">
        <ele>39.790123</ele>
        <time>2026-05-06T16:37:35.987Z</time>
      </trkpt>
      <trkpt lat="53.254676" lon="6.486921">
        <ele>39.758490</ele>
        <time>2026-05-06T16:37:37.982Z</time>
      </trkpt>
      <trkpt lat="53.254583" lon="6.486973">
        <ele>39.726825</ele>
        <time>2026-05-06T16:37:39.987Z</time>
      </trkpt>
      <trkpt lat="53.254491" lon="6.487029">
        <ele>39.695210</ele>
        <time>2026-05-06T16:37:41.983Z</time>
      </trkpt>
      <trkpt lat="53.254365" lon="6.487118">
        <ele>39.651041</ele>
        <time>2026-05-06T16:37:44.987Z</time>
      </trkpt>
      <trkpt lat="53.254252" lon="6.487215">
        <ele>39.610024</ele>
        <time>2026-05-06T16:37:47.984Z</time>
      </trkpt>
      <trkpt lat="53.254151" lon="6.487319">
        <ele>39.571719</ele>
        <time>2026-05-06T16:37:50.985Z</time>
      </trkpt>
      <trkpt lat="53.253945" lon="6.487422">
        <ele>39.502290</ele>
        <time>2026-05-06T16:38:48.978Z</time>
      </trkpt>
      <trkpt lat="53.253851" lon="6.487479">
        <ele>39.470002</ele>
        <time>2026-05-06T16:38:51.979Z</time>
      </trkpt>
      <trkpt lat="53.253760" lon="6.487524">
        <ele>39.439359</ele>
        <time>2026-05-06T16:38:54.982Z</time>
      </trkpt>
      <trkpt lat="53.253677" lon="6.487583">
        <ele>39.410236</ele>
        <time>2026-05-06T16:38:57.983Z</time>
      </trkpt>
      <trkpt lat="53.253577" lon="6.487651">
        <ele>39.375376</ele>
        <time>2026-05-06T16:39:01.982Z</time>
      </trkpt>
      <trkpt lat="53.253357" lon="6.487766">
        <ele>39.300946</ele>
        <time>2026-05-06T16:39:45.981Z</time>
      </trkpt>
      <trkpt lat="53.253247" lon="6.487826">
        <ele>39.270815</ele>
        <time>2026-05-06T16:39:48.982Z</time>
      </trkpt>
      <trkpt lat="53.253123" lon="6.487893">
        <ele>39.264797</ele>
        <time>2026-05-06T16:39:51.981Z</time>
      </trkpt>
      <trkpt lat="53.253032" lon="6.487926">
        <ele>39.260497</ele>
        <time>2026-05-06T16:39:53.983Z</time>
      </trkpt>
      <trkpt lat="53.252943" lon="6.487966">
        <ele>39.256241</ele>
        <time>2026-05-06T16:39:55.988Z</time>
      </trkpt>
      <trkpt lat="53.252818" lon="6.488016">
        <ele>39.250306</ele>
        <time>2026-05-06T16:39:58.986Z</time>
      </trkpt>
      <trkpt lat="53.252728" lon="6.488047">
        <ele>39.246063</ele>
        <time>2026-05-06T16:40:00.984Z</time>
      </trkpt>
      <trkpt lat="53.252600" lon="6.488077">
        <ele>39.240094</ele>
        <time>2026-05-06T16:40:03.986Z</time>
      </trkpt>
      <trkpt lat="53.252481" lon="6.488114">
        <ele>39.234505</ele>
        <time>2026-05-06T16:40:06.981Z</time>
      </trkpt>
      <trkpt lat="53.252354" lon="6.488151">
        <ele>39.228552</ele>
        <time>2026-05-06T16:40:09.995Z</time>
      </trkpt>
      <trkpt lat="53.252237" lon="6.488185">
        <ele>39.223068</ele>
        <time>2026-05-06T16:40:12.986Z</time>
      </trkpt>
      <trkpt lat="53.252107" lon="6.488208">
        <ele>39.217032</ele>
        <time>2026-05-06T16:40:15.986Z</time>
      </trkpt>
      <trkpt lat="53.252015" lon="6.488243">
        <ele>39.212675</ele>
        <time>2026-05-06T16:40:18.003Z</time>
      </trkpt>
      <trkpt lat="53.251916" lon="6.488280">
        <ele>39.207990</ele>
        <time>2026-05-06T16:40:19.986Z</time>
      </trkpt>
      <trkpt lat="53.251823" lon="6.488311">
        <ele>39.203611</ele>
        <time>2026-05-06T16:40:21.977Z</time>
      </trkpt>
      <trkpt lat="53.251722" lon="6.488341">
        <ele>39.198874</ele>
        <time>2026-05-06T16:40:23.984Z</time>
      </trkpt>
      <trkpt lat="53.251617" lon="6.488371">
        <ele>39.193955</ele>
        <time>2026-05-06T16:40:25.983Z</time>
      </trkpt>
      <trkpt lat="53.251507" lon="6.488418">
        <ele>39.189571</ele>
        <time>2026-05-06T16:40:27.979Z</time>
      </trkpt>
      <trkpt lat="53.251404" lon="6.488455">
        <ele>39.201261</ele>
        <time>2026-05-06T16:40:29.980Z</time>
      </trkpt>
      <trkpt lat="53.251298" lon="6.488483">
        <ele>39.213169</ele>
        <time>2026-05-06T16:40:31.991Z</time>
      </trkpt>
      <trkpt lat="53.251196" lon="6.488522">
        <ele>39.224779</ele>
        <time>2026-05-06T16:40:33.984Z</time>
      </trkpt>
      <trkpt lat="53.251098" lon="6.488548">
        <ele>39.235789</ele>
        <time>2026-05-06T16:40:35.990Z</time>
      </trkpt>
      <trkpt lat="53.250995" lon="6.488570">
        <ele>39.247311</ele>
        <time>2026-05-06T16:40:37.985Z</time>
      </trkpt>
      <trkpt lat="53.250893" lon="6.488593">
        <ele>39.258731</ele>
        <time>2026-05-06T16:40:39.979Z</time>
      </trkpt>
      <trkpt lat="53.250793" lon="6.488607">
        <ele>39.269866</ele>
        <time>2026-05-06T16:40:41.982Z</time>
      </trkpt>
      <trkpt lat="53.250693" lon="6.488612">
        <ele>39.280967</ele>
        <time>2026-05-06T16:40:43.984Z</time>
      </trkpt>
      <trkpt lat="53.250587" lon="6.488615">
        <ele>39.292730</ele>
        <time>2026-05-06T16:40:45.989Z</time>
      </trkpt>
      <trkpt lat="53.250487" lon="6.488620">
        <ele>39.303831</ele>
        <time>2026-05-06T16:40:47.990Z</time>
      </trkpt>
      <trkpt lat="53.250391" lon="6.488627">
        <ele>39.314493</ele>
        <time>2026-05-06T16:40:49.982Z</time>
      </trkpt>
      <trkpt lat="53.250294" lon="6.488637">
        <ele>39.325277</ele>
        <time>2026-05-06T16:40:51.984Z</time>
      </trkpt>
      <trkpt lat="53.250196" lon="6.488630">
        <ele>39.336160</ele>
        <time>2026-05-06T16:40:53.989Z</time>
      </trkpt>
      <trkpt lat="53.250096" lon="6.488636">
        <ele>39.347263</ele>
        <time>2026-05-06T16:40:55.988Z</time>
      </trkpt>
      <trkpt lat="53.250002" lon="6.488645">
        <ele>39.357711</ele>
        <time>2026-05-06T16:40:57.982Z</time>
      </trkpt>
      <trkpt lat="53.249909" lon="6.488663">
        <ele>39.368099</ele>
        <time>2026-05-06T16:40:59.987Z</time>
      </trkpt>
      <trkpt lat="53.249812" lon="6.488696">
        <ele>39.379083</ele>
        <time>2026-05-06T16:41:01.986Z</time>
      </trkpt>
      <trkpt lat="53.249712" lon="6.488728">
        <ele>39.390105</ele>
        <time>2026-05-06T16:41:03.980Z</time>
      </trkpt>
      <trkpt lat="53.249614" lon="6.488763">
        <ele>39.399561</ele>
        <time>2026-05-06T16:41:05.985Z</time>
      </trkpt>
      <trkpt lat="53.249520" lon="6.488791">
        <ele>39.408571</ele>
        <time>2026-05-06T16:41:07.986Z</time>
      </trkpt>
      <trkpt lat="53.249422" lon="6.488823">
        <ele>39.417993</ele>
        <time>2026-05-06T16:41:09.986Z</time>
      </trkpt>
      <trkpt lat="53.249324" lon="6.488850">
        <ele>39.427366</ele>
        <time>2026-05-06T16:41:11.985Z</time>
      </trkpt>
      <trkpt lat="53.249221" lon="6.488846">
        <ele>39.437088</ele>
        <time>2026-05-06T16:41:13.981Z</time>
      </trkpt>
      <trkpt lat="53.249119" lon="6.488799">
        <ele>39.447072</ele>
        <time>2026-05-06T16:41:15.984Z</time>
      </trkpt>
      <trkpt lat="53.249024" lon="6.488709">
        <ele>39.457376</ele>
        <time>2026-05-06T16:41:17.985Z</time>
      </trkpt>
      <trkpt lat="53.248937" lon="6.488610">
        <ele>39.467308</ele>
        <time>2026-05-06T16:41:19.987Z</time>
      </trkpt>
      <trkpt lat="53.248842" lon="6.488518">
        <ele>39.477669</ele>
        <time>2026-05-06T16:41:21.984Z</time>
      </trkpt>
      <trkpt lat="53.248744" lon="6.488419">
        <ele>39.488474</ele>
        <time>2026-05-06T16:41:23.984Z</time>
      </trkpt>
      <trkpt lat="53.248641" lon="6.488359">
        <ele>39.498767</ele>
        <time>2026-05-06T16:41:25.985Z</time>
      </trkpt>
      <trkpt lat="53.248535" lon="6.488332">
        <ele>39.508885</ele>
        <time>2026-05-06T16:41:27.983Z</time>
      </trkpt>
      <trkpt lat="53.248427" lon="6.488347">
        <ele>39.519111</ele>
        <time>2026-05-06T16:41:29.986Z</time>
      </trkpt>
      <trkpt lat="53.248316" lon="6.488378">
        <ele>39.529731</ele>
        <time>2026-05-06T16:41:31.985Z</time>
      </trkpt>
      <trkpt lat="53.248198" lon="6.488407">
        <ele>39.540985</ele>
        <time>2026-05-06T16:41:33.984Z</time>
      </trkpt>
      <trkpt lat="53.248080" lon="6.488444">
        <ele>39.552314</ele>
        <time>2026-05-06T16:41:35.982Z</time>
      </trkpt>
      <trkpt lat="53.247971" lon="6.488481">
        <ele>39.536277</ele>
        <time>2026-05-06T16:41:37.982Z</time>
      </trkpt>
      <trkpt lat="53.247859" lon="6.488525">
        <ele>39.483757</ele>
        <time>2026-05-06T16:41:39.986Z</time>
      </trkpt>
      <trkpt lat="53.247746" lon="6.488573">
        <ele>39.430534</ele>
        <time>2026-05-06T16:41:41.988Z</time>
      </trkpt>
      <trkpt lat="53.247635" lon="6.488619">
        <ele>39.378329</ele>
        <time>2026-05-06T16:41:43.989Z</time>
      </trkpt>
      <trkpt lat="53.247527" lon="6.488670">
        <ele>39.327098</ele>
        <time>2026-05-06T16:41:45.982Z</time>
      </trkpt>
      <trkpt lat="53.247410" lon="6.488724">
        <ele>39.271690</ele>
        <time>2026-05-06T16:41:47.979Z</time>
      </trkpt>
      <trkpt lat="53.247297" lon="6.488782">
        <ele>39.217729</ele>
        <time>2026-05-06T16:41:49.983Z</time>
      </trkpt>
      <trkpt lat="53.247184" lon="6.488844">
        <ele>39.163437</ele>
        <time>2026-05-06T16:41:51.981Z</time>
      </trkpt>
      <trkpt lat="53.247074" lon="6.488899">
        <ele>39.111024</ele>
        <time>2026-05-06T16:41:53.978Z</time>
      </trkpt>
      <trkpt lat="53.246962" lon="6.488953">
        <ele>39.057812</ele>
        <time>2026-05-06T16:41:55.979Z</time>
      </trkpt>
      <trkpt lat="53.246846" lon="6.489016">
        <ele>39.002134</ele>
        <time>2026-05-06T16:41:57.981Z</time>
      </trkpt>
      <trkpt lat="53.246737" lon="6.489080">
        <ele>38.949395</ele>
        <time>2026-05-06T16:41:59.982Z</time>
      </trkpt>
      <trkpt lat="53.246636" lon="6.489151">
        <ele>38.899377</ele>
        <time>2026-05-06T16:42:01.990Z</time>
      </trkpt>
      <trkpt lat="53.246531" lon="6.489216">
        <ele>38.848263</ele>
        <time>2026-05-06T16:42:03.981Z</time>
      </trkpt>
      <trkpt lat="53.246421" lon="6.489267">
        <ele>38.796153</ele>
        <time>2026-05-06T16:42:05.979Z</time>
      </trkpt>
      <trkpt lat="53.246313" lon="6.489310">
        <ele>38.745472</ele>
        <time>2026-05-06T16:42:07.980Z</time>
      </trkpt>
      <trkpt lat="53.246197" lon="6.489345">
        <ele>38.814500</ele>
        <time>2026-05-06T16:42:09.985Z</time>
      </trkpt>
      <trkpt lat="53.246085" lon="6.489357">
        <ele>38.901449</ele>
        <time>2026-05-06T16:42:11.981Z</time>
      </trkpt>
      <trkpt lat="53.245969" lon="6.489364">
        <ele>38.991378</ele>
        <time>2026-05-06T16:42:13.980Z</time>
      </trkpt>
      <trkpt lat="53.245852" lon="6.489382">
        <ele>39.082405</ele>
        <time>2026-05-06T16:42:15.993Z</time>
      </trkpt>
      <trkpt lat="53.245738" lon="6.489397">
        <ele>39.170999</ele>
        <time>2026-05-06T16:42:17.985Z</time>
      </trkpt>
      <trkpt lat="53.245625" lon="6.489416">
        <ele>39.258987</ele>
        <time>2026-05-06T16:42:19.989Z</time>
      </trkpt>
      <trkpt lat="53.245509" lon="6.489426">
        <ele>39.348976</ele>
        <time>2026-05-06T16:42:21.984Z</time>
      </trkpt>
      <trkpt lat="53.245390" lon="6.489431">
        <ele>39.441199</ele>
        <time>2026-05-06T16:42:23.984Z</time>
      </trkpt>
      <trkpt lat="53.245279" lon="6.489433">
        <ele>39.527201</ele>
        <time>2026-05-06T16:42:25.986Z</time>
      </trkpt>
      <trkpt lat="53.245169" lon="6.489410">
        <ele>39.613087</ele>
        <time>2026-05-06T16:42:27.985Z</time>
      </trkpt>
      <trkpt lat="53.245062" lon="6.489367">
        <ele>39.698347</ele>
        <time>2026-05-06T16:42:29.982Z</time>
      </trkpt>
      <trkpt lat="53.244951" lon="6.489307">
        <ele>39.788730</ele>
        <time>2026-05-06T16:42:31.982Z</time>
      </trkpt>
      <trkpt lat="53.244845" lon="6.489231">
        <ele>39.878092</ele>
        <time>2026-05-06T16:42:33.984Z</time>
      </trkpt>
      <trkpt lat="53.244739" lon="6.489155">
        <ele>39.967453</ele>
        <time>2026-05-06T16:42:35.983Z</time>
      </trkpt>
      <trkpt lat="53.244637" lon="6.489077">
        <ele>40.054358</ele>
        <time>2026-05-06T16:42:37.985Z</time>
      </trkpt>
      <trkpt lat="53.244540" lon="6.488984">
        <ele>40.139554</ele>
        <time>2026-05-06T16:42:39.983Z</time>
      </trkpt>
      <trkpt lat="53.244441" lon="6.488905">
        <ele>40.212650</ele>
        <time>2026-05-06T16:42:41.986Z</time>
      </trkpt>
      <trkpt lat="53.244346" lon="6.488819">
        <ele>40.284638</ele>
        <time>2026-05-06T16:42:43.989Z</time>
      </trkpt>
      <trkpt lat="53.244260" lon="6.488722">
        <ele>40.353768</ele>
        <time>2026-05-06T16:42:45.992Z</time>
      </trkpt>
      <trkpt lat="53.244244" lon="6.488516">
        <ele>40.436591</ele>
        <time>2026-05-06T16:42:48.989Z</time>
      </trkpt>
      <trkpt lat="53.244286" lon="6.488368">
        <ele>40.501899</ele>
        <time>2026-05-06T16:42:50.995Z</time>
      </trkpt>
      <trkpt lat="53.244331" lon="6.488211">
        <ele>40.571306</ele>
        <time>2026-05-06T16:42:52.989Z</time>
      </trkpt>
      <trkpt lat="53.244366" lon="6.488059">
        <ele>40.636241</ele>
        <time>2026-05-06T16:42:54.977Z</time>
      </trkpt>
      <trkpt lat="53.244405" lon="6.487918">
        <ele>40.698173</ele>
        <time>2026-05-06T16:42:56.982Z</time>
      </trkpt>
      <trkpt lat="53.244438" lon="6.487770">
        <ele>40.761145</ele>
        <time>2026-05-06T16:42:58.991Z</time>
      </trkpt>
      <trkpt lat="53.244472" lon="6.487605">
        <ele>40.830722</ele>
        <time>2026-05-06T16:43:00.988Z</time>
      </trkpt>
      <trkpt lat="53.244506" lon="6.487444">
        <ele>40.898793</ele>
        <time>2026-05-06T16:43:02.986Z</time>
      </trkpt>
      <trkpt lat="53.244543" lon="6.487288">
        <ele>40.965699</ele>
        <time>2026-05-06T16:43:04.984Z</time>
      </trkpt>
      <trkpt lat="53.244569" lon="6.487129">
        <ele>41.031417</ele>
        <time>2026-05-06T16:43:06.983Z</time>
      </trkpt>
      <trkpt lat="53.244600" lon="6.486967">
        <ele>41.099229</ele>
        <time>2026-05-06T16:43:08.986Z</time>
      </trkpt>
      <trkpt lat="53.244630" lon="6.486812">
        <ele>41.164180</ele>
        <time>2026-05-06T16:43:10.985Z</time>
      </trkpt>
      <trkpt lat="53.244656" lon="6.486668">
        <ele>41.224150</ele>
        <time>2026-05-06T16:43:12.984Z</time>
      </trkpt>
      <trkpt lat="53.244693" lon="6.486458">
        <ele>41.311431</ele>
        <time>2026-05-06T16:43:15.985Z</time>
      </trkpt>
      <trkpt lat="53.244713" lon="6.486305">
        <ele>41.489947</ele>
        <time>2026-05-06T16:43:17.988Z</time>
      </trkpt>
      <trkpt lat="53.244736" lon="6.486148">
        <ele>41.721442</ele>
        <time>2026-05-06T16:43:19.986Z</time>
      </trkpt>
      <trkpt lat="53.244758" lon="6.485987">
        <ele>41.957960</ele>
        <time>2026-05-06T16:43:21.978Z</time>
      </trkpt>
      <trkpt lat="53.244775" lon="6.485827">
        <ele>42.190695</ele>
        <time>2026-05-06T16:43:23.985Z</time>
      </trkpt>
      <trkpt lat="53.244786" lon="6.485677">
        <ele>42.407131</ele>
        <time>2026-05-06T16:43:25.984Z</time>
      </trkpt>
      <trkpt lat="53.244799" lon="6.485522">
        <ele>42.631290</ele>
        <time>2026-05-06T16:43:27.982Z</time>
      </trkpt>
      <trkpt lat="53.244811" lon="6.485372">
        <ele>42.848030</ele>
        <time>2026-05-06T16:43:29.993Z</time>
      </trkpt>
      <trkpt lat="53.244822" lon="6.485222">
        <ele>43.064466</ele>
        <time>2026-05-06T16:43:31.985Z</time>
      </trkpt>
      <trkpt lat="53.244828" lon="6.485067">
        <ele>43.286920</ele>
        <time>2026-05-06T16:43:33.989Z</time>
      </trkpt>
      <trkpt lat="53.244828" lon="6.484916">
        <ele>43.503180</ele>
        <time>2026-05-06T16:43:35.986Z</time>
      </trkpt>
      <trkpt lat="53.244838" lon="6.484762">
        <ele>43.725032</ele>
        <time>2026-05-06T16:43:37.991Z</time>
      </trkpt>
      <trkpt lat="53.244842" lon="6.484610">
        <ele>43.942936</ele>
        <time>2026-05-06T16:43:39.982Z</time>
      </trkpt>
      <trkpt lat="53.244848" lon="6.484389">
        <ele>44.259775</ele>
        <time>2026-05-06T16:43:42.983Z</time>
      </trkpt>
      <trkpt lat="53.244849" lon="6.484169">
        <ele>44.574866</ele>
        <time>2026-05-06T16:43:45.989Z</time>
      </trkpt>
      <trkpt lat="53.244847" lon="6.484018">
        <ele>44.791179</ele>
        <time>2026-05-06T16:43:47.981Z</time>
      </trkpt>
      <trkpt lat="53.244850" lon="6.483861">
        <ele>45.016148</ele>
        <time>2026-05-06T16:43:49.988Z</time>
      </trkpt>
      <trkpt lat="53.244858" lon="6.483640">
        <ele>45.333240</ele>
        <time>2026-05-06T16:43:52.984Z</time>
      </trkpt>
      <trkpt lat="53.244866" lon="6.483419">
        <ele>45.645293</ele>
        <time>2026-05-06T16:43:55.984Z</time>
      </trkpt>
      <trkpt lat="53.244870" lon="6.483268">
        <ele>45.795273</ele>
        <time>2026-05-06T16:43:57.986Z</time>
      </trkpt>
      <trkpt lat="53.244877" lon="6.483047">
        <ele>46.014872</ele>
        <time>2026-05-06T16:44:00.995Z</time>
      </trkpt>
      <trkpt lat="53.244888" lon="6.482894">
        <ele>46.167782</ele>
        <time>2026-05-06T16:44:02.995Z</time>
      </trkpt>
      <trkpt lat="53.244896" lon="6.482741">
        <ele>46.320178</ele>
        <time>2026-05-06T16:44:04.986Z</time>
      </trkpt>
      <trkpt lat="53.244898" lon="6.482584">
        <ele>46.476000</ele>
        <time>2026-05-06T16:44:06.998Z</time>
      </trkpt>
      <trkpt lat="53.244914" lon="6.482372">
        <ele>46.688028</ele>
        <time>2026-05-06T16:44:09.986Z</time>
      </trkpt>
      <trkpt lat="53.244925" lon="6.482156">
        <ele>46.903134</ele>
        <time>2026-05-06T16:44:12.986Z</time>
      </trkpt>
      <trkpt lat="53.244932" lon="6.482001">
        <ele>47.057373</ele>
        <time>2026-05-06T16:44:14.986Z</time>
      </trkpt>
      <trkpt lat="53.244943" lon="6.481843">
        <ele>47.215210</ele>
        <time>2026-05-06T16:44:16.986Z</time>
      </trkpt>
      <trkpt lat="53.244964" lon="6.481630">
        <ele>47.429413</ele>
        <time>2026-05-06T16:44:19.986Z</time>
      </trkpt>
      <trkpt lat="53.244981" lon="6.481413">
        <ele>47.646573</ele>
        <time>2026-05-06T16:44:22.989Z</time>
      </trkpt>
      <trkpt lat="53.244999" lon="6.481266">
        <ele>47.795460</ele>
        <time>2026-05-06T16:44:24.979Z</time>
      </trkpt>
      <trkpt lat="53.245027" lon="6.481064">
        <ele>48.001206</ele>
        <time>2026-05-06T16:44:27.983Z</time>
      </trkpt>
      <trkpt lat="53.245048" lon="6.480855">
        <ele>48.211493</ele>
        <time>2026-05-06T16:44:30.977Z</time>
      </trkpt>
      <trkpt lat="53.245067" lon="6.480677">
        <ele>48.390905</ele>
        <time>2026-05-06T16:44:33.986Z</time>
      </trkpt>
      <trkpt lat="53.245089" lon="6.480487">
        <ele>48.582933</ele>
        <time>2026-05-06T16:44:36.981Z</time>
      </trkpt>
      <trkpt lat="53.245115" lon="6.480273">
        <ele>48.292831</ele>
        <time>2026-05-06T16:44:39.989Z</time>
      </trkpt>
      <trkpt lat="53.245131" lon="6.480121">
        <ele>48.022202</ele>
        <time>2026-05-06T16:44:41.983Z</time>
      </trkpt>
      <trkpt lat="53.245152" lon="6.479960">
        <ele>47.733255</ele>
        <time>2026-05-06T16:44:43.982Z</time>
      </trkpt>
      <trkpt lat="53.245171" lon="6.479744">
        <ele>47.350423</ele>
        <time>2026-05-06T16:44:46.980Z</time>
      </trkpt>
      <trkpt lat="53.245204" lon="6.479526">
        <ele>46.956113</ele>
        <time>2026-05-06T16:44:49.982Z</time>
      </trkpt>
      <trkpt lat="53.245237" lon="6.479379">
        <ele>46.680802</ele>
        <time>2026-05-06T16:44:51.981Z</time>
      </trkpt>
      <trkpt lat="53.245278" lon="6.479239">
        <ele>46.407485</ele>
        <time>2026-05-06T16:44:53.985Z</time>
      </trkpt>
      <trkpt lat="53.245318" lon="6.479091">
        <ele>46.122721</ele>
        <time>2026-05-06T16:44:55.987Z</time>
      </trkpt>
      <trkpt lat="53.245357" lon="6.478945">
        <ele>45.842356</ele>
        <time>2026-05-06T16:44:57.987Z</time>
      </trkpt>
      <trkpt lat="53.245389" lon="6.478800">
        <ele>45.571356</ele>
        <time>2026-05-06T16:44:59.987Z</time>
      </trkpt>
      <trkpt lat="53.245429" lon="6.478643">
        <ele>45.272139</ele>
        <time>2026-05-06T16:45:01.986Z</time>
      </trkpt>
      <trkpt lat="53.245469" lon="6.478469">
        <ele>44.945286</ele>
        <time>2026-05-06T16:45:03.984Z</time>
      </trkpt>
      <trkpt lat="53.245514" lon="6.478301">
        <ele>44.622528</ele>
        <time>2026-05-06T16:45:05.985Z</time>
      </trkpt>
      <trkpt lat="53.245566" lon="6.478117">
        <ele>44.265709</ele>
        <time>2026-05-06T16:45:07.978Z</time>
      </trkpt>
      <trkpt lat="53.245613" lon="6.477923">
        <ele>43.898704</ele>
        <time>2026-05-06T16:45:09.992Z</time>
      </trkpt>
      <trkpt lat="53.245695" lon="6.477760">
        <ele>43.525295</ele>
        <time>2026-05-06T16:45:11.984Z</time>
      </trkpt>
      <trkpt lat="53.245795" lon="6.477657">
        <ele>43.259721</ele>
        <time>2026-05-06T16:45:13.992Z</time>
      </trkpt>
      <trkpt lat="53.245885" lon="6.477614">
        <ele>43.116439</ele>
        <time>2026-05-06T16:45:15.985Z</time>
      </trkpt>
      <trkpt lat="53.245945" lon="6.477759">
        <ele>42.954965</ele>
        <time>2026-05-06T16:45:18.986Z</time>
      </trkpt>
      <trkpt lat="53.245942" lon="6.477911">
        <ele>42.815666</ele>
        <time>2026-05-06T16:45:20.998Z</time>
      </trkpt>
      <trkpt lat="53.245923" lon="6.478065">
        <ele>42.671644</ele>
        <time>2026-05-06T16:45:22.992Z</time>
      </trkpt>
      <trkpt lat="53.245896" lon="6.478225">
        <ele>42.519378</ele>
        <time>2026-05-06T16:45:24.990Z</time>
      </trkpt>
      <trkpt lat="53.245859" lon="6.478448">
        <ele>42.307416</ele>
        <time>2026-05-06T16:45:27.986Z</time>
      </trkpt>
      <trkpt lat="53.245838" lon="6.478603">
        <ele>42.161851</ele>
        <time>2026-05-06T16:45:29.980Z</time>
      </trkpt>
      <trkpt lat="53.245808" lon="6.478764">
        <ele>42.007400</ele>
        <time>2026-05-06T16:45:31.983Z</time>
      </trkpt>
      <trkpt lat="53.245784" lon="6.478918">
        <ele>41.861639</ele>
        <time>2026-05-06T16:45:33.982Z</time>
      </trkpt>
      <trkpt lat="53.245756" lon="6.479077">
        <ele>41.709829</ele>
        <time>2026-05-06T16:45:35.988Z</time>
      </trkpt>
      <trkpt lat="53.245736" lon="6.479231">
        <ele>41.565489</ele>
        <time>2026-05-06T16:45:37.987Z</time>
      </trkpt>
      <trkpt lat="53.245743" lon="6.479394">
        <ele>41.415806</ele>
        <time>2026-05-06T16:45:39.995Z</time>
      </trkpt>
      <trkpt lat="53.245779" lon="6.479534">
        <ele>41.276235</ele>
        <time>2026-05-06T16:45:41.975Z</time>
      </trkpt>
      <trkpt lat="53.245867" lon="6.479689">
        <ele>41.080531</ele>
        <time>2026-05-06T16:45:44.985Z</time>
      </trkpt>
      <trkpt lat="53.245945" lon="6.479849">
        <ele>40.891502</ele>
        <time>2026-05-06T16:45:47.985Z</time>
      </trkpt>
      <trkpt lat="53.246022" lon="6.479991">
        <ele>40.715979</ele>
        <time>2026-05-06T16:45:50.986Z</time>
      </trkpt>
      <trkpt lat="53.245946" lon="6.480092">
        <ele>40.584842</ele>
        <time>2026-05-06T16:45:54.982Z</time>
      </trkpt>
      <trkpt lat="53.245845" lon="6.480073">
        <ele>40.537231</ele>
        <time>2026-05-06T16:45:56.987Z</time>
      </trkpt>
      <trkpt lat="53.245741" lon="6.480064">
        <ele>40.488448</ele>
        <time>2026-05-06T16:45:58.985Z</time>
      </trkpt>
      <trkpt lat="53.245643" lon="6.480060">
        <ele>40.442528</ele>
        <time>2026-05-06T16:46:00.984Z</time>
      </trkpt>
      <trkpt lat="53.245546" lon="6.480048">
        <ele>40.396965</ele>
        <time>2026-05-06T16:46:02.984Z</time>
      </trkpt>
      <trkpt lat="53.245442" lon="6.480043">
        <ele>40.348227</ele>
        <time>2026-05-06T16:46:04.983Z</time>
      </trkpt>
      <trkpt lat="53.245331" lon="6.480041">
        <ele>40.296227</ele>
        <time>2026-05-06T16:46:06.984Z</time>
      </trkpt>
      <trkpt lat="53.245231" lon="6.480030">
        <ele>40.249282</ele>
        <time>2026-05-06T16:46:08.991Z</time>
      </trkpt>
      <trkpt lat="53.245142" lon="6.480008">
        <ele>40.207137</ele>
        <time>2026-05-06T16:46:10.978Z</time>
      </trkpt>
      <trkpt lat="53.245046" lon="6.479980">
        <ele>40.161487</ele>
        <time>2026-05-06T16:46:12.983Z</time>
      </trkpt>
      <trkpt lat="53.244953" lon="6.479933">
        <ele>40.115974</ele>
        <time>2026-05-06T16:46:14.988Z</time>
      </trkpt>
      <trkpt lat="53.244853" lon="6.479914">
        <ele>40.068828</ele>
        <time>2026-05-06T16:46:16.990Z</time>
      </trkpt>
      <trkpt lat="53.244750" lon="6.479890">
        <ele>40.020112</ele>
        <time>2026-05-06T16:46:18.989Z</time>
      </trkpt>
      <trkpt lat="53.244644" lon="6.479858">
        <ele>39.969654</ele>
        <time>2026-05-06T16:46:20.984Z</time>
      </trkpt>
      <trkpt lat="53.244544" lon="6.479833">
        <ele>39.922289</ele>
        <time>2026-05-06T16:46:22.989Z</time>
      </trkpt>
      <trkpt lat="53.244448" lon="6.479797">
        <ele>39.876200</ele>
        <time>2026-05-06T16:46:24.989Z</time>
      </trkpt>
      <trkpt lat="53.244352" lon="6.479762">
        <ele>39.830173</ele>
        <time>2026-05-06T16:46:26.984Z</time>
      </trkpt>
      <trkpt lat="53.244249" lon="6.479711">
        <ele>39.779850</ele>
        <time>2026-05-06T16:46:28.981Z</time>
      </trkpt>
      <trkpt lat="53.244146" lon="6.479675">
        <ele>39.780199</ele>
        <time>2026-05-06T16:46:30.983Z</time>
      </trkpt>
      <trkpt lat="53.244044" lon="6.479624">
        <ele>39.857641</ele>
        <time>2026-05-06T16:46:32.994Z</time>
      </trkpt>
      <trkpt lat="53.243943" lon="6.479573">
        <ele>39.934386</ele>
        <time>2026-05-06T16:46:34.986Z</time>
      </trkpt>
      <trkpt lat="53.243841" lon="6.479530">
        <ele>40.010902</ele>
        <time>2026-05-06T16:46:36.986Z</time>
      </trkpt>
      <trkpt lat="53.243749" lon="6.479483">
        <ele>40.080877</ele>
        <time>2026-05-06T16:46:38.978Z</time>
      </trkpt>
      <trkpt lat="53.243658" lon="6.479440">
        <ele>40.149663</ele>
        <time>2026-05-06T16:46:40.991Z</time>
      </trkpt>
      <trkpt lat="53.243526" lon="6.479362">
        <ele>40.251502</ele>
        <time>2026-05-06T16:46:43.985Z</time>
      </trkpt>
      <trkpt lat="53.243430" lon="6.479315">
        <ele>40.324264</ele>
        <time>2026-05-06T16:46:45.990Z</time>
      </trkpt>
      <trkpt lat="53.243329" lon="6.479271">
        <ele>40.400184</ele>
        <time>2026-05-06T16:46:47.985Z</time>
      </trkpt>
      <trkpt lat="53.243234" lon="6.479227">
        <ele>40.471889</ele>
        <time>2026-05-06T16:46:49.986Z</time>
      </trkpt>
      <trkpt lat="53.243139" lon="6.479174">
        <ele>40.544739</ele>
        <time>2026-05-06T16:46:51.986Z</time>
      </trkpt>
      <trkpt lat="53.243040" lon="6.479139">
        <ele>40.618342</ele>
        <time>2026-05-06T16:46:53.986Z</time>
      </trkpt>
      <trkpt lat="53.242943" lon="6.479103">
        <ele>40.690616</ele>
        <time>2026-05-06T16:46:55.984Z</time>
      </trkpt>
      <trkpt lat="53.242850" lon="6.479071">
        <ele>40.759681</ele>
        <time>2026-05-06T16:46:57.985Z</time>
      </trkpt>
      <trkpt lat="53.242759" lon="6.479042">
        <ele>40.827065</ele>
        <time>2026-05-06T16:46:59.985Z</time>
      </trkpt>
      <trkpt lat="53.242670" lon="6.479010">
        <ele>40.893282</ele>
        <time>2026-05-06T16:47:01.983Z</time>
      </trkpt>
      <trkpt lat="53.242542" lon="6.478965">
        <ele>40.988424</ele>
        <time>2026-05-06T16:47:04.990Z</time>
      </trkpt>
      <trkpt lat="53.242447" lon="6.478931">
        <ele>41.058490</ele>
        <time>2026-05-06T16:47:06.986Z</time>
      </trkpt>
      <trkpt lat="53.242349" lon="6.478893">
        <ele>41.077224</ele>
        <time>2026-05-06T16:47:08.985Z</time>
      </trkpt>
      <trkpt lat="53.242249" lon="6.478850">
        <ele>41.096453</ele>
        <time>2026-05-06T16:47:10.984Z</time>
      </trkpt>
      <trkpt lat="53.242156" lon="6.478808">
        <ele>41.114393</ele>
        <time>2026-05-06T16:47:12.986Z</time>
      </trkpt>
      <trkpt lat="53.242060" lon="6.478763">
        <ele>41.132960</ele>
        <time>2026-05-06T16:47:14.982Z</time>
      </trkpt>
      <trkpt lat="53.241972" lon="6.478707">
        <ele>41.150496</ele>
        <time>2026-05-06T16:47:16.998Z</time>
      </trkpt>
      <trkpt lat="53.241881" lon="6.478655">
        <ele>41.168405</ele>
        <time>2026-05-06T16:47:18.983Z</time>
      </trkpt>
      <trkpt lat="53.241784" lon="6.478592">
        <ele>41.187785</ele>
        <time>2026-05-06T16:47:20.988Z</time>
      </trkpt>
      <trkpt lat="53.241692" lon="6.478516">
        <ele>41.206896</ele>
        <time>2026-05-06T16:47:22.989Z</time>
      </trkpt>
      <trkpt lat="53.241609" lon="6.478450">
        <ele>41.224013</ele>
        <time>2026-05-06T16:47:24.985Z</time>
      </trkpt>
      <trkpt lat="53.241524" lon="6.478376">
        <ele>41.241862</ele>
        <time>2026-05-06T16:47:26.981Z</time>
      </trkpt>
      <trkpt lat="53.241430" lon="6.478304">
        <ele>41.261118</ele>
        <time>2026-05-06T16:47:28.985Z</time>
      </trkpt>
      <trkpt lat="53.241335" lon="6.478236">
        <ele>41.280363</ele>
        <time>2026-05-06T16:47:30.981Z</time>
      </trkpt>
      <trkpt lat="53.241242" lon="6.478175">
        <ele>41.298968</ele>
        <time>2026-05-06T16:47:32.988Z</time>
      </trkpt>
      <trkpt lat="53.241157" lon="6.478113">
        <ele>41.316239</ele>
        <time>2026-05-06T16:47:34.989Z</time>
      </trkpt>
      <trkpt lat="53.241070" lon="6.478062">
        <ele>41.333408</ele>
        <time>2026-05-06T16:47:36.987Z</time>
      </trkpt>
      <trkpt lat="53.240982" lon="6.478014">
        <ele>41.350647</ele>
        <time>2026-05-06T16:47:38.982Z</time>
      </trkpt>
      <trkpt lat="53.240887" lon="6.477980">
        <ele>41.368739</ele>
        <time>2026-05-06T16:47:40.982Z</time>
      </trkpt>
      <trkpt lat="53.240786" lon="6.477953">
        <ele>41.387786</ele>
        <time>2026-05-06T16:47:42.988Z</time>
      </trkpt>
      <trkpt lat="53.240689" lon="6.477932">
        <ele>41.398559</ele>
        <time>2026-05-06T16:47:44.985Z</time>
      </trkpt>
      <trkpt lat="53.240597" lon="6.477917">
        <ele>41.405745</ele>
        <time>2026-05-06T16:47:46.986Z</time>
      </trkpt>
      <trkpt lat="53.240504" lon="6.477899">
        <ele>41.413023</ele>
        <time>2026-05-06T16:47:48.985Z</time>
      </trkpt>
      <trkpt lat="53.240375" lon="6.477867">
        <ele>41.423161</ele>
        <time>2026-05-06T16:47:51.980Z</time>
      </trkpt>
      <trkpt lat="53.240260" lon="6.477846">
        <ele>41.432154</ele>
        <time>2026-05-06T16:47:54.985Z</time>
      </trkpt>
      <trkpt lat="53.240131" lon="6.477823">
        <ele>41.442239</ele>
        <time>2026-05-06T16:47:57.981Z</time>
      </trkpt>
      <trkpt lat="53.240038" lon="6.477810">
        <ele>41.449494</ele>
        <time>2026-05-06T16:47:59.978Z</time>
      </trkpt>
      <trkpt lat="53.239911" lon="6.477782">
        <ele>41.459452</ele>
        <time>2026-05-06T16:48:02.984Z</time>
      </trkpt>
      <trkpt lat="53.239783" lon="6.477743">
        <ele>41.469566</ele>
        <time>2026-05-06T16:48:05.990Z</time>
      </trkpt>
      <trkpt lat="53.239693" lon="6.477720">
        <ele>41.476644</ele>
        <time>2026-05-06T16:48:07.982Z</time>
      </trkpt>
      <trkpt lat="53.239561" lon="6.477677">
        <ele>41.487098</ele>
        <time>2026-05-06T16:48:10.984Z</time>
      </trkpt>
      <trkpt lat="53.239445" lon="6.477644">
        <ele>41.496246</ele>
        <time>2026-05-06T16:48:13.982Z</time>
      </trkpt>
      <trkpt lat="53.239323" lon="6.477585">
        <ele>41.506119</ele>
        <time>2026-05-06T16:48:16.981Z</time>
      </trkpt>
      <trkpt lat="53.239189" lon="6.477513">
        <ele>41.517061</ele>
        <time>2026-05-06T16:48:19.978Z</time>
      </trkpt>
      <trkpt lat="53.239086" lon="6.477477">
        <ele>41.525241</ele>
        <time>2026-05-06T16:48:21.978Z</time>
      </trkpt>
      <trkpt lat="53.238993" lon="6.477427">
        <ele>41.532836</ele>
        <time>2026-05-06T16:48:23.982Z</time>
      </trkpt>
      <trkpt lat="53.238895" lon="6.477380">
        <ele>41.564604</ele>
        <time>2026-05-06T16:48:25.982Z</time>
      </trkpt>
      <trkpt lat="53.238792" lon="6.477339">
        <ele>41.598277</ele>
        <time>2026-05-06T16:48:27.987Z</time>
      </trkpt>
      <trkpt lat="53.238686" lon="6.477307">
        <ele>41.632534</ele>
        <time>2026-05-06T16:48:29.983Z</time>
      </trkpt>
      <trkpt lat="53.238598" lon="6.477264">
        <ele>41.661692</ele>
        <time>2026-05-06T16:48:31.989Z</time>
      </trkpt>
      <trkpt lat="53.238477" lon="6.477189">
        <ele>41.702735</ele>
        <time>2026-05-06T16:48:34.988Z</time>
      </trkpt>
      <trkpt lat="53.238381" lon="6.477153">
        <ele>41.734025</ele>
        <time>2026-05-06T16:48:36.980Z</time>
      </trkpt>
      <trkpt lat="53.238291" lon="6.477098">
        <ele>41.764501</ele>
        <time>2026-05-06T16:48:38.982Z</time>
      </trkpt>
      <trkpt lat="53.238194" lon="6.477053">
        <ele>41.796516</ele>
        <time>2026-05-06T16:48:40.987Z</time>
      </trkpt>
      <trkpt lat="53.238107" lon="6.477003">
        <ele>41.825775</ele>
        <time>2026-05-06T16:48:42.986Z</time>
      </trkpt>
      <trkpt lat="53.237978" lon="6.476933">
        <ele>41.868910</ele>
        <time>2026-05-06T16:48:45.985Z</time>
      </trkpt>
      <trkpt lat="53.237889" lon="6.476881">
        <ele>41.898894</ele>
        <time>2026-05-06T16:48:47.986Z</time>
      </trkpt>
      <trkpt lat="53.237800" lon="6.476838">
        <ele>41.928358</ele>
        <time>2026-05-06T16:48:49.986Z</time>
      </trkpt>
      <trkpt lat="53.237713" lon="6.476791">
        <ele>41.957436</ele>
        <time>2026-05-06T16:48:51.987Z</time>
      </trkpt>
      <trkpt lat="53.237593" lon="6.476713">
        <ele>41.998385</ele>
        <time>2026-05-06T16:48:54.981Z</time>
      </trkpt>
      <trkpt lat="53.237467" lon="6.476648">
        <ele>42.040323</ele>
        <time>2026-05-06T16:48:57.984Z</time>
      </trkpt>
      <trkpt lat="53.237372" lon="6.476610">
        <ele>42.071389</ele>
        <time>2026-05-06T16:48:59.981Z</time>
      </trkpt>
      <trkpt lat="53.237281" lon="6.476564">
        <ele>42.101624</ele>
        <time>2026-05-06T16:49:01.984Z</time>
      </trkpt>
      <trkpt lat="53.237153" lon="6.476491">
        <ele>42.092067</ele>
        <time>2026-05-06T16:49:04.984Z</time>
      </trkpt>
      <trkpt lat="53.237029" lon="6.476435">
        <ele>42.078658</ele>
        <time>2026-05-06T16:49:07.984Z</time>
      </trkpt>
      <trkpt lat="53.236900" lon="6.476382">
        <ele>42.064790</ele>
        <time>2026-05-06T16:49:10.978Z</time>
      </trkpt>
      <trkpt lat="53.236811" lon="6.476347">
        <ele>42.055245</ele>
        <time>2026-05-06T16:49:12.985Z</time>
      </trkpt>
      <trkpt lat="53.236724" lon="6.476307">
        <ele>42.045825</ele>
        <time>2026-05-06T16:49:14.984Z</time>
      </trkpt>
      <trkpt lat="53.236602" lon="6.476254">
        <ele>42.032665</ele>
        <time>2026-05-06T16:49:17.978Z</time>
      </trkpt>
      <trkpt lat="53.236493" lon="6.476199">
        <ele>42.020778</ele>
        <time>2026-05-06T16:49:20.984Z</time>
      </trkpt>
      <trkpt lat="53.236389" lon="6.476150">
        <ele>42.009498</ele>
        <time>2026-05-06T16:49:23.982Z</time>
      </trkpt>
      <trkpt lat="53.236277" lon="6.476102">
        <ele>41.997427</ele>
        <time>2026-05-06T16:49:27.984Z</time>
      </trkpt>
      <trkpt lat="53.236185" lon="6.476066">
        <ele>41.987563</ele>
        <time>2026-05-06T16:49:31.985Z</time>
      </trkpt>
      <trkpt lat="53.236018" lon="6.475988">
        <ele>41.969461</ele>
        <time>2026-05-06T16:50:35.987Z</time>
      </trkpt>
      <trkpt lat="53.235916" lon="6.475938">
        <ele>41.958363</ele>
        <time>2026-05-06T16:50:38.987Z</time>
      </trkpt>
      <trkpt lat="53.235806" lon="6.475887">
        <ele>41.946446</ele>
        <time>2026-05-06T16:50:41.985Z</time>
      </trkpt>
      <trkpt lat="53.235699" lon="6.475849">
        <ele>41.935026</ele>
        <time>2026-05-06T16:50:44.986Z</time>
      </trkpt>
      <trkpt lat="53.235584" lon="6.475810">
        <ele>41.922776</ele>
        <time>2026-05-06T16:50:47.981Z</time>
      </trkpt>
      <trkpt lat="53.235473" lon="6.475765">
        <ele>41.894043</ele>
        <time>2026-05-06T16:50:50.984Z</time>
      </trkpt>
      <trkpt lat="53.235357" lon="6.475707">
        <ele>41.848399</ele>
        <time>2026-05-06T16:50:53.993Z</time>
      </trkpt>
      <trkpt lat="53.235238" lon="6.475648">
        <ele>41.801607</ele>
        <time>2026-05-06T16:50:56.984Z</time>
      </trkpt>
      <trkpt lat="53.235150" lon="6.475611">
        <ele>41.767400</ele>
        <time>2026-05-06T16:50:58.992Z</time>
      </trkpt>
      <trkpt lat="53.235027" lon="6.475551">
        <ele>41.719098</ele>
        <time>2026-05-06T16:51:01.992Z</time>
      </trkpt>
      <trkpt lat="53.234941" lon="6.475506">
        <ele>41.685127</ele>
        <time>2026-05-06T16:51:03.985Z</time>
      </trkpt>
      <trkpt lat="53.234820" lon="6.475459">
        <ele>41.638298</ele>
        <time>2026-05-06T16:51:06.986Z</time>
      </trkpt>
      <trkpt lat="53.234732" lon="6.475409">
        <ele>41.603260</ele>
        <time>2026-05-06T16:51:08.984Z</time>
      </trkpt>
      <trkpt lat="53.234611" lon="6.475351">
        <ele>41.555807</ele>
        <time>2026-05-06T16:51:11.989Z</time>
      </trkpt>
      <trkpt lat="53.234481" lon="6.475302">
        <ele>41.505571</ele>
        <time>2026-05-06T16:51:14.986Z</time>
      </trkpt>
      <trkpt lat="53.234353" lon="6.475249">
        <ele>41.455860</ele>
        <time>2026-05-06T16:51:17.989Z</time>
      </trkpt>
      <trkpt lat="53.234261" lon="6.475205">
        <ele>41.419786</ele>
        <time>2026-05-06T16:51:19.988Z</time>
      </trkpt>
      <trkpt lat="53.234168" lon="6.475167">
        <ele>41.383696</ele>
        <time>2026-05-06T16:51:21.990Z</time>
      </trkpt>
      <trkpt lat="53.234072" lon="6.475124">
        <ele>41.346230</ele>
        <time>2026-05-06T16:51:23.988Z</time>
      </trkpt>
      <trkpt lat="53.233982" lon="6.475079">
        <ele>41.310816</ele>
        <time>2026-05-06T16:51:25.982Z</time>
      </trkpt>
      <trkpt lat="53.233896" lon="6.475038">
        <ele>41.277104</ele>
        <time>2026-05-06T16:51:27.990Z</time>
      </trkpt>
      <trkpt lat="53.233798" lon="6.475001">
        <ele>41.239280</ele>
        <time>2026-05-06T16:51:29.978Z</time>
      </trkpt>
      <trkpt lat="53.233698" lon="6.474957">
        <ele>41.247362</ele>
        <time>2026-05-06T16:51:32.003Z</time>
      </trkpt>
      <trkpt lat="53.233607" lon="6.474914">
        <ele>41.254752</ele>
        <time>2026-05-06T16:51:33.995Z</time>
      </trkpt>
      <trkpt lat="53.233520" lon="6.474868">
        <ele>41.261884</ele>
        <time>2026-05-06T16:51:35.997Z</time>
      </trkpt>
      <trkpt lat="53.233422" lon="6.474816">
        <ele>41.269919</ele>
        <time>2026-05-06T16:51:37.994Z</time>
      </trkpt>
      <trkpt lat="53.233291" lon="6.474748">
        <ele>41.280640</ele>
        <time>2026-05-06T16:51:40.998Z</time>
      </trkpt>
      <trkpt lat="53.233194" lon="6.474690">
        <ele>41.288691</ele>
        <time>2026-05-06T16:51:42.988Z</time>
      </trkpt>
      <trkpt lat="53.233095" lon="6.474641">
        <ele>41.296760</ele>
        <time>2026-05-06T16:51:44.996Z</time>
      </trkpt>
      <trkpt lat="53.233001" lon="6.474583">
        <ele>41.304591</ele>
        <time>2026-05-06T16:51:46.983Z</time>
      </trkpt>
      <trkpt lat="53.232903" lon="6.474528">
        <ele>41.312671</ele>
        <time>2026-05-06T16:51:48.985Z</time>
      </trkpt>
      <trkpt lat="53.232807" lon="6.474474">
        <ele>41.320587</ele>
        <time>2026-05-06T16:51:50.992Z</time>
      </trkpt>
      <trkpt lat="53.232682" lon="6.474386">
        <ele>41.331187</ele>
        <time>2026-05-06T16:51:53.985Z</time>
      </trkpt>
      <trkpt lat="53.232594" lon="6.474317">
        <ele>41.338784</ele>
        <time>2026-05-06T16:51:55.983Z</time>
      </trkpt>
      <trkpt lat="53.232513" lon="6.474242">
        <ele>41.346022</ele>
        <time>2026-05-06T16:51:57.982Z</time>
      </trkpt>
      <trkpt lat="53.232425" lon="6.474168">
        <ele>41.353721</ele>
        <time>2026-05-06T16:51:59.990Z</time>
      </trkpt>
      <trkpt lat="53.232339" lon="6.474086">
        <ele>41.361459</ele>
        <time>2026-05-06T16:52:01.985Z</time>
      </trkpt>
      <trkpt lat="53.232255" lon="6.474013">
        <ele>41.368859</ele>
        <time>2026-05-06T16:52:03.983Z</time>
      </trkpt>
      <trkpt lat="53.232168" lon="6.473937">
        <ele>41.376532</ele>
        <time>2026-05-06T16:52:05.986Z</time>
      </trkpt>
      <trkpt lat="53.232075" lon="6.473847">
        <ele>41.363327</ele>
        <time>2026-05-06T16:52:08.009Z</time>
      </trkpt>
      <trkpt lat="53.231989" lon="6.473750">
        <ele>41.337056</ele>
        <time>2026-05-06T16:52:09.982Z</time>
      </trkpt>
      <trkpt lat="53.231903" lon="6.473673">
        <ele>41.312353</ele>
        <time>2026-05-06T16:52:11.988Z</time>
      </trkpt>
      <trkpt lat="53.231816" lon="6.473616">
        <ele>41.288693</ele>
        <time>2026-05-06T16:52:13.988Z</time>
      </trkpt>
      <trkpt lat="53.231692" lon="6.473533">
        <ele>41.254873</ele>
        <time>2026-05-06T16:52:16.985Z</time>
      </trkpt>
      <trkpt lat="53.231561" lon="6.473466">
        <ele>41.220188</ele>
        <time>2026-05-06T16:52:19.991Z</time>
      </trkpt>
      <trkpt lat="53.231464" lon="6.473456">
        <ele>41.195583</ele>
        <time>2026-05-06T16:52:21.987Z</time>
      </trkpt>
      <trkpt lat="53.231332" lon="6.473448">
        <ele>41.162141</ele>
        <time>2026-05-06T16:52:24.987Z</time>
      </trkpt>
      <trkpt lat="53.231236" lon="6.473481">
        <ele>41.137327</ele>
        <time>2026-05-06T16:52:26.988Z</time>
      </trkpt>
      <trkpt lat="53.231148" lon="6.473522">
        <ele>41.114197</ele>
        <time>2026-05-06T16:52:28.989Z</time>
      </trkpt>
      <trkpt lat="53.231032" lon="6.473618">
        <ele>41.081423</ele>
        <time>2026-05-06T16:52:31.985Z</time>
      </trkpt>
      <trkpt lat="53.230940" lon="6.473751">
        <ele>41.050620</ele>
        <time>2026-05-06T16:52:34.985Z</time>
      </trkpt>
      <trkpt lat="53.230850" lon="6.473837">
        <ele>41.024370</ele>
        <time>2026-05-06T16:52:41.986Z</time>
      </trkpt>
      <trkpt lat="53.230749" lon="6.473910">
        <ele>40.996508</ele>
        <time>2026-05-06T16:52:44.985Z</time>
      </trkpt>
      <trkpt lat="53.230618" lon="6.473883">
        <ele>40.963091</ele>
        <time>2026-05-06T16:52:47.991Z</time>
      </trkpt>
      <trkpt lat="53.230529" lon="6.473858">
        <ele>40.940242</ele>
        <time>2026-05-06T16:52:49.991Z</time>
      </trkpt>
      <trkpt lat="53.230408" lon="6.473813">
        <ele>40.912197</ele>
        <time>2026-05-06T16:52:52.985Z</time>
      </trkpt>
      <trkpt lat="53.230317" lon="6.473772">
        <ele>40.893443</ele>
        <time>2026-05-06T16:52:55.990Z</time>
      </trkpt>
      <trkpt lat="53.230229" lon="6.473837">
        <ele>40.874298</ele>
        <time>2026-05-06T16:53:03.987Z</time>
      </trkpt>
      <trkpt lat="53.230180" lon="6.474186">
        <ele>40.831601</ele>
        <time>2026-05-06T16:53:31.993Z</time>
      </trkpt>
      <trkpt lat="53.230175" lon="6.474384">
        <ele>40.807997</ele>
        <time>2026-05-06T16:53:35.983Z</time>
      </trkpt>
      <trkpt lat="53.230167" lon="6.474570">
        <ele>40.785785</ele>
        <time>2026-05-06T16:53:39.976Z</time>
      </trkpt>
      <trkpt lat="53.230172" lon="6.474742">
        <ele>40.765275</ele>
        <time>2026-05-06T16:53:43.979Z</time>
      </trkpt>
      <trkpt lat="53.230171" lon="6.474919">
        <ele>40.744191</ele>
        <time>2026-05-06T16:53:48.986Z</time>
      </trkpt>
      <trkpt lat="53.230170" lon="6.475073">
        <ele>40.725848</ele>
        <time>2026-05-06T16:53:52.990Z</time>
      </trkpt>
      <trkpt lat="53.230175" lon="6.475244">
        <ele>40.705456</ele>
        <time>2026-05-06T16:53:55.989Z</time>
      </trkpt>
      <trkpt lat="53.230179" lon="6.475444">
        <ele>40.681621</ele>
        <time>2026-05-06T16:53:58.984Z</time>
      </trkpt>
      <trkpt lat="53.230186" lon="6.475663">
        <ele>40.655499</ele>
        <time>2026-05-06T16:54:01.988Z</time>
      </trkpt>
      <trkpt lat="53.230185" lon="6.475878">
        <ele>40.629890</ele>
        <time>2026-05-06T16:54:04.987Z</time>
      </trkpt>
      <trkpt lat="53.230178" lon="6.476028">
        <ele>40.611969</ele>
        <time>2026-05-06T16:54:06.989Z</time>
      </trkpt>
      <trkpt lat="53.230150" lon="6.476181">
        <ele>40.592913</ele>
        <time>2026-05-06T16:54:08.988Z</time>
      </trkpt>
      <trkpt lat="53.230119" lon="6.476325">
        <ele>40.574686</ele>
        <time>2026-05-06T16:54:10.987Z</time>
      </trkpt>
      <trkpt lat="53.230085" lon="6.476474">
        <ele>40.558439</ele>
        <time>2026-05-06T16:54:12.987Z</time>
      </trkpt>
      <trkpt lat="53.230038" lon="6.476619">
        <ele>40.543757</ele>
        <time>2026-05-06T16:54:14.979Z</time>
      </trkpt>
      <trkpt lat="53.229995" lon="6.476755">
        <ele>40.530063</ele>
        <time>2026-05-06T16:54:16.978Z</time>
      </trkpt>
      <trkpt lat="53.229947" lon="6.476896">
        <ele>40.515620</ele>
        <time>2026-05-06T16:54:19.002Z</time>
      </trkpt>
      <trkpt lat="53.229895" lon="6.477045">
        <ele>40.500263</ele>
        <time>2026-05-06T16:54:20.986Z</time>
      </trkpt>
      <trkpt lat="53.229845" lon="6.477183">
        <ele>40.485901</ele>
        <time>2026-05-06T16:54:22.987Z</time>
      </trkpt>
      <trkpt lat="53.229795" lon="6.477311">
        <ele>40.472292</ele>
        <time>2026-05-06T16:54:24.987Z</time>
      </trkpt>
      <trkpt lat="53.229741" lon="6.477455">
        <ele>40.457162</ele>
        <time>2026-05-06T16:54:26.984Z</time>
      </trkpt>
      <trkpt lat="53.229679" lon="6.477587">
        <ele>40.442223</ele>
        <time>2026-05-06T16:54:28.984Z</time>
      </trkpt>
      <trkpt lat="53.229630" lon="6.477718">
        <ele>40.428469</ele>
        <time>2026-05-06T16:54:30.985Z</time>
      </trkpt>
      <trkpt lat="53.229577" lon="6.477850">
        <ele>40.414317</ele>
        <time>2026-05-06T16:54:32.986Z</time>
      </trkpt>
      <trkpt lat="53.229528" lon="6.478000">
        <ele>40.399102</ele>
        <time>2026-05-06T16:54:34.984Z</time>
      </trkpt>
      <trkpt lat="53.229477" lon="6.478144">
        <ele>40.384204</ele>
        <time>2026-05-06T16:54:36.978Z</time>
      </trkpt>
      <trkpt lat="53.229429" lon="6.478298">
        <ele>40.368745</ele>
        <time>2026-05-06T16:54:38.979Z</time>
      </trkpt>
      <trkpt lat="53.229393" lon="6.478453">
        <ele>40.353941</ele>
        <time>2026-05-06T16:54:40.990Z</time>
      </trkpt>
      <trkpt lat="53.229359" lon="6.478609">
        <ele>40.339159</ele>
        <time>2026-05-06T16:54:42.983Z</time>
      </trkpt>
      <trkpt lat="53.229332" lon="6.478759">
        <ele>40.325212</ele>
        <time>2026-05-06T16:54:44.985Z</time>
      </trkpt>
      <trkpt lat="53.229300" lon="6.478907">
        <ele>40.311201</ele>
        <time>2026-05-06T16:54:46.991Z</time>
      </trkpt>
      <trkpt lat="53.229270" lon="6.479055">
        <ele>40.304897</ele>
        <time>2026-05-06T16:54:48.981Z</time>
      </trkpt>
      <trkpt lat="53.229247" lon="6.479211">
        <ele>40.352938</ele>
        <time>2026-05-06T16:54:50.982Z</time>
      </trkpt>
      <trkpt lat="53.229224" lon="6.479364">
        <ele>40.400109</ele>
        <time>2026-05-06T16:54:52.989Z</time>
      </trkpt>
      <trkpt lat="53.229202" lon="6.479510">
        <ele>40.445128</ele>
        <time>2026-05-06T16:54:54.988Z</time>
      </trkpt>
      <trkpt lat="53.229178" lon="6.479669">
        <ele>40.494160</ele>
        <time>2026-05-06T16:54:56.983Z</time>
      </trkpt>
      <trkpt lat="53.229144" lon="6.479825">
        <ele>40.543803</ele>
        <time>2026-05-06T16:54:58.988Z</time>
      </trkpt>
      <trkpt lat="53.229104" lon="6.479970">
        <ele>40.591544</ele>
        <time>2026-05-06T16:55:00.982Z</time>
      </trkpt>
      <trkpt lat="53.229061" lon="6.480120">
        <ele>40.641275</ele>
        <time>2026-05-06T16:55:02.981Z</time>
      </trkpt>
      <trkpt lat="53.229004" lon="6.480266">
        <ele>40.693396</ele>
        <time>2026-05-06T16:55:04.981Z</time>
      </trkpt>
      <trkpt lat="53.228946" lon="6.480395">
        <ele>40.741639</ele>
        <time>2026-05-06T16:55:06.986Z</time>
      </trkpt>
      <trkpt lat="53.228878" lon="6.480516">
        <ele>40.791267</ele>
        <time>2026-05-06T16:55:08.980Z</time>
      </trkpt>
      <trkpt lat="53.228808" lon="6.480614">
        <ele>40.836889</ele>
        <time>2026-05-06T16:55:10.981Z</time>
      </trkpt>
      <trkpt lat="53.228739" lon="6.480712">
        <ele>40.882129</ele>
        <time>2026-05-06T16:55:12.988Z</time>
      </trkpt>
      <trkpt lat="53.228669" lon="6.480817">
        <ele>40.929124</ele>
        <time>2026-05-06T16:55:14.985Z</time>
      </trkpt>
      <trkpt lat="53.228591" lon="6.480907">
        <ele>40.976477</ele>
        <time>2026-05-06T16:55:16.984Z</time>
      </trkpt>
      <trkpt lat="53.228499" lon="6.480963">
        <ele>41.025389</ele>
        <time>2026-05-06T16:55:18.981Z</time>
      </trkpt>
      <trkpt lat="53.228408" lon="6.481026">
        <ele>41.074594</ele>
        <time>2026-05-06T16:55:20.986Z</time>
      </trkpt>
      <trkpt lat="53.228324" lon="6.481096">
        <ele>41.121485</ele>
        <time>2026-05-06T16:55:22.978Z</time>
      </trkpt>
      <trkpt lat="53.228229" lon="6.481162">
        <ele>41.172880</ele>
        <time>2026-05-06T16:55:24.983Z</time>
      </trkpt>
      <trkpt lat="53.228139" lon="6.481232">
        <ele>41.204038</ele>
        <time>2026-05-06T16:55:26.984Z</time>
      </trkpt>
      <trkpt lat="53.228042" lon="6.481307">
        <ele>41.218026</ele>
        <time>2026-05-06T16:55:28.984Z</time>
      </trkpt>
      <trkpt lat="53.227946" lon="6.481362">
        <ele>41.231307</ele>
        <time>2026-05-06T16:55:30.983Z</time>
      </trkpt>
      <trkpt lat="53.227852" lon="6.481414">
        <ele>41.244266</ele>
        <time>2026-05-06T16:55:32.982Z</time>
      </trkpt>
      <trkpt lat="53.227763" lon="6.481466">
        <ele>41.256605</ele>
        <time>2026-05-06T16:55:34.982Z</time>
      </trkpt>
      <trkpt lat="53.227666" lon="6.481509">
        <ele>41.269739</ele>
        <time>2026-05-06T16:55:36.984Z</time>
      </trkpt>
      <trkpt lat="53.227562" lon="6.481546">
        <ele>41.283654</ele>
        <time>2026-05-06T16:55:38.984Z</time>
      </trkpt>
      <trkpt lat="53.227457" lon="6.481583">
        <ele>41.297698</ele>
        <time>2026-05-06T16:55:40.982Z</time>
      </trkpt>
      <trkpt lat="53.227354" lon="6.481601">
        <ele>41.311251</ele>
        <time>2026-05-06T16:55:42.989Z</time>
      </trkpt>
      <trkpt lat="53.227254" lon="6.481612">
        <ele>41.324366</ele>
        <time>2026-05-06T16:55:44.982Z</time>
      </trkpt>
      <trkpt lat="53.227155" lon="6.481612">
        <ele>41.337322</ele>
        <time>2026-05-06T16:55:46.982Z</time>
      </trkpt>
      <trkpt lat="53.227063" lon="6.481612">
        <ele>41.349362</ele>
        <time>2026-05-06T16:55:48.981Z</time>
      </trkpt>
      <trkpt lat="53.226970" lon="6.481600">
        <ele>41.361568</ele>
        <time>2026-05-06T16:55:50.984Z</time>
      </trkpt>
      <trkpt lat="53.226871" lon="6.481585">
        <ele>41.374578</ele>
        <time>2026-05-06T16:55:52.988Z</time>
      </trkpt>
      <trkpt lat="53.226770" lon="6.481556">
        <ele>41.387989</ele>
        <time>2026-05-06T16:55:54.987Z</time>
      </trkpt>
      <trkpt lat="53.226672" lon="6.481535">
        <ele>41.400919</ele>
        <time>2026-05-06T16:55:56.983Z</time>
      </trkpt>
      <trkpt lat="53.226577" lon="6.481508">
        <ele>41.413530</ele>
        <time>2026-05-06T16:55:58.983Z</time>
      </trkpt>
      <trkpt lat="53.226475" lon="6.481484">
        <ele>41.427011</ele>
        <time>2026-05-06T16:56:00.986Z</time>
      </trkpt>
      <trkpt lat="53.226369" lon="6.481476">
        <ele>41.415546</ele>
        <time>2026-05-06T16:56:02.981Z</time>
      </trkpt>
      <trkpt lat="53.226266" lon="6.481469">
        <ele>41.386386</ele>
        <time>2026-05-06T16:56:04.986Z</time>
      </trkpt>
      <trkpt lat="53.226165" lon="6.481478">
        <ele>41.357774</ele>
        <time>2026-05-06T16:56:06.985Z</time>
      </trkpt>
      <trkpt lat="53.226065" lon="6.481513">
        <ele>41.328872</ele>
        <time>2026-05-06T16:56:08.984Z</time>
      </trkpt>
      <trkpt lat="53.225960" lon="6.481564">
        <ele>41.297939</ele>
        <time>2026-05-06T16:56:10.983Z</time>
      </trkpt>
      <trkpt lat="53.225855" lon="6.481634">
        <ele>41.265958</ele>
        <time>2026-05-06T16:56:12.985Z</time>
      </trkpt>
      <trkpt lat="53.225767" lon="6.481716">
        <ele>41.237453</ele>
        <time>2026-05-06T16:56:14.988Z</time>
      </trkpt>
      <trkpt lat="53.225689" lon="6.481813">
        <ele>41.209945</ele>
        <time>2026-05-06T16:56:16.994Z</time>
      </trkpt>
      <trkpt lat="53.225606" lon="6.481907">
        <ele>41.181578</ele>
        <time>2026-05-06T16:56:18.983Z</time>
      </trkpt>
      <trkpt lat="53.225530" lon="6.482029">
        <ele>41.151760</ele>
        <time>2026-05-06T16:56:20.984Z</time>
      </trkpt>
      <trkpt lat="53.225447" lon="6.482145">
        <ele>41.121147</ele>
        <time>2026-05-06T16:56:22.984Z</time>
      </trkpt>
      <trkpt lat="53.225374" lon="6.482258">
        <ele>41.092993</ele>
        <time>2026-05-06T16:56:24.991Z</time>
      </trkpt>
      <trkpt lat="53.225310" lon="6.482364">
        <ele>41.067497</ele>
        <time>2026-05-06T16:56:26.989Z</time>
      </trkpt>
      <trkpt lat="53.225237" lon="6.482469">
        <ele>41.040246</ele>
        <time>2026-05-06T16:56:28.997Z</time>
      </trkpt>
      <trkpt lat="53.225166" lon="6.482568">
        <ele>41.014083</ele>
        <time>2026-05-06T16:56:30.989Z</time>
      </trkpt>
      <trkpt lat="53.225101" lon="6.482676">
        <ele>40.988148</ele>
        <time>2026-05-06T16:56:32.989Z</time>
      </trkpt>
      <trkpt lat="53.225027" lon="6.482780">
        <ele>40.960791</ele>
        <time>2026-05-06T16:56:34.986Z</time>
      </trkpt>
      <trkpt lat="53.224953" lon="6.482886">
        <ele>40.933215</ele>
        <time>2026-05-06T16:56:36.988Z</time>
      </trkpt>
      <trkpt lat="53.224862" lon="6.482985">
        <ele>40.904266</ele>
        <time>2026-05-06T16:56:38.983Z</time>
      </trkpt>
      <trkpt lat="53.224769" lon="6.483046">
        <ele>40.878322</ele>
        <time>2026-05-06T16:56:40.981Z</time>
      </trkpt>
      <trkpt lat="53.224664" lon="6.483079">
        <ele>40.850579</ele>
        <time>2026-05-06T16:56:42.987Z</time>
      </trkpt>
      <trkpt lat="53.224561" lon="6.483107">
        <ele>40.823482</ele>
        <time>2026-05-06T16:56:44.986Z</time>
      </trkpt>
      <trkpt lat="53.224451" lon="6.483126">
        <ele>40.794767</ele>
        <time>2026-05-06T16:56:46.988Z</time>
      </trkpt>
      <trkpt lat="53.224349" lon="6.483127">
        <ele>40.768281</ele>
        <time>2026-05-06T16:56:48.981Z</time>
      </trkpt>
      <trkpt lat="53.224247" lon="6.483130">
        <ele>40.741792</ele>
        <time>2026-05-06T16:56:50.988Z</time>
      </trkpt>
      <trkpt lat="53.224152" lon="6.483138">
        <ele>40.717093</ele>
        <time>2026-05-06T16:56:52.988Z</time>
      </trkpt>
      <trkpt lat="53.224050" lon="6.483140">
        <ele>40.690605</ele>
        <time>2026-05-06T16:56:54.986Z</time>
      </trkpt>
      <trkpt lat="53.223958" lon="6.483143">
        <ele>40.666712</ele>
        <time>2026-05-06T16:56:56.986Z</time>
      </trkpt>
      <trkpt lat="53.223856" lon="6.483155">
        <ele>40.640161</ele>
        <time>2026-05-06T16:56:58.987Z</time>
      </trkpt>
      <trkpt lat="53.223751" lon="6.483178">
        <ele>40.612663</ele>
        <time>2026-05-06T16:57:00.980Z</time>
      </trkpt>
      <trkpt lat="53.223651" lon="6.483212">
        <ele>40.586165</ele>
        <time>2026-05-06T16:57:02.984Z</time>
      </trkpt>
      <trkpt lat="53.223545" lon="6.483268">
        <ele>40.557297</ele>
        <time>2026-05-06T16:57:04.985Z</time>
      </trkpt>
      <trkpt lat="53.223448" lon="6.483327">
        <ele>40.530491</ele>
        <time>2026-05-06T16:57:06.986Z</time>
      </trkpt>
      <trkpt lat="53.223357" lon="6.483392">
        <ele>40.504792</ele>
        <time>2026-05-06T16:57:08.981Z</time>
      </trkpt>
      <trkpt lat="53.223266" lon="6.483480">
        <ele>40.477489</ele>
        <time>2026-05-06T16:57:10.984Z</time>
      </trkpt>
      <trkpt lat="53.223179" lon="6.483584">
        <ele>40.472759</ele>
        <time>2026-05-06T16:57:12.983Z</time>
      </trkpt>
      <trkpt lat="53.223100" lon="6.483695">
        <ele>40.530254</ele>
        <time>2026-05-06T16:57:14.985Z</time>
      </trkpt>
      <trkpt lat="53.223022" lon="6.483805">
        <ele>40.587108</ele>
        <time>2026-05-06T16:57:16.984Z</time>
      </trkpt>
      <trkpt lat="53.222948" lon="6.483939">
        <ele>40.647893</ele>
        <time>2026-05-06T16:57:18.980Z</time>
      </trkpt>
      <trkpt lat="53.222884" lon="6.484050">
        <ele>40.699278</ele>
        <time>2026-05-06T16:57:20.984Z</time>
      </trkpt>
      <trkpt lat="53.222825" lon="6.484192">
        <ele>40.756911</ele>
        <time>2026-05-06T16:57:23.006Z</time>
      </trkpt>
      <trkpt lat="53.222770" lon="6.484349">
        <ele>40.817564</ele>
        <time>2026-05-06T16:57:24.986Z</time>
      </trkpt>
      <trkpt lat="53.222703" lon="6.484499">
        <ele>40.879965</ele>
        <time>2026-05-06T16:57:26.984Z</time>
      </trkpt>
      <trkpt lat="53.222653" lon="6.484648">
        <ele>40.936920</ele>
        <time>2026-05-06T16:57:28.989Z</time>
      </trkpt>
      <trkpt lat="53.222587" lon="6.484791">
        <ele>40.997125</ele>
        <time>2026-05-06T16:57:30.978Z</time>
      </trkpt>
      <trkpt lat="53.222533" lon="6.484918">
        <ele>41.049065</ele>
        <time>2026-05-06T16:57:32.990Z</time>
      </trkpt>
      <trkpt lat="53.222476" lon="6.485058">
        <ele>41.105518</ele>
        <time>2026-05-06T16:57:34.995Z</time>
      </trkpt>
      <trkpt lat="53.222409" lon="6.485192">
        <ele>41.163731</ele>
        <time>2026-05-06T16:57:36.988Z</time>
      </trkpt>
      <trkpt lat="53.222330" lon="6.485302">
        <ele>41.221012</ele>
        <time>2026-05-06T16:57:38.988Z</time>
      </trkpt>
      <trkpt lat="53.222239" lon="6.485409">
        <ele>41.282992</ele>
        <time>2026-05-06T16:57:40.988Z</time>
      </trkpt>
      <trkpt lat="53.222144" lon="6.485490">
        <ele>41.342396</ele>
        <time>2026-05-06T16:57:42.985Z</time>
      </trkpt>
      <trkpt lat="53.222047" lon="6.485540">
        <ele>41.398932</ele>
        <time>2026-05-06T16:57:44.988Z</time>
      </trkpt>
      <trkpt lat="53.221951" lon="6.485547">
        <ele>41.452449</ele>
        <time>2026-05-06T16:57:46.983Z</time>
      </trkpt>
      <trkpt lat="53.221851" lon="6.485506">
        <ele>41.487139</ele>
        <time>2026-05-06T16:57:48.983Z</time>
      </trkpt>
      <trkpt lat="53.221753" lon="6.485427">
        <ele>41.520837</ele>
        <time>2026-05-06T16:57:50.986Z</time>
      </trkpt>
      <trkpt lat="53.221680" lon="6.485321">
        <ele>41.550793</ele>
        <time>2026-05-06T16:57:52.985Z</time>
      </trkpt>
      <trkpt lat="53.221598" lon="6.485201">
        <ele>41.584554</ele>
        <time>2026-05-06T16:57:54.983Z</time>
      </trkpt>
      <trkpt lat="53.221525" lon="6.485080">
        <ele>41.616404</ele>
        <time>2026-05-06T16:57:56.986Z</time>
      </trkpt>
      <trkpt lat="53.221456" lon="6.484962">
        <ele>41.646986</ele>
        <time>2026-05-06T16:57:58.986Z</time>
      </trkpt>
      <trkpt lat="53.221387" lon="6.484838">
        <ele>41.678373</ele>
        <time>2026-05-06T16:58:00.985Z</time>
      </trkpt>
      <trkpt lat="53.221319" lon="6.484705">
        <ele>41.710801</ele>
        <time>2026-05-06T16:58:02.984Z</time>
      </trkpt>
      <trkpt lat="53.221255" lon="6.484580">
        <ele>41.741296</ele>
        <time>2026-05-06T16:58:04.985Z</time>
      </trkpt>
      <trkpt lat="53.221175" lon="6.484455">
        <ele>41.775221</ele>
        <time>2026-05-06T16:58:06.978Z</time>
      </trkpt>
      <trkpt lat="53.221102" lon="6.484334">
        <ele>41.807071</ele>
        <time>2026-05-06T16:58:08.985Z</time>
      </trkpt>
      <trkpt lat="53.221026" lon="6.484202">
        <ele>41.841025</ele>
        <time>2026-05-06T16:58:10.984Z</time>
      </trkpt>
      <trkpt lat="53.220951" lon="6.484068">
        <ele>41.875036</ele>
        <time>2026-05-06T16:58:12.983Z</time>
      </trkpt>
      <trkpt lat="53.220871" lon="6.483950">
        <ele>41.908088</ele>
        <time>2026-05-06T16:58:14.983Z</time>
      </trkpt>
      <trkpt lat="53.220787" lon="6.483838">
        <ele>41.941374</ele>
        <time>2026-05-06T16:58:16.986Z</time>
      </trkpt>
      <trkpt lat="53.220704" lon="6.483748">
        <ele>41.972019</ele>
        <time>2026-05-06T16:58:18.980Z</time>
      </trkpt>
      <trkpt lat="53.220611" lon="6.483664">
        <ele>42.004761</ele>
        <time>2026-05-06T16:58:20.990Z</time>
      </trkpt>
      <trkpt lat="53.220514" lon="6.483599">
        <ele>42.013407</ele>
        <time>2026-05-06T16:58:22.989Z</time>
      </trkpt>
      <trkpt lat="53.220413" lon="6.483555">
        <ele>42.009842</ele>
        <time>2026-05-06T16:58:24.991Z</time>
      </trkpt>
      <trkpt lat="53.220315" lon="6.483513">
        <ele>42.006387</ele>
        <time>2026-05-06T16:58:26.983Z</time>
      </trkpt>
      <trkpt lat="53.220211" lon="6.483492">
        <ele>42.002809</ele>
        <time>2026-05-06T16:58:28.989Z</time>
      </trkpt>
      <trkpt lat="53.220107" lon="6.483467">
        <ele>41.999220</ele>
        <time>2026-05-06T16:58:30.987Z</time>
      </trkpt>
      <trkpt lat="53.220000" lon="6.483457">
        <ele>41.995560</ele>
        <time>2026-05-06T16:58:32.997Z</time>
      </trkpt>
      <trkpt lat="53.219903" lon="6.483453">
        <ele>41.992246</ele>
        <time>2026-05-06T16:58:34.986Z</time>
      </trkpt>
      <trkpt lat="53.219803" lon="6.483464">
        <ele>41.988824</ele>
        <time>2026-05-06T16:58:36.986Z</time>
      </trkpt>
      <trkpt lat="53.219712" lon="6.483477">
        <ele>41.985704</ele>
        <time>2026-05-06T16:58:38.986Z</time>
      </trkpt>
      <trkpt lat="53.219608" lon="6.483499">
        <ele>41.982124</ele>
        <time>2026-05-06T16:58:40.980Z</time>
      </trkpt>
      <trkpt lat="53.219514" lon="6.483519">
        <ele>41.978888</ele>
        <time>2026-05-06T16:58:42.985Z</time>
      </trkpt>
      <trkpt lat="53.219424" lon="6.483551">
        <ele>41.975745</ele>
        <time>2026-05-06T16:58:44.990Z</time>
      </trkpt>
      <trkpt lat="53.219322" lon="6.483603">
        <ele>41.972103</ele>
        <time>2026-05-06T16:58:46.977Z</time>
      </trkpt>
      <trkpt lat="53.219220" lon="6.483645">
        <ele>41.968515</ele>
        <time>2026-05-06T16:58:48.993Z</time>
      </trkpt>
      <trkpt lat="53.219123" lon="6.483691">
        <ele>41.965071</ele>
        <time>2026-05-06T16:58:50.985Z</time>
      </trkpt>
      <trkpt lat="53.219030" lon="6.483724">
        <ele>41.961824</ele>
        <time>2026-05-06T16:58:52.989Z</time>
      </trkpt>
      <trkpt lat="53.218900" lon="6.483790">
        <ele>41.957183</ele>
        <time>2026-05-06T16:58:55.990Z</time>
      </trkpt>
      <trkpt lat="53.218815" lon="6.483843">
        <ele>41.957159</ele>
        <time>2026-05-06T16:58:57.985Z</time>
      </trkpt>
      <trkpt lat="53.218721" lon="6.483897">
        <ele>41.995655</ele>
        <time>2026-05-06T16:58:59.992Z</time>
      </trkpt>
      <trkpt lat="53.218624" lon="6.483959">
        <ele>42.035876</ele>
        <time>2026-05-06T16:59:01.983Z</time>
      </trkpt>
      <trkpt lat="53.218525" lon="6.484022">
        <ele>42.076904</ele>
        <time>2026-05-06T16:59:03.984Z</time>
      </trkpt>
      <trkpt lat="53.218439" lon="6.484073">
        <ele>42.112246</ele>
        <time>2026-05-06T16:59:05.986Z</time>
      </trkpt>
      <trkpt lat="53.218349" lon="6.484140">
        <ele>42.150405</ele>
        <time>2026-05-06T16:59:07.983Z</time>
      </trkpt>
      <trkpt lat="53.218266" lon="6.484195">
        <ele>42.184986</ele>
        <time>2026-05-06T16:59:09.986Z</time>
      </trkpt>
      <trkpt lat="53.218175" lon="6.484262">
        <ele>42.223499</ele>
        <time>2026-05-06T16:59:11.990Z</time>
      </trkpt>
      <trkpt lat="53.218081" lon="6.484337">
        <ele>42.263843</ele>
        <time>2026-05-06T16:59:13.988Z</time>
      </trkpt>
      <trkpt lat="53.217993" lon="6.484420">
        <ele>42.302981</ele>
        <time>2026-05-06T16:59:15.989Z</time>
      </trkpt>
      <trkpt lat="53.217911" lon="6.484497">
        <ele>42.339412</ele>
        <time>2026-05-06T16:59:17.985Z</time>
      </trkpt>
      <trkpt lat="53.217828" lon="6.484578">
        <ele>42.376640</ele>
        <time>2026-05-06T16:59:19.988Z</time>
      </trkpt>
      <trkpt lat="53.217743" lon="6.484663">
        <ele>42.415007</ele>
        <time>2026-05-06T16:59:21.987Z</time>
      </trkpt>
      <trkpt lat="53.217661" lon="6.484751">
        <ele>42.452754</ele>
        <time>2026-05-06T16:59:23.986Z</time>
      </trkpt>
      <trkpt lat="53.217585" lon="6.484834">
        <ele>42.487920</ele>
        <time>2026-05-06T16:59:25.986Z</time>
      </trkpt>
      <trkpt lat="53.217501" lon="6.484912">
        <ele>42.525140</ele>
        <time>2026-05-06T16:59:27.986Z</time>
      </trkpt>
      <trkpt lat="53.217424" lon="6.484994">
        <ele>42.560506</ele>
        <time>2026-05-06T16:59:29.985Z</time>
      </trkpt>
      <trkpt lat="53.217345" lon="6.485085">
        <ele>42.597671</ele>
        <time>2026-05-06T16:59:31.987Z</time>
      </trkpt>
      <trkpt lat="53.217260" lon="6.485174">
        <ele>42.636523</ele>
        <time>2026-05-06T16:59:33.986Z</time>
      </trkpt>
      <trkpt lat="53.217177" lon="6.485281">
        <ele>42.626691</ele>
        <time>2026-05-06T16:59:35.986Z</time>
      </trkpt>
      <trkpt lat="53.217098" lon="6.485397">
        <ele>42.589148</ele>
        <time>2026-05-06T16:59:37.985Z</time>
      </trkpt>
      <trkpt lat="53.217023" lon="6.485513">
        <ele>42.552666</ele>
        <time>2026-05-06T16:59:39.986Z</time>
      </trkpt>
      <trkpt lat="53.216930" lon="6.485683">
        <ele>42.503458</ele>
        <time>2026-05-06T16:59:42.987Z</time>
      </trkpt>
      <trkpt lat="53.216865" lon="6.485813">
        <ele>42.467265</ele>
        <time>2026-05-06T16:59:44.986Z</time>
      </trkpt>
      <trkpt lat="53.216806" lon="6.485953">
        <ele>42.430680</ele>
        <time>2026-05-06T16:59:46.985Z</time>
      </trkpt>
      <trkpt lat="53.216743" lon="6.486087">
        <ele>42.394272</ele>
        <time>2026-05-06T16:59:48.993Z</time>
      </trkpt>
      <trkpt lat="53.216685" lon="6.486211">
        <ele>42.360647</ele>
        <time>2026-05-06T16:59:50.991Z</time>
      </trkpt>
      <trkpt lat="53.216612" lon="6.486336">
        <ele>42.323333</ele>
        <time>2026-05-06T16:59:52.983Z</time>
      </trkpt>
      <trkpt lat="53.216520" lon="6.486399">
        <ele>42.287846</ele>
        <time>2026-05-06T16:59:54.983Z</time>
      </trkpt>
      <trkpt lat="53.216416" lon="6.486400">
        <ele>42.250729</ele>
        <time>2026-05-06T16:59:56.984Z</time>
      </trkpt>
      <trkpt lat="53.216322" lon="6.486330">
        <ele>42.213998</ele>
        <time>2026-05-06T16:59:58.991Z</time>
      </trkpt>
      <trkpt lat="53.216257" lon="6.486216">
        <ele>42.180358</ele>
        <time>2026-05-06T17:00:00.990Z</time>
      </trkpt>
      <trkpt lat="53.216220" lon="6.486068">
        <ele>42.146084</ele>
        <time>2026-05-06T17:00:02.985Z</time>
      </trkpt>
      <trkpt lat="53.216178" lon="6.485909">
        <ele>42.108946</ele>
        <time>2026-05-06T17:00:04.989Z</time>
      </trkpt>
      <trkpt lat="53.216107" lon="6.485771">
        <ele>42.070064</ele>
        <time>2026-05-06T17:00:06.983Z</time>
      </trkpt>
      <trkpt lat="53.216022" lon="6.485672">
        <ele>42.033079</ele>
        <time>2026-05-06T17:00:08.985Z</time>
      </trkpt>
      <trkpt lat="53.215920" lon="6.485611">
        <ele>42.008453</ele>
        <time>2026-05-06T17:00:10.983Z</time>
      </trkpt>
      <trkpt lat="53.215820" lon="6.485586">
        <ele>42.007183</ele>
        <time>2026-05-06T17:00:12.989Z</time>
      </trkpt>
      <trkpt lat="53.215715" lon="6.485599">
        <ele>42.005860</ele>
        <time>2026-05-06T17:00:14.988Z</time>
      </trkpt>
      <trkpt lat="53.215613" lon="6.485616">
        <ele>42.004572</ele>
        <time>2026-05-06T17:00:16.987Z</time>
      </trkpt>
      <trkpt lat="53.215513" lon="6.485634">
        <ele>42.003309</ele>
        <time>2026-05-06T17:00:18.988Z</time>
      </trkpt>
      <trkpt lat="53.215403" lon="6.485668">
        <ele>42.001904</ele>
        <time>2026-05-06T17:00:20.982Z</time>
      </trkpt>
      <trkpt lat="53.215296" lon="6.485699">
        <ele>42.000539</ele>
        <time>2026-05-06T17:00:22.986Z</time>
      </trkpt>
      <trkpt lat="53.215191" lon="6.485729">
        <ele>41.999201</ele>
        <time>2026-05-06T17:00:24.988Z</time>
      </trkpt>
      <trkpt lat="53.215090" lon="6.485748">
        <ele>41.997925</ele>
        <time>2026-05-06T17:00:26.986Z</time>
      </trkpt>
      <trkpt lat="53.214988" lon="6.485775">
        <ele>41.996627</ele>
        <time>2026-05-06T17:00:28.982Z</time>
      </trkpt>
      <trkpt lat="53.214891" lon="6.485799">
        <ele>41.995396</ele>
        <time>2026-05-06T17:00:30.982Z</time>
      </trkpt>
      <trkpt lat="53.214800" lon="6.485818">
        <ele>41.994244</ele>
        <time>2026-05-06T17:00:32.985Z</time>
      </trkpt>
      <trkpt lat="53.214705" lon="6.485836">
        <ele>41.993043</ele>
        <time>2026-05-06T17:00:34.987Z</time>
      </trkpt>
      <trkpt lat="53.214605" lon="6.485863">
        <ele>41.991770</ele>
        <time>2026-05-06T17:00:36.985Z</time>
      </trkpt>
      <trkpt lat="53.214497" lon="6.485881">
        <ele>41.990407</ele>
        <time>2026-05-06T17:00:38.985Z</time>
      </trkpt>
      <trkpt lat="53.214391" lon="6.485914">
        <ele>41.989052</ele>
        <time>2026-05-06T17:00:40.981Z</time>
      </trkpt>
      <trkpt lat="53.214290" lon="6.485937">
        <ele>41.987772</ele>
        <time>2026-05-06T17:00:42.981Z</time>
      </trkpt>
      <trkpt lat="53.214195" lon="6.485959">
        <ele>41.986567</ele>
        <time>2026-05-06T17:00:44.986Z</time>
      </trkpt>
      <trkpt lat="53.214065" lon="6.485997">
        <ele>42.140317</ele>
        <time>2026-05-06T17:00:47.984Z</time>
      </trkpt>
      <trkpt lat="53.213981" lon="6.486079">
        <ele>42.269021</ele>
        <time>2026-05-06T17:00:49.996Z</time>
      </trkpt>
      <trkpt lat="53.213919" lon="6.486217">
        <ele>42.405676</ele>
        <time>2026-05-06T17:00:51.984Z</time>
      </trkpt>
      <trkpt lat="53.213898" lon="6.486378">
        <ele>42.536195</ele>
        <time>2026-05-06T17:00:53.991Z</time>
      </trkpt>
      <trkpt lat="53.213916" lon="6.486527">
        <ele>42.656596</ele>
        <time>2026-05-06T17:00:55.986Z</time>
      </trkpt>
      <trkpt lat="53.213927" lon="6.486689">
        <ele>42.785739</ele>
        <time>2026-05-06T17:00:57.981Z</time>
      </trkpt>
      <trkpt lat="53.213950" lon="6.486840">
        <ele>42.909156</ele>
        <time>2026-05-06T17:00:59.990Z</time>
      </trkpt>
      <trkpt lat="53.213954" lon="6.487000">
        <ele>43.036003</ele>
        <time>2026-05-06T17:01:01.987Z</time>
      </trkpt>
      <trkpt lat="53.213975" lon="6.487161">
        <ele>43.166522</ele>
        <time>2026-05-06T17:01:03.981Z</time>
      </trkpt>
      <trkpt lat="53.214000" lon="6.487322">
        <ele>43.298268</ele>
        <time>2026-05-06T17:01:05.994Z</time>
      </trkpt>
      <trkpt lat="53.214024" lon="6.487480">
        <ele>43.427384</ele>
        <time>2026-05-06T17:01:07.989Z</time>
      </trkpt>
      <trkpt lat="53.214040" lon="6.487643">
        <ele>43.558220</ele>
        <time>2026-05-06T17:01:09.985Z</time>
      </trkpt>
      <trkpt lat="53.214054" lon="6.487799">
        <ele>43.683167</ele>
        <time>2026-05-06T17:01:11.988Z</time>
      </trkpt>
      <trkpt lat="53.214081" lon="6.488034">
        <ele>43.872707</ele>
        <time>2026-05-06T17:01:14.988Z</time>
      </trkpt>
      <trkpt lat="53.214105" lon="6.488202">
        <ele>44.009514</ele>
        <time>2026-05-06T17:01:16.982Z</time>
      </trkpt>
      <trkpt lat="53.214130" lon="6.488349">
        <ele>44.130558</ele>
        <time>2026-05-06T17:01:18.988Z</time>
      </trkpt>
      <trkpt lat="53.214147" lon="6.488506">
        <ele>44.256934</ele>
        <time>2026-05-06T17:01:20.984Z</time>
      </trkpt>
      <trkpt lat="53.214165" lon="6.488655">
        <ele>44.364300</ele>
        <time>2026-05-06T17:01:22.980Z</time>
      </trkpt>
      <trkpt lat="53.214188" lon="6.488864">
        <ele>44.346657</ele>
        <time>2026-05-06T17:01:25.987Z</time>
      </trkpt>
      <trkpt lat="53.214187" lon="6.489071">
        <ele>44.329469</ele>
        <time>2026-05-06T17:01:28.987Z</time>
      </trkpt>
      <trkpt lat="53.214204" lon="6.489267">
        <ele>44.313026</ele>
        <time>2026-05-06T17:01:31.983Z</time>
      </trkpt>
      <trkpt lat="53.214271" lon="6.489442">
        <ele>44.295780</ele>
        <time>2026-05-06T17:01:34.985Z</time>
      </trkpt>
      <trkpt lat="53.214330" lon="6.489646">
        <ele>44.276971</ele>
        <time>2026-05-06T17:01:37.988Z</time>
      </trkpt>
      <trkpt lat="53.214355" lon="6.489863">
        <ele>44.258623</ele>
        <time>2026-05-06T17:01:40.985Z</time>
      </trkpt>
      <trkpt lat="53.214370" lon="6.490026">
        <ele>44.244931</ele>
        <time>2026-05-06T17:01:42.986Z</time>
      </trkpt>
      <trkpt lat="53.214379" lon="6.490247">
        <ele>44.226540</ele>
        <time>2026-05-06T17:01:45.986Z</time>
      </trkpt>
      <trkpt lat="53.214352" lon="6.490468">
        <ele>44.207813</ele>
        <time>2026-05-06T17:01:48.986Z</time>
      </trkpt>
      <trkpt lat="53.214319" lon="6.490612">
        <ele>44.195011</ele>
        <time>2026-05-06T17:01:50.984Z</time>
      </trkpt>
      <trkpt lat="53.214270" lon="6.490752">
        <ele>44.181547</ele>
        <time>2026-05-06T17:01:52.983Z</time>
      </trkpt>
      <trkpt lat="53.214223" lon="6.490884">
        <ele>44.168797</ele>
        <time>2026-05-06T17:01:54.985Z</time>
      </trkpt>
      <trkpt lat="53.214177" lon="6.491019">
        <ele>44.155900</ele>
        <time>2026-05-06T17:01:56.991Z</time>
      </trkpt>
      <trkpt lat="53.214131" lon="6.491148">
        <ele>44.143435</ele>
        <time>2026-05-06T17:01:58.991Z</time>
      </trkpt>
      <trkpt lat="53.214090" lon="6.491292">
        <ele>44.130196</ele>
        <time>2026-05-06T17:02:00.984Z</time>
      </trkpt>
      <trkpt lat="53.214069" lon="6.491456">
        <ele>44.116272</ele>
        <time>2026-05-06T17:02:02.984Z</time>
      </trkpt>
      <trkpt lat="53.214067" lon="6.491631">
        <ele>44.089355</ele>
        <time>2026-05-06T17:02:04.983Z</time>
      </trkpt>
      <trkpt lat="53.214084" lon="6.491791">
        <ele>44.064271</ele>
        <time>2026-05-06T17:02:06.986Z</time>
      </trkpt>
      <trkpt lat="53.214107" lon="6.491946">
        <ele>44.039620</ele>
        <time>2026-05-06T17:02:08.981Z</time>
      </trkpt>
      <trkpt lat="53.214139" lon="6.492105">
        <ele>44.013727</ele>
        <time>2026-05-06T17:02:10.981Z</time>
      </trkpt>
      <trkpt lat="53.214173" lon="6.492262">
        <ele>43.987956</ele>
        <time>2026-05-06T17:02:12.987Z</time>
      </trkpt>
      <trkpt lat="53.214205" lon="6.492408">
        <ele>43.963957</ele>
        <time>2026-05-06T17:02:14.988Z</time>
      </trkpt>
      <trkpt lat="53.214231" lon="6.492570">
        <ele>43.938067</ele>
        <time>2026-05-06T17:02:16.989Z</time>
      </trkpt>
      <trkpt lat="53.214267" lon="6.492724">
        <ele>43.912548</ele>
        <time>2026-05-06T17:02:18.985Z</time>
      </trkpt>
      <trkpt lat="53.214302" lon="6.492875">
        <ele>43.887554</ele>
        <time>2026-05-06T17:02:20.984Z</time>
      </trkpt>
      <trkpt lat="53.214348" lon="6.493085">
        <ele>43.853037</ele>
        <time>2026-05-06T17:02:23.986Z</time>
      </trkpt>
      <trkpt lat="53.214384" lon="6.493239">
        <ele>43.827518</ele>
        <time>2026-05-06T17:02:25.996Z</time>
      </trkpt>
      <trkpt lat="53.214429" lon="6.493467">
        <ele>43.790460</ele>
        <time>2026-05-06T17:02:28.987Z</time>
      </trkpt>
      <trkpt lat="53.214472" lon="6.493611">
        <ele>43.765622</ele>
        <time>2026-05-06T17:02:30.986Z</time>
      </trkpt>
      <trkpt lat="53.214513" lon="6.493794">
        <ele>43.735461</ele>
        <time>2026-05-06T17:02:33.985Z</time>
      </trkpt>
      <trkpt lat="53.214547" lon="6.493951">
        <ele>43.709690</ele>
        <time>2026-05-06T17:02:36.985Z</time>
      </trkpt>
      <trkpt lat="53.214589" lon="6.494130">
        <ele>43.680013</ele>
        <time>2026-05-06T17:02:39.984Z</time>
      </trkpt>
      <trkpt lat="53.214633" lon="6.494352">
        <ele>43.649795</ele>
        <time>2026-05-06T17:02:42.985Z</time>
      </trkpt>
      <trkpt lat="53.214666" lon="6.494559">
        <ele>43.639370</ele>
        <time>2026-05-06T17:02:45.980Z</time>
      </trkpt>
      <trkpt lat="53.214706" lon="6.494716">
        <ele>43.631067</ele>
        <time>2026-05-06T17:02:47.983Z</time>
      </trkpt>
      <trkpt lat="53.214768" lon="6.494909">
        <ele>43.620409</ele>
        <time>2026-05-06T17:02:50.985Z</time>
      </trkpt>
      <trkpt lat="53.214800" lon="6.495061">
        <ele>43.612568</ele>
        <time>2026-05-06T17:02:52.991Z</time>
      </trkpt>
      <trkpt lat="53.214840" lon="6.495272">
        <ele>43.601798</ele>
        <time>2026-05-06T17:02:55.992Z</time>
      </trkpt>
      <trkpt lat="53.214866" lon="6.495419">
        <ele>43.594338</ele>
        <time>2026-05-06T17:02:57.992Z</time>
      </trkpt>
      <trkpt lat="53.214915" lon="6.495628">
        <ele>43.583416</ele>
        <time>2026-05-06T17:03:00.989Z</time>
      </trkpt>
      <trkpt lat="53.214960" lon="6.495820">
        <ele>43.573382</ele>
        <time>2026-05-06T17:03:03.984Z</time>
      </trkpt>
      <trkpt lat="53.215020" lon="6.496005">
        <ele>43.563143</ele>
        <time>2026-05-06T17:03:06.982Z</time>
      </trkpt>
      <trkpt lat="53.215084" lon="6.496195">
        <ele>43.552535</ele>
        <time>2026-05-06T17:03:09.985Z</time>
      </trkpt>
      <trkpt lat="53.215120" lon="6.496395">
        <ele>43.542372</ele>
        <time>2026-05-06T17:03:12.987Z</time>
      </trkpt>
      <trkpt lat="53.215161" lon="6.496590">
        <ele>43.532314</ele>
        <time>2026-05-06T17:03:15.987Z</time>
      </trkpt>
      <trkpt lat="53.215203" lon="6.496785">
        <ele>43.522230</ele>
        <time>2026-05-06T17:03:18.986Z</time>
      </trkpt>
      <trkpt lat="53.215228" lon="6.496971">
        <ele>43.512953</ele>
        <time>2026-05-06T17:03:21.985Z</time>
      </trkpt>
      <trkpt lat="53.215274" lon="6.497150">
        <ele>43.525671</ele>
        <time>2026-05-06T17:03:24.988Z</time>
      </trkpt>
      <trkpt lat="53.215321" lon="6.497350">
        <ele>43.596477</ele>
        <time>2026-05-06T17:03:27.993Z</time>
      </trkpt>
      <trkpt lat="53.215349" lon="6.497496">
        <ele>43.647000</ele>
        <time>2026-05-06T17:03:29.980Z</time>
      </trkpt>
      <trkpt lat="53.215397" lon="6.497703">
        <ele>43.720155</ele>
        <time>2026-05-06T17:03:32.985Z</time>
      </trkpt>
      <trkpt lat="53.215446" lon="6.497892">
        <ele>43.788029</ele>
        <time>2026-05-06T17:03:35.984Z</time>
      </trkpt>
      <trkpt lat="53.215478" lon="6.498035">
        <ele>43.838338</ele>
        <time>2026-05-06T17:03:37.992Z</time>
      </trkpt>
      <trkpt lat="53.215512" lon="6.498184">
        <ele>43.890887</ele>
        <time>2026-05-06T17:03:39.985Z</time>
      </trkpt>
      <trkpt lat="53.215547" lon="6.498337">
        <ele>43.944863</ele>
        <time>2026-05-06T17:03:41.984Z</time>
      </trkpt>
      <trkpt lat="53.215584" lon="6.498550">
        <ele>44.017953</ele>
        <time>2026-05-06T17:03:44.983Z</time>
      </trkpt>
      <trkpt lat="53.215625" lon="6.498747">
        <ele>44.086685</ele>
        <time>2026-05-06T17:03:47.985Z</time>
      </trkpt>
      <trkpt lat="53.215661" lon="6.498898">
        <ele>44.140247</ele>
        <time>2026-05-06T17:03:49.983Z</time>
      </trkpt>
      <trkpt lat="53.215685" lon="6.499050">
        <ele>44.192052</ele>
        <time>2026-05-06T17:03:51.985Z</time>
      </trkpt>
      <trkpt lat="53.215734" lon="6.499255">
        <ele>44.264795</ele>
        <time>2026-05-06T17:03:54.984Z</time>
      </trkpt>
      <trkpt lat="53.215769" lon="6.499400">
        <ele>44.316317</ele>
        <time>2026-05-06T17:03:56.990Z</time>
      </trkpt>
      <trkpt lat="53.215808" lon="6.499545">
        <ele>44.368701</ele>
        <time>2026-05-06T17:03:58.986Z</time>
      </trkpt>
      <trkpt lat="53.215840" lon="6.499686">
        <ele>44.418394</ele>
        <time>2026-05-06T17:04:00.985Z</time>
      </trkpt>
      <trkpt lat="53.215872" lon="6.499836">
        <ele>44.470871</ele>
        <time>2026-05-06T17:04:02.987Z</time>
      </trkpt>
      <trkpt lat="53.215902" lon="6.499980">
        <ele>44.471112</ele>
        <time>2026-05-06T17:04:04.989Z</time>
      </trkpt>
      <trkpt lat="53.215940" lon="6.500119">
        <ele>44.420306</ele>
        <time>2026-05-06T17:04:06.980Z</time>
      </trkpt>
      <trkpt lat="53.215989" lon="6.500304">
        <ele>44.353044</ele>
        <time>2026-05-06T17:04:09.984Z</time>
      </trkpt>
      <trkpt lat="53.216034" lon="6.500480">
        <ele>44.289413</ele>
        <time>2026-05-06T17:04:12.988Z</time>
      </trkpt>
      <trkpt lat="53.216028" lon="6.500659">
        <ele>44.229803</ele>
        <time>2026-05-06T17:04:27.986Z</time>
      </trkpt>
      <trkpt lat="53.216074" lon="6.500803">
        <ele>44.175536</ele>
        <time>2026-05-06T17:04:30.987Z</time>
      </trkpt>
      <trkpt lat="53.216103" lon="6.501003">
        <ele>44.107114</ele>
        <time>2026-05-06T17:04:33.985Z</time>
      </trkpt>
      <trkpt lat="53.216124" lon="6.501218">
        <ele>44.034683</ele>
        <time>2026-05-06T17:04:36.985Z</time>
      </trkpt>
      <trkpt lat="53.216154" lon="6.501425">
        <ele>43.963868</ele>
        <time>2026-05-06T17:04:39.991Z</time>
      </trkpt>
      <trkpt lat="53.216187" lon="6.501638">
        <ele>43.890714</ele>
        <time>2026-05-06T17:04:42.984Z</time>
      </trkpt>
      <trkpt lat="53.216215" lon="6.501842">
        <ele>43.821126</ele>
        <time>2026-05-06T17:04:45.983Z</time>
      </trkpt>
      <trkpt lat="53.216240" lon="6.502053">
        <ele>43.749609</ele>
        <time>2026-05-06T17:04:48.984Z</time>
      </trkpt>
      <trkpt lat="53.216257" lon="6.502272">
        <ele>43.676182</ele>
        <time>2026-05-06T17:04:51.985Z</time>
      </trkpt>
      <trkpt lat="53.216275" lon="6.502477">
        <ele>43.607292</ele>
        <time>2026-05-06T17:04:54.989Z</time>
      </trkpt>
      <trkpt lat="53.216297" lon="6.502690">
        <ele>43.535424</ele>
        <time>2026-05-06T17:04:57.983Z</time>
      </trkpt>
      <trkpt lat="53.216308" lon="6.502844">
        <ele>43.479728</ele>
        <time>2026-05-06T17:04:59.988Z</time>
      </trkpt>
      <trkpt lat="53.216319" lon="6.503002">
        <ele>43.410816</ele>
        <time>2026-05-06T17:05:01.987Z</time>
      </trkpt>
      <trkpt lat="53.216338" lon="6.503220">
        <ele>43.315375</ele>
        <time>2026-05-06T17:05:04.983Z</time>
      </trkpt>
      <trkpt lat="53.216356" lon="6.503422">
        <ele>43.226898</ele>
        <time>2026-05-06T17:05:07.984Z</time>
      </trkpt>
      <trkpt lat="53.216370" lon="6.503607">
        <ele>43.146112</ele>
        <time>2026-05-06T17:05:10.986Z</time>
      </trkpt>
      <trkpt lat="53.216391" lon="6.503818">
        <ele>43.053445</ele>
        <time>2026-05-06T17:05:13.986Z</time>
      </trkpt>
      <trkpt lat="53.216402" lon="6.503972">
        <ele>42.986254</ele>
        <time>2026-05-06T17:05:15.986Z</time>
      </trkpt>
      <trkpt lat="53.216410" lon="6.504191">
        <ele>42.891199</ele>
        <time>2026-05-06T17:05:18.987Z</time>
      </trkpt>
      <trkpt lat="53.216414" lon="6.504419">
        <ele>42.792379</ele>
        <time>2026-05-06T17:05:21.985Z</time>
      </trkpt>
      <trkpt lat="53.216412" lon="6.504584">
        <ele>42.720880</ele>
        <time>2026-05-06T17:05:23.990Z</time>
      </trkpt>
      <trkpt lat="53.216409" lon="6.504742">
        <ele>42.652395</ele>
        <time>2026-05-06T17:05:25.987Z</time>
      </trkpt>
      <trkpt lat="53.216411" lon="6.504901">
        <ele>42.583495</ele>
        <time>2026-05-06T17:05:27.985Z</time>
      </trkpt>
      <trkpt lat="53.216407" lon="6.505070">
        <ele>42.510221</ele>
        <time>2026-05-06T17:05:29.985Z</time>
      </trkpt>
      <trkpt lat="53.216409" lon="6.505223">
        <ele>42.443920</ele>
        <time>2026-05-06T17:05:31.984Z</time>
      </trkpt>
      <trkpt lat="53.216408" lon="6.505386">
        <ele>42.373299</ele>
        <time>2026-05-06T17:05:33.985Z</time>
      </trkpt>
      <trkpt lat="53.216411" lon="6.505554">
        <ele>42.300484</ele>
        <time>2026-05-06T17:05:35.984Z</time>
      </trkpt>
      <trkpt lat="53.216407" lon="6.505784">
        <ele>42.200797</ele>
        <time>2026-05-06T17:05:38.993Z</time>
      </trkpt>
      <trkpt lat="53.216404" lon="6.505941">
        <ele>42.193830</ele>
        <time>2026-05-06T17:05:40.986Z</time>
      </trkpt>
      <trkpt lat="53.216407" lon="6.506106">
        <ele>42.191220</ele>
        <time>2026-05-06T17:05:42.985Z</time>
      </trkpt>
      <trkpt lat="53.216410" lon="6.506268">
        <ele>42.188658</ele>
        <time>2026-05-06T17:05:44.999Z</time>
      </trkpt>
      <trkpt lat="53.216409" lon="6.506421">
        <ele>42.186239</ele>
        <time>2026-05-06T17:05:46.985Z</time>
      </trkpt>
      <trkpt lat="53.216428" lon="6.506580">
        <ele>42.183676</ele>
        <time>2026-05-06T17:05:48.989Z</time>
      </trkpt>
      <trkpt lat="53.216444" lon="6.506736">
        <ele>42.181174</ele>
        <time>2026-05-06T17:05:50.989Z</time>
      </trkpt>
      <trkpt lat="53.216465" lon="6.506892">
        <ele>42.178647</ele>
        <time>2026-05-06T17:05:52.991Z</time>
      </trkpt>
      <trkpt lat="53.216481" lon="6.507046">
        <ele>42.176176</ele>
        <time>2026-05-06T17:05:54.983Z</time>
      </trkpt>
      <trkpt lat="53.216494" lon="6.507215">
        <ele>42.173483</ele>
        <time>2026-05-06T17:05:56.983Z</time>
      </trkpt>
      <trkpt lat="53.216514" lon="6.507362">
        <ele>42.171100</ele>
        <time>2026-05-06T17:05:58.983Z</time>
      </trkpt>
      <trkpt lat="53.216538" lon="6.507517">
        <ele>42.168569</ele>
        <time>2026-05-06T17:06:00.979Z</time>
      </trkpt>
      <trkpt lat="53.216562" lon="6.507671">
        <ele>42.166054</ele>
        <time>2026-05-06T17:06:02.986Z</time>
      </trkpt>
      <trkpt lat="53.216581" lon="6.507823">
        <ele>42.163599</ele>
        <time>2026-05-06T17:06:04.981Z</time>
      </trkpt>
      <trkpt lat="53.216611" lon="6.508043">
        <ele>42.160032</ele>
        <time>2026-05-06T17:06:07.987Z</time>
      </trkpt>
      <trkpt lat="53.216645" lon="6.508263">
        <ele>42.156441</ele>
        <time>2026-05-06T17:06:10.981Z</time>
      </trkpt>
      <trkpt lat="53.216716" lon="6.508442">
        <ele>42.153047</ele>
        <time>2026-05-06T17:06:13.995Z</time>
      </trkpt>
      <trkpt lat="53.216821" lon="6.508575">
        <ele>42.149568</ele>
        <time>2026-05-06T17:06:16.981Z</time>
      </trkpt>
      <trkpt lat="53.216937" lon="6.508676">
        <ele>42.057665</ele>
        <time>2026-05-06T17:06:19.986Z</time>
      </trkpt>
      <trkpt lat="53.217044" lon="6.508759">
        <ele>41.946353</ele>
        <time>2026-05-06T17:06:22.986Z</time>
      </trkpt>
      <trkpt lat="53.217147" lon="6.508688">
        <ele>41.841221</ele>
        <time>2026-05-06T17:06:25.994Z</time>
      </trkpt>
      <trkpt lat="53.217226" lon="6.508581">
        <ele>41.745254</ele>
        <time>2026-05-06T17:06:28.983Z</time>
      </trkpt>
      <trkpt lat="53.217205" lon="6.508784">
        <ele>41.628871</ele>
        <time>2026-05-06T17:06:32.992Z</time>
      </trkpt>
      <trkpt lat="53.217144" lon="6.508988">
        <ele>41.500051</ele>
        <time>2026-05-06T17:06:35.992Z</time>
      </trkpt>
      <trkpt lat="53.217098" lon="6.509175">
        <ele>41.385839</ele>
        <time>2026-05-06T17:06:38.990Z</time>
      </trkpt>
      <trkpt lat="53.217049" lon="6.509349">
        <ele>41.277209</ele>
        <time>2026-05-06T17:06:41.983Z</time>
      </trkpt>
      <trkpt lat="53.216996" lon="6.509537">
        <ele>41.159816</ele>
        <time>2026-05-06T17:06:44.986Z</time>
      </trkpt>
      <trkpt lat="53.216955" lon="6.509750">
        <ele>41.033418</ele>
        <time>2026-05-06T17:06:47.984Z</time>
      </trkpt>
      <trkpt lat="53.216936" lon="6.509901">
        <ele>40.946247</ele>
        <time>2026-05-06T17:06:49.989Z</time>
      </trkpt>
      <trkpt lat="53.216898" lon="6.510115">
        <ele>40.820144</ele>
        <time>2026-05-06T17:06:52.984Z</time>
      </trkpt>
      <trkpt lat="53.216874" lon="6.510263">
        <ele>40.733520</ele>
        <time>2026-05-06T17:06:54.983Z</time>
      </trkpt>
      <trkpt lat="53.216850" lon="6.510408">
        <ele>40.648530</ele>
        <time>2026-05-06T17:06:56.989Z</time>
      </trkpt>
      <trkpt lat="53.216824" lon="6.510600">
        <ele>40.537320</ele>
        <time>2026-05-06T17:06:59.984Z</time>
      </trkpt>
      <trkpt lat="53.216798" lon="6.510794">
        <ele>40.457550</ele>
        <time>2026-05-06T17:07:02.989Z</time>
      </trkpt>
      <trkpt lat="53.216766" lon="6.510992">
        <ele>40.483157</ele>
        <time>2026-05-06T17:07:05.995Z</time>
      </trkpt>
      <trkpt lat="53.216735" lon="6.511141">
        <ele>40.502852</ele>
        <time>2026-05-06T17:07:07.986Z</time>
      </trkpt>
      <trkpt lat="53.216712" lon="6.511357">
        <ele>40.530244</ele>
        <time>2026-05-06T17:07:10.985Z</time>
      </trkpt>
      <trkpt lat="53.216683" lon="6.511570">
        <ele>40.557518</ele>
        <time>2026-05-06T17:07:13.986Z</time>
      </trkpt>
      <trkpt lat="53.216662" lon="6.511722">
        <ele>40.576995</ele>
        <time>2026-05-06T17:07:15.987Z</time>
      </trkpt>
      <trkpt lat="53.216635" lon="6.511869">
        <ele>40.596193</ele>
        <time>2026-05-06T17:07:17.986Z</time>
      </trkpt>
      <trkpt lat="53.216594" lon="6.512075">
        <ele>40.623297</ele>
        <time>2026-05-06T17:07:20.987Z</time>
      </trkpt>
      <trkpt lat="53.216569" lon="6.512224">
        <ele>40.642618</ele>
        <time>2026-05-06T17:07:22.985Z</time>
      </trkpt>
      <trkpt lat="53.216537" lon="6.512369">
        <ele>40.661913</ele>
        <time>2026-05-06T17:07:24.985Z</time>
      </trkpt>
      <trkpt lat="53.216512" lon="6.512545">
        <ele>40.684498</ele>
        <time>2026-05-06T17:07:27.985Z</time>
      </trkpt>
      <trkpt lat="53.216436" lon="6.512629">
        <ele>40.703501</ele>
        <time>2026-05-06T17:07:32.991Z</time>
      </trkpt>
      <trkpt lat="53.216314" lon="6.512596">
        <ele>40.729272</ele>
        <time>2026-05-06T17:07:36.992Z</time>
      </trkpt>
      <trkpt lat="53.216207" lon="6.512678">
        <ele>40.753820</ele>
        <time>2026-05-06T17:07:39.989Z</time>
      </trkpt>
      <trkpt lat="53.216154" lon="6.512835">
        <ele>40.776324</ele>
        <time>2026-05-06T17:07:42.985Z</time>
      </trkpt>
      <trkpt lat="53.216151" lon="6.513001">
        <ele>40.797060</ele>
        <time>2026-05-06T17:07:48.985Z</time>
      </trkpt>
      <trkpt lat="53.216192" lon="6.513141">
        <ele>40.816519</ele>
        <time>2026-05-06T17:07:51.989Z</time>
      </trkpt>
      <trkpt lat="53.216273" lon="6.513236">
        <ele>40.826507</ele>
        <time>2026-05-06T17:07:54.995Z</time>
      </trkpt>
      <trkpt lat="53.216352" lon="6.513355">
        <ele>40.826081</ele>
        <time>2026-05-06T17:07:58.987Z</time>
      </trkpt>
      <trkpt lat="53.216305" lon="6.513557">
        <ele>40.825562</ele>
        <time>2026-05-06T17:08:01.988Z</time>
      </trkpt>
      <trkpt lat="53.216266" lon="6.513749">
        <ele>40.825076</ele>
        <time>2026-05-06T17:08:04.987Z</time>
      </trkpt>
      <trkpt lat="53.216224" lon="6.513929">
        <ele>40.824613</ele>
        <time>2026-05-06T17:08:07.987Z</time>
      </trkpt>
      <trkpt lat="53.216186" lon="6.514134">
        <ele>40.824098</ele>
        <time>2026-05-06T17:08:10.988Z</time>
      </trkpt>
      <trkpt lat="53.216157" lon="6.514277">
        <ele>40.823737</ele>
        <time>2026-05-06T17:08:12.984Z</time>
      </trkpt>
      <trkpt lat="53.216125" lon="6.514422">
        <ele>40.823366</ele>
        <time>2026-05-06T17:08:14.986Z</time>
      </trkpt>
      <trkpt lat="53.216087" lon="6.514568">
        <ele>40.822984</ele>
        <time>2026-05-06T17:08:16.986Z</time>
      </trkpt>
      <trkpt lat="53.216056" lon="6.514768">
        <ele>40.822489</ele>
        <time>2026-05-06T17:08:19.985Z</time>
      </trkpt>
      <trkpt lat="53.216011" lon="6.514971">
        <ele>40.821970</ele>
        <time>2026-05-06T17:08:22.984Z</time>
      </trkpt>
      <trkpt lat="53.215983" lon="6.515120">
        <ele>40.821596</ele>
        <time>2026-05-06T17:08:24.985Z</time>
      </trkpt>
      <trkpt lat="53.215943" lon="6.515334">
        <ele>40.821059</ele>
        <time>2026-05-06T17:08:27.984Z</time>
      </trkpt>
      <trkpt lat="53.215892" lon="6.515549">
        <ele>40.820504</ele>
        <time>2026-05-06T17:08:30.992Z</time>
      </trkpt>
      <trkpt lat="53.215856" lon="6.515750">
        <ele>40.820001</ele>
        <time>2026-05-06T17:08:33.983Z</time>
      </trkpt>
      <trkpt lat="53.215823" lon="6.515895">
        <ele>40.819630</ele>
        <time>2026-05-06T17:08:35.986Z</time>
      </trkpt>
      <trkpt lat="53.215794" lon="6.516040">
        <ele>40.852933</ele>
        <time>2026-05-06T17:08:37.986Z</time>
      </trkpt>
      <trkpt lat="53.215770" lon="6.516190">
        <ele>40.903808</ele>
        <time>2026-05-06T17:08:39.983Z</time>
      </trkpt>
      <trkpt lat="53.215752" lon="6.516342">
        <ele>40.954578</ele>
        <time>2026-05-06T17:08:41.991Z</time>
      </trkpt>
      <trkpt lat="53.215732" lon="6.516490">
        <ele>41.004292</ele>
        <time>2026-05-06T17:08:43.985Z</time>
      </trkpt>
      <trkpt lat="53.215702" lon="6.516690">
        <ele>41.071851</ele>
        <time>2026-05-06T17:08:46.983Z</time>
      </trkpt>
      <trkpt lat="53.215677" lon="6.516839">
        <ele>41.122554</ele>
        <time>2026-05-06T17:08:48.990Z</time>
      </trkpt>
      <trkpt lat="53.215639" lon="6.517052">
        <ele>41.195379</ele>
        <time>2026-05-06T17:08:51.990Z</time>
      </trkpt>
      <trkpt lat="53.215613" lon="6.517203">
        <ele>41.246862</ele>
        <time>2026-05-06T17:08:53.988Z</time>
      </trkpt>
      <trkpt lat="53.215573" lon="6.517417">
        <ele>41.320320</ele>
        <time>2026-05-06T17:08:56.996Z</time>
      </trkpt>
      <trkpt lat="53.215543" lon="6.517566">
        <ele>41.371829</ele>
        <time>2026-05-06T17:08:58.988Z</time>
      </trkpt>
      <trkpt lat="53.215505" lon="6.517721">
        <ele>41.426709</ele>
        <time>2026-05-06T17:09:00.986Z</time>
      </trkpt>
      <trkpt lat="53.215478" lon="6.517879">
        <ele>41.480548</ele>
        <time>2026-05-06T17:09:02.984Z</time>
      </trkpt>
      <trkpt lat="53.215451" lon="6.518026">
        <ele>41.530930</ele>
        <time>2026-05-06T17:09:05.004Z</time>
      </trkpt>
      <trkpt lat="53.215424" lon="6.518182">
        <ele>41.584139</ele>
        <time>2026-05-06T17:09:06.988Z</time>
      </trkpt>
      <trkpt lat="53.215401" lon="6.518343">
        <ele>41.638375</ele>
        <time>2026-05-06T17:09:08.988Z</time>
      </trkpt>
      <trkpt lat="53.215377" lon="6.518507">
        <ele>41.693694</ele>
        <time>2026-05-06T17:09:10.994Z</time>
      </trkpt>
      <trkpt lat="53.215359" lon="6.518675">
        <ele>41.749617</ele>
        <time>2026-05-06T17:09:12.986Z</time>
      </trkpt>
      <trkpt lat="53.215338" lon="6.518828">
        <ele>41.801051</ele>
        <time>2026-05-06T17:09:14.990Z</time>
      </trkpt>
      <trkpt lat="53.215321" lon="6.519050">
        <ele>41.802597</ele>
        <time>2026-05-06T17:09:17.982Z</time>
      </trkpt>
      <trkpt lat="53.215306" lon="6.519211">
        <ele>41.801739</ele>
        <time>2026-05-06T17:09:19.985Z</time>
      </trkpt>
      <trkpt lat="53.215292" lon="6.519364">
        <ele>41.800923</ele>
        <time>2026-05-06T17:09:21.987Z</time>
      </trkpt>
      <trkpt lat="53.215271" lon="6.519591">
        <ele>41.799713</ele>
        <time>2026-05-06T17:09:24.986Z</time>
      </trkpt>
      <trkpt lat="53.215254" lon="6.519755">
        <ele>41.798836</ele>
        <time>2026-05-06T17:09:26.978Z</time>
      </trkpt>
      <trkpt lat="53.215238" lon="6.519907">
        <ele>41.798023</ele>
        <time>2026-05-06T17:09:28.987Z</time>
      </trkpt>
      <trkpt lat="53.215221" lon="6.520072">
        <ele>41.797141</ele>
        <time>2026-05-06T17:09:30.987Z</time>
      </trkpt>
      <trkpt lat="53.215207" lon="6.520231">
        <ele>41.796294</ele>
        <time>2026-05-06T17:09:32.990Z</time>
      </trkpt>
      <trkpt lat="53.215198" lon="6.520390">
        <ele>41.795453</ele>
        <time>2026-05-06T17:09:34.993Z</time>
      </trkpt>
      <trkpt lat="53.215181" lon="6.520542">
        <ele>41.794638</ele>
        <time>2026-05-06T17:09:36.985Z</time>
      </trkpt>
      <trkpt lat="53.215171" lon="6.520692">
        <ele>41.793843</ele>
        <time>2026-05-06T17:09:38.989Z</time>
      </trkpt>
      <trkpt lat="53.215161" lon="6.520902">
        <ele>41.792733</ele>
        <time>2026-05-06T17:09:41.980Z</time>
      </trkpt>
      <trkpt lat="53.215146" lon="6.521093">
        <ele>41.791718</ele>
        <time>2026-05-06T17:09:44.983Z</time>
      </trkpt>
      <trkpt lat="53.215131" lon="6.521270">
        <ele>41.790776</ele>
        <time>2026-05-06T17:09:47.981Z</time>
      </trkpt>
      <trkpt lat="53.215127" lon="6.521436">
        <ele>41.789901</ele>
        <time>2026-05-06T17:09:50.985Z</time>
      </trkpt>
      <trkpt lat="53.215245" lon="6.521494">
        <ele>41.788819</ele>
        <time>2026-05-06T17:09:54.988Z</time>
      </trkpt>
      <trkpt lat="53.215358" lon="6.521487">
        <ele>41.789419</ele>
        <time>2026-05-06T17:09:57.985Z</time>
      </trkpt>
      <trkpt lat="53.215448" lon="6.521449">
        <ele>41.804096</ele>
        <time>2026-05-06T17:10:05.988Z</time>
      </trkpt>
      <trkpt lat="53.215623" lon="6.521457">
        <ele>41.831775</ele>
        <time>2026-05-06T17:11:38.991Z</time>
      </trkpt>
      <trkpt lat="53.215723" lon="6.521454">
        <ele>41.847588</ele>
        <time>2026-05-06T17:11:42.990Z</time>
      </trkpt>
      <trkpt lat="53.215813" lon="6.521455">
        <ele>41.861817</ele>
        <time>2026-05-06T17:11:46.989Z</time>
      </trkpt>
      <trkpt lat="53.215916" lon="6.521454">
        <ele>41.878103</ele>
        <time>2026-05-06T17:11:49.985Z</time>
      </trkpt>
      <trkpt lat="53.216039" lon="6.521453">
        <ele>41.897550</ele>
        <time>2026-05-06T17:11:52.988Z</time>
      </trkpt>
      <trkpt lat="53.216152" lon="6.521452">
        <ele>41.915416</ele>
        <time>2026-05-06T17:11:55.988Z</time>
      </trkpt>
      <trkpt lat="53.216266" lon="6.521455">
        <ele>41.933442</ele>
        <time>2026-05-06T17:11:58.988Z</time>
      </trkpt>
      <trkpt lat="53.216390" lon="6.521458">
        <ele>41.953049</ele>
        <time>2026-05-06T17:12:01.996Z</time>
      </trkpt>
      <trkpt lat="53.216505" lon="6.521467">
        <ele>41.971251</ele>
        <time>2026-05-06T17:12:04.989Z</time>
      </trkpt>
      <trkpt lat="53.216615" lon="6.521468">
        <ele>41.988643</ele>
        <time>2026-05-06T17:12:07.988Z</time>
      </trkpt>
      <trkpt lat="53.216731" lon="6.521460">
        <ele>42.006999</ele>
        <time>2026-05-06T17:12:10.985Z</time>
      </trkpt>
      <trkpt lat="53.216845" lon="6.521491">
        <ele>42.025261</ele>
        <time>2026-05-06T17:12:13.985Z</time>
      </trkpt>
      <trkpt lat="53.216877" lon="6.521639">
        <ele>42.040157</ele>
        <time>2026-05-06T17:12:16.984Z</time>
      </trkpt>
      <trkpt lat="53.216872" lon="6.521822">
        <ele>42.057500</ele>
        <time>2026-05-06T17:12:19.986Z</time>
      </trkpt>
      <trkpt lat="53.216876" lon="6.521988">
        <ele>42.078386</ele>
        <time>2026-05-06T17:12:22.984Z</time>
      </trkpt>
      <trkpt lat="53.216879" lon="6.522154">
        <ele>42.179904</ele>
        <time>2026-05-06T17:12:25.985Z</time>
      </trkpt>
      <trkpt lat="53.216890" lon="6.522336">
        <ele>42.291721</ele>
        <time>2026-05-06T17:12:28.984Z</time>
      </trkpt>
      <trkpt lat="53.216903" lon="6.522511">
        <ele>42.399514</ele>
        <time>2026-05-06T17:12:31.985Z</time>
      </trkpt>
      <trkpt lat="53.216913" lon="6.522701">
        <ele>42.516104</ele>
        <time>2026-05-06T17:12:34.985Z</time>
      </trkpt>
      <trkpt lat="53.216923" lon="6.522888">
        <ele>42.630868</ele>
        <time>2026-05-06T17:12:37.983Z</time>
      </trkpt>
      <trkpt lat="53.216933" lon="6.523053">
        <ele>42.732243</ele>
        <time>2026-05-06T17:12:40.985Z</time>
      </trkpt>
      <trkpt lat="53.216902" lon="6.523213">
        <ele>42.835040</ele>
        <time>2026-05-06T17:12:44.984Z</time>
      </trkpt>
      <trkpt lat="53.216839" lon="6.523338">
        <ele>42.934913</ele>
        <time>2026-05-06T17:12:47.983Z</time>
      </trkpt>
      <trkpt lat="53.216821" lon="6.523521">
        <ele>43.048275</ele>
        <time>2026-05-06T17:12:50.989Z</time>
      </trkpt>
      <trkpt lat="53.216829" lon="6.523693">
        <ele>43.153732</ele>
        <time>2026-05-06T17:12:53.987Z</time>
      </trkpt>
      <trkpt lat="53.216853" lon="6.523884">
        <ele>43.273028</ele>
        <time>2026-05-06T17:12:56.986Z</time>
      </trkpt>
      <trkpt lat="53.216877" lon="6.524078">
        <ele>43.394120</ele>
        <time>2026-05-06T17:12:59.986Z</time>
      </trkpt>
      <trkpt lat="53.216912" lon="6.524233">
        <ele>43.495381</ele>
        <time>2026-05-06T17:13:01.987Z</time>
      </trkpt>
      <trkpt lat="53.216953" lon="6.524423">
        <ele>43.618834</ele>
        <time>2026-05-06T17:13:04.986Z</time>
      </trkpt>
      <trkpt lat="53.216991" lon="6.524600">
        <ele>43.733774</ele>
        <time>2026-05-06T17:13:07.981Z</time>
      </trkpt>
      <trkpt lat="53.217029" lon="6.524796">
        <ele>43.859707</ele>
        <time>2026-05-06T17:13:10.980Z</time>
      </trkpt>
      <trkpt lat="53.217065" lon="6.524996">
        <ele>43.920854</ele>
        <time>2026-05-06T17:13:13.987Z</time>
      </trkpt>
      <trkpt lat="53.217100" lon="6.525191">
        <ele>43.940433</ele>
        <time>2026-05-06T17:13:16.984Z</time>
      </trkpt>
      <trkpt lat="53.217133" lon="6.525398">
        <ele>43.961035</ele>
        <time>2026-05-06T17:13:19.991Z</time>
      </trkpt>
      <trkpt lat="53.217167" lon="6.525605">
        <ele>43.981678</ele>
        <time>2026-05-06T17:13:22.990Z</time>
      </trkpt>
      <trkpt lat="53.217200" lon="6.525761">
        <ele>43.997590</ele>
        <time>2026-05-06T17:13:25.990Z</time>
      </trkpt>
      <trkpt lat="53.217237" lon="6.525947">
        <ele>44.016440</ele>
        <time>2026-05-06T17:13:28.989Z</time>
      </trkpt>
      <trkpt lat="53.217267" lon="6.526132">
        <ele>44.034873</ele>
        <time>2026-05-06T17:13:31.989Z</time>
      </trkpt>
      <trkpt lat="53.217305" lon="6.526319">
        <ele>44.053865</ele>
        <time>2026-05-06T17:13:34.989Z</time>
      </trkpt>
      <trkpt lat="53.217330" lon="6.526501">
        <ele>44.071824</ele>
        <time>2026-05-06T17:13:37.990Z</time>
      </trkpt>
      <trkpt lat="53.217363" lon="6.526667">
        <ele>44.088646</ele>
        <time>2026-05-06T17:13:40.987Z</time>
      </trkpt>
      <trkpt lat="53.217389" lon="6.526814">
        <ele>44.103387</ele>
        <time>2026-05-06T17:13:43.987Z</time>
      </trkpt>
      <trkpt lat="53.217431" lon="6.526966">
        <ele>44.119487</ele>
        <time>2026-05-06T17:13:47.985Z</time>
      </trkpt>
      <trkpt lat="53.217481" lon="6.527129">
        <ele>44.137101</ele>
        <time>2026-05-06T17:13:50.979Z</time>
      </trkpt>
      <trkpt lat="53.217524" lon="6.527307">
        <ele>44.155561</ele>
        <time>2026-05-06T17:13:53.993Z</time>
      </trkpt>
      <trkpt lat="53.217554" lon="6.527487">
        <ele>44.173530</ele>
        <time>2026-05-06T17:13:56.992Z</time>
      </trkpt>
      <trkpt lat="53.217589" lon="6.527657">
        <ele>44.190819</ele>
        <time>2026-05-06T17:13:59.985Z</time>
      </trkpt>
      <trkpt lat="53.217622" lon="6.527854">
        <ele>44.135759</ele>
        <time>2026-05-06T17:14:02.978Z</time>
      </trkpt>
      <trkpt lat="53.217653" lon="6.528054">
        <ele>44.042832</ele>
        <time>2026-05-06T17:14:05.987Z</time>
      </trkpt>
      <trkpt lat="53.217687" lon="6.528245">
        <ele>43.953202</ele>
        <time>2026-05-06T17:14:08.984Z</time>
      </trkpt>
      <trkpt lat="53.217720" lon="6.528438">
        <ele>43.862919</ele>
        <time>2026-05-06T17:14:11.982Z</time>
      </trkpt>
      <trkpt lat="53.217754" lon="6.528637">
        <ele>43.769834</ele>
        <time>2026-05-06T17:14:14.981Z</time>
      </trkpt>
      <trkpt lat="53.217791" lon="6.528824">
        <ele>43.681247</ele>
        <time>2026-05-06T17:14:17.991Z</time>
      </trkpt>
      <trkpt lat="53.217825" lon="6.529007">
        <ele>43.595061</ele>
        <time>2026-05-06T17:14:20.986Z</time>
      </trkpt>
      <trkpt lat="53.217860" lon="6.529178">
        <ele>43.513774</ele>
        <time>2026-05-06T17:14:23.987Z</time>
      </trkpt>
      <trkpt lat="53.217895" lon="6.529355">
        <ele>43.429929</ele>
        <time>2026-05-06T17:14:27.987Z</time>
      </trkpt>
      <trkpt lat="53.217916" lon="6.529531">
        <ele>43.349207</ele>
        <time>2026-05-06T17:14:31.987Z</time>
      </trkpt>
      <trkpt lat="53.217946" lon="6.529676">
        <ele>43.280201</ele>
        <time>2026-05-06T17:14:34.984Z</time>
      </trkpt>
      <trkpt lat="53.218036" lon="6.529679">
        <ele>43.212578</ele>
        <time>2026-05-06T17:14:37.987Z</time>
      </trkpt>
      <trkpt lat="53.218148" lon="6.529628">
        <ele>43.125371</ele>
        <time>2026-05-06T17:14:40.988Z</time>
      </trkpt>
      <trkpt lat="53.218264" lon="6.529568">
        <ele>43.034147</ele>
        <time>2026-05-06T17:14:43.987Z</time>
      </trkpt>
      <trkpt lat="53.218383" lon="6.529506">
        <ele>42.940503</ele>
        <time>2026-05-06T17:14:47.001Z</time>
      </trkpt>
      <trkpt lat="53.218513" lon="6.529444">
        <ele>42.844911</ele>
        <time>2026-05-06T17:14:49.986Z</time>
      </trkpt>
      <trkpt lat="53.218638" lon="6.529379">
        <ele>42.827851</ele>
        <time>2026-05-06T17:14:52.987Z</time>
      </trkpt>
      <trkpt lat="53.218756" lon="6.529315">
        <ele>42.811685</ele>
        <time>2026-05-06T17:14:55.985Z</time>
      </trkpt>
      <trkpt lat="53.218874" lon="6.529243">
        <ele>42.795315</ele>
        <time>2026-05-06T17:14:58.984Z</time>
      </trkpt>
      <trkpt lat="53.218999" lon="6.529180">
        <ele>42.778301</ele>
        <time>2026-05-06T17:15:01.985Z</time>
      </trkpt>
      <trkpt lat="53.219120" lon="6.529118">
        <ele>42.761809</ele>
        <time>2026-05-06T17:15:04.986Z</time>
      </trkpt>
      <trkpt lat="53.219245" lon="6.529051">
        <ele>42.744703</ele>
        <time>2026-05-06T17:15:07.985Z</time>
      </trkpt>
      <trkpt lat="53.219362" lon="6.528994">
        <ele>42.728822</ele>
        <time>2026-05-06T17:15:10.992Z</time>
      </trkpt>
      <trkpt lat="53.219486" lon="6.528959">
        <ele>42.712435</ele>
        <time>2026-05-06T17:15:13.985Z</time>
      </trkpt>
      <trkpt lat="53.219615" lon="6.528941">
        <ele>42.695567</ele>
        <time>2026-05-06T17:15:17.000Z</time>
      </trkpt>
      <trkpt lat="53.219727" lon="6.528927">
        <ele>42.680932</ele>
        <time>2026-05-06T17:15:19.983Z</time>
      </trkpt>
      <trkpt lat="53.219859" lon="6.528942">
        <ele>42.663692</ele>
        <time>2026-05-06T17:15:22.990Z</time>
      </trkpt>
      <trkpt lat="53.219950" lon="6.528960">
        <ele>42.651752</ele>
        <time>2026-05-06T17:15:24.986Z</time>
      </trkpt>
      <trkpt lat="53.220080" lon="6.528977">
        <ele>42.634761</ele>
        <time>2026-05-06T17:15:27.987Z</time>
      </trkpt>
      <trkpt lat="53.220207" lon="6.528989">
        <ele>42.618185</ele>
        <time>2026-05-06T17:15:30.982Z</time>
      </trkpt>
      <trkpt lat="53.220338" lon="6.529008">
        <ele>42.660439</ele>
        <time>2026-05-06T17:15:33.987Z</time>
      </trkpt>
      <trkpt lat="53.220469" lon="6.529024">
        <ele>42.737957</ele>
        <time>2026-05-06T17:15:36.989Z</time>
      </trkpt>
      <trkpt lat="53.220600" lon="6.529045">
        <ele>42.815623</ele>
        <time>2026-05-06T17:15:39.987Z</time>
      </trkpt>
      <trkpt lat="53.220690" lon="6.529057">
        <ele>42.868907</ele>
        <time>2026-05-06T17:15:41.988Z</time>
      </trkpt>
      <trkpt lat="53.220790" lon="6.529044">
        <ele>42.928101</ele>
        <time>2026-05-06T17:15:43.991Z</time>
      </trkpt>
      <trkpt lat="53.220891" lon="6.529018">
        <ele>42.988411</ele>
        <time>2026-05-06T17:15:45.986Z</time>
      </trkpt>
      <trkpt lat="53.220977" lon="6.528974">
        <ele>43.041493</ele>
        <time>2026-05-06T17:15:47.987Z</time>
      </trkpt>
      <trkpt lat="53.221105" lon="6.529028">
        <ele>43.119406</ele>
        <time>2026-05-06T17:15:50.987Z</time>
      </trkpt>
      <trkpt lat="53.221148" lon="6.529239">
        <ele>43.198162</ele>
        <time>2026-05-06T17:15:53.981Z</time>
      </trkpt>
      <trkpt lat="53.221176" lon="6.529407">
        <ele>43.259781</ele>
        <time>2026-05-06T17:15:55.985Z</time>
      </trkpt>
      <trkpt lat="53.221203" lon="6.529580">
        <ele>43.322953</ele>
        <time>2026-05-06T17:15:57.985Z</time>
      </trkpt>
      <trkpt lat="53.221233" lon="6.529726">
        <ele>43.377495</ele>
        <time>2026-05-06T17:15:59.986Z</time>
      </trkpt>
      <trkpt lat="53.221280" lon="6.529922">
        <ele>43.452098</ele>
        <time>2026-05-06T17:16:02.983Z</time>
      </trkpt>
      <trkpt lat="53.221317" lon="6.530067">
        <ele>43.507792</ele>
        <time>2026-05-06T17:16:04.981Z</time>
      </trkpt>
      <trkpt lat="53.221343" lon="6.530214">
        <ele>43.561953</ele>
        <time>2026-05-06T17:16:06.990Z</time>
      </trkpt>
      <trkpt lat="53.221372" lon="6.530370">
        <ele>43.619670</ele>
        <time>2026-05-06T17:16:08.985Z</time>
      </trkpt>
      <trkpt lat="53.221401" lon="6.530532">
        <ele>43.678043</ele>
        <time>2026-05-06T17:16:10.991Z</time>
      </trkpt>
      <trkpt lat="53.221431" lon="6.530686">
        <ele>43.722466</ele>
        <time>2026-05-06T17:16:12.989Z</time>
      </trkpt>
      <trkpt lat="53.221461" lon="6.530842">
        <ele>43.767411</ele>
        <time>2026-05-06T17:16:14.991Z</time>
      </trkpt>
      <trkpt lat="53.221487" lon="6.531002">
        <ele>43.812887</ele>
        <time>2026-05-06T17:16:16.993Z</time>
      </trkpt>
      <trkpt lat="53.221518" lon="6.531164">
        <ele>43.859538</ele>
        <time>2026-05-06T17:16:18.998Z</time>
      </trkpt>
      <trkpt lat="53.221548" lon="6.531325">
        <ele>43.905791</ele>
        <time>2026-05-06T17:16:20.994Z</time>
      </trkpt>
      <trkpt lat="53.221572" lon="6.531478">
        <ele>43.949176</ele>
        <time>2026-05-06T17:16:22.987Z</time>
      </trkpt>
      <trkpt lat="53.221604" lon="6.531638">
        <ele>43.995448</ele>
        <time>2026-05-06T17:16:24.989Z</time>
      </trkpt>
      <trkpt lat="53.221627" lon="6.531795">
        <ele>44.039784</ele>
        <time>2026-05-06T17:16:26.996Z</time>
      </trkpt>
      <trkpt lat="53.221659" lon="6.531948">
        <ele>44.084239</ele>
        <time>2026-05-06T17:16:28.982Z</time>
      </trkpt>
      <trkpt lat="53.221685" lon="6.532104">
        <ele>44.128657</ele>
        <time>2026-05-06T17:16:30.990Z</time>
      </trkpt>
      <trkpt lat="53.221711" lon="6.532253">
        <ele>44.171229</ele>
        <time>2026-05-06T17:16:32.987Z</time>
      </trkpt>
      <trkpt lat="53.221745" lon="6.532396">
        <ele>44.213434</ele>
        <time>2026-05-06T17:16:34.988Z</time>
      </trkpt>
      <trkpt lat="53.221766" lon="6.532550">
        <ele>44.256758</ele>
        <time>2026-05-06T17:16:36.988Z</time>
      </trkpt>
      <trkpt lat="53.221804" lon="6.532755">
        <ele>44.315623</ele>
        <time>2026-05-06T17:16:39.988Z</time>
      </trkpt>
      <trkpt lat="53.221839" lon="6.532925">
        <ele>44.364934</ele>
        <time>2026-05-06T17:16:42.987Z</time>
      </trkpt>
      <trkpt lat="53.221916" lon="6.533159">
        <ele>44.438176</ele>
        <time>2026-05-06T17:17:19.006Z</time>
      </trkpt>
      <trkpt lat="53.221928" lon="6.533316">
        <ele>44.481591</ele>
        <time>2026-05-06T17:17:23.987Z</time>
      </trkpt>
      <trkpt lat="53.221954" lon="6.533493">
        <ele>44.454768</ele>
        <time>2026-05-06T17:17:29.989Z</time>
      </trkpt>
      <trkpt lat="53.221991" lon="6.533655">
        <ele>44.395689</ele>
        <time>2026-05-06T17:17:32.986Z</time>
      </trkpt>
      <trkpt lat="53.222025" lon="6.533852">
        <ele>44.325831</ele>
        <time>2026-05-06T17:17:35.988Z</time>
      </trkpt>
      <trkpt lat="53.222048" lon="6.534058">
        <ele>44.254430</ele>
        <time>2026-05-06T17:17:38.993Z</time>
      </trkpt>
      <trkpt lat="53.222080" lon="6.534259">
        <ele>44.183563</ele>
        <time>2026-05-06T17:17:41.986Z</time>
      </trkpt>
      <trkpt lat="53.222112" lon="6.534449">
        <ele>44.116311</ele>
        <time>2026-05-06T17:17:44.987Z</time>
      </trkpt>
      <trkpt lat="53.222140" lon="6.534627">
        <ele>44.053602</ele>
        <time>2026-05-06T17:17:47.985Z</time>
      </trkpt>
      <trkpt lat="53.222175" lon="6.534814">
        <ele>43.986844</ele>
        <time>2026-05-06T17:17:50.985Z</time>
      </trkpt>
      <trkpt lat="53.222216" lon="6.535032">
        <ele>43.908985</ele>
        <time>2026-05-06T17:17:53.990Z</time>
      </trkpt>
      <trkpt lat="53.222245" lon="6.535184">
        <ele>43.854628</ele>
        <time>2026-05-06T17:17:55.999Z</time>
      </trkpt>
      <trkpt lat="53.222275" lon="6.535347">
        <ele>43.796524</ele>
        <time>2026-05-06T17:17:57.981Z</time>
      </trkpt>
      <trkpt lat="53.222306" lon="6.535490">
        <ele>43.744703</ele>
        <time>2026-05-06T17:17:59.990Z</time>
      </trkpt>
      <trkpt lat="53.222343" lon="6.535695">
        <ele>43.671749</ele>
        <time>2026-05-06T17:18:02.982Z</time>
      </trkpt>
      <trkpt lat="53.222361" lon="6.535846">
        <ele>43.619288</ele>
        <time>2026-05-06T17:18:07.991Z</time>
      </trkpt>
      <trkpt lat="53.222420" lon="6.535727">
        <ele>43.566643</ele>
        <time>2026-05-06T17:18:17.990Z</time>
      </trkpt>
      <trkpt lat="53.222437" lon="6.535567">
        <ele>43.511274</ele>
        <time>2026-05-06T17:18:21.988Z</time>
      </trkpt>
      <trkpt lat="53.222526" lon="6.535518">
        <ele>43.470132</ele>
        <time>2026-05-06T17:18:25.987Z</time>
      </trkpt>
      <trkpt lat="53.222586" lon="6.535402">
        <ele>43.458300</ele>
        <time>2026-05-06T17:18:31.994Z</time>
      </trkpt>
      <trkpt lat="53.222682" lon="6.535363">
        <ele>43.445563</ele>
        <time>2026-05-06T17:19:24.996Z</time>
      </trkpt>
      <trkpt lat="53.222556" lon="6.535496">
        <ele>43.426348</ele>
        <time>2026-05-06T17:20:31.996Z</time>
      </trkpt>
      <trkpt lat="53.222450" lon="6.535541">
        <ele>43.412249</ele>
        <time>2026-05-06T17:20:38.983Z</time>
      </trkpt>
      <trkpt lat="53.222362" lon="6.535605">
        <ele>43.399875</ele>
        <time>2026-05-06T17:20:46.991Z</time>
      </trkpt>
      <trkpt lat="53.222340" lon="6.535762">
        <ele>43.387430</ele>
        <time>2026-05-06T17:20:49.986Z</time>
      </trkpt>
      <trkpt lat="53.222375" lon="6.535941">
        <ele>43.372896</ele>
        <time>2026-05-06T17:20:52.990Z</time>
      </trkpt>
      <trkpt lat="53.222406" lon="6.536102">
        <ele>43.359843</ele>
        <time>2026-05-06T17:20:55.989Z</time>
      </trkpt>
      <trkpt lat="53.222437" lon="6.536266">
        <ele>43.346569</ele>
        <time>2026-05-06T17:20:58.997Z</time>
      </trkpt>
      <trkpt lat="53.222393" lon="6.536440">
        <ele>43.331990</ele>
        <time>2026-05-06T17:21:02.988Z</time>
      </trkpt>
      <trkpt lat="53.222295" lon="6.536502">
        <ele>43.318480</ele>
        <time>2026-05-06T17:21:05.990Z</time>
      </trkpt>
      <trkpt lat="53.222174" lon="6.536557">
        <ele>43.302314</ele>
        <time>2026-05-06T17:21:08.987Z</time>
      </trkpt>
      <trkpt lat="53.222062" lon="6.536604">
        <ele>43.287427</ele>
        <time>2026-05-06T17:21:11.986Z</time>
      </trkpt>
      <trkpt lat="53.221961" lon="6.536661">
        <ele>43.273683</ele>
        <time>2026-05-06T17:21:14.984Z</time>
      </trkpt>
      <trkpt lat="53.221861" lon="6.536711">
        <ele>43.260227</ele>
        <time>2026-05-06T17:21:17.989Z</time>
      </trkpt>
      <trkpt lat="53.221750" lon="6.536763">
        <ele>43.245365</ele>
        <time>2026-05-06T17:21:20.985Z</time>
      </trkpt>
      <trkpt lat="53.221636" lon="6.536828">
        <ele>43.199478</ele>
        <time>2026-05-06T17:21:23.987Z</time>
      </trkpt>
      <trkpt lat="53.221529" lon="6.536886">
        <ele>43.148266</ele>
        <time>2026-05-06T17:21:26.987Z</time>
      </trkpt>
      <trkpt lat="53.221432" lon="6.536939">
        <ele>43.101804</ele>
        <time>2026-05-06T17:21:29.996Z</time>
      </trkpt>
      <trkpt lat="53.221361" lon="6.537063">
        <ele>43.055038</ele>
        <time>2026-05-06T17:21:32.987Z</time>
      </trkpt>
      <trkpt lat="53.221251" lon="6.537133">
        <ele>43.001449</ele>
        <time>2026-05-06T17:21:35.985Z</time>
      </trkpt>
      <trkpt lat="53.221118" lon="6.537188">
        <ele>42.939073</ele>
        <time>2026-05-06T17:21:38.990Z</time>
      </trkpt>
      <trkpt lat="53.221027" lon="6.537228">
        <ele>42.896234</ele>
        <time>2026-05-06T17:21:40.989Z</time>
      </trkpt>
      <trkpt lat="53.220900" lon="6.537300">
        <ele>42.835178</ele>
        <time>2026-05-06T17:21:43.990Z</time>
      </trkpt>
      <trkpt lat="53.220775" lon="6.537363">
        <ele>42.775737</ele>
        <time>2026-05-06T17:21:46.989Z</time>
      </trkpt>
      <trkpt lat="53.220652" lon="6.537429">
        <ele>42.716923</ele>
        <time>2026-05-06T17:21:49.997Z</time>
      </trkpt>
      <trkpt lat="53.220531" lon="6.537527">
        <ele>42.655703</ele>
        <time>2026-05-06T17:21:52.988Z</time>
      </trkpt>
      <trkpt lat="53.220468" lon="6.537652">
        <ele>42.611167</ele>
        <time>2026-05-06T17:21:54.984Z</time>
      </trkpt>
      <trkpt lat="53.220478" lon="6.537807">
        <ele>42.568674</ele>
        <time>2026-05-06T17:21:56.987Z</time>
      </trkpt>
      <trkpt lat="53.220519" lon="6.538019">
        <ele>42.507948</ele>
        <time>2026-05-06T17:21:59.986Z</time>
      </trkpt>
      <trkpt lat="53.220546" lon="6.538166">
        <ele>42.466037</ele>
        <time>2026-05-06T17:22:01.997Z</time>
      </trkpt>
      <trkpt lat="53.220575" lon="6.538319">
        <ele>42.425648</ele>
        <time>2026-05-06T17:22:03.986Z</time>
      </trkpt>
      <trkpt lat="53.220599" lon="6.538469">
        <ele>42.584318</ele>
        <time>2026-05-06T17:22:05.991Z</time>
      </trkpt>
      <trkpt lat="53.220628" lon="6.538626">
        <ele>42.752224</ele>
        <time>2026-05-06T17:22:07.988Z</time>
      </trkpt>
      <trkpt lat="53.220655" lon="6.538775">
        <ele>42.911314</ele>
        <time>2026-05-06T17:22:09.987Z</time>
      </trkpt>
      <trkpt lat="53.220681" lon="6.538934">
        <ele>43.079753</ele>
        <time>2026-05-06T17:22:11.987Z</time>
      </trkpt>
      <trkpt lat="53.220719" lon="6.539143">
        <ele>43.302969</ele>
        <time>2026-05-06T17:22:14.985Z</time>
      </trkpt>
      <trkpt lat="53.220751" lon="6.539346">
        <ele>43.517492</ele>
        <time>2026-05-06T17:22:17.982Z</time>
      </trkpt>
      <trkpt lat="53.220786" lon="6.539545">
        <ele>43.729449</ele>
        <time>2026-05-06T17:22:20.980Z</time>
      </trkpt>
      <trkpt lat="53.220823" lon="6.539710">
        <ele>43.909507</ele>
        <time>2026-05-06T17:22:24.980Z</time>
      </trkpt>
      <trkpt lat="53.220847" lon="6.539884">
        <ele>44.091981</ele>
        <time>2026-05-06T17:22:26.983Z</time>
      </trkpt>
      <trkpt lat="53.220871" lon="6.540030">
        <ele>44.246704</ele>
        <time>2026-05-06T17:22:28.982Z</time>
      </trkpt>
      <trkpt lat="53.220908" lon="6.540190">
        <ele>44.421986</ele>
        <time>2026-05-06T17:22:31.983Z</time>
      </trkpt>
      <trkpt lat="53.220967" lon="6.540327">
        <ele>44.594445</ele>
        <time>2026-05-06T17:22:34.983Z</time>
      </trkpt>
      <trkpt lat="53.221029" lon="6.540482">
        <ele>44.784942</ele>
        <time>2026-05-06T17:22:37.983Z</time>
      </trkpt>
      <trkpt lat="53.221098" lon="6.540638">
        <ele>44.983146</ele>
        <time>2026-05-06T17:22:40.981Z</time>
      </trkpt>
      <trkpt lat="53.221163" lon="6.540788">
        <ele>45.172371</ele>
        <time>2026-05-06T17:22:43.989Z</time>
      </trkpt>
      <trkpt lat="53.221223" lon="6.540950">
        <ele>45.367038</ele>
        <time>2026-05-06T17:22:46.997Z</time>
      </trkpt>
      <trkpt lat="53.221288" lon="6.541066">
        <ele>45.459949</ele>
        <time>2026-05-06T17:22:49.989Z</time>
      </trkpt>
      <trkpt lat="53.221372" lon="6.541177">
        <ele>45.294168</ele>
        <time>2026-05-06T17:22:52.986Z</time>
      </trkpt>
      <trkpt lat="53.221447" lon="6.541315">
        <ele>45.121459</ele>
        <time>2026-05-06T17:22:55.984Z</time>
      </trkpt>
      <trkpt lat="53.221512" lon="6.541454">
        <ele>44.958020</ele>
        <time>2026-05-06T17:22:58.987Z</time>
      </trkpt>
      <trkpt lat="53.221580" lon="6.541581">
        <ele>44.800137</ele>
        <time>2026-05-06T17:23:01.987Z</time>
      </trkpt>
      <trkpt lat="53.221624" lon="6.541729">
        <ele>44.647012</ele>
        <time>2026-05-06T17:23:05.994Z</time>
      </trkpt>
      <trkpt lat="53.221539" lon="6.541864">
        <ele>44.465470</ele>
        <time>2026-05-06T17:23:08.983Z</time>
      </trkpt>
      <trkpt lat="53.221472" lon="6.541988">
        <ele>44.310689</ele>
        <time>2026-05-06T17:23:10.988Z</time>
      </trkpt>
      <trkpt lat="53.221434" lon="6.542126">
        <ele>44.169931</ele>
        <time>2026-05-06T17:23:12.993Z</time>
      </trkpt>
      <trkpt lat="53.221456" lon="6.542345">
        <ele>43.964153</ele>
        <time>2026-05-06T17:23:15.985Z</time>
      </trkpt>
      <trkpt lat="53.221476" lon="6.542494">
        <ele>43.822652</ele>
        <time>2026-05-06T17:23:17.988Z</time>
      </trkpt>
      <trkpt lat="53.221490" lon="6.542656">
        <ele>43.670975</ele>
        <time>2026-05-06T17:23:19.988Z</time>
      </trkpt>
      <trkpt lat="53.221513" lon="6.542825">
        <ele>43.510373</ele>
        <time>2026-05-06T17:23:21.987Z</time>
      </trkpt>
      <trkpt lat="53.221527" lon="6.543014">
        <ele>43.333897</ele>
        <time>2026-05-06T17:23:23.980Z</time>
      </trkpt>
      <trkpt lat="53.221490" lon="6.543187">
        <ele>43.163661</ele>
        <time>2026-05-06T17:23:25.983Z</time>
      </trkpt>
      <trkpt lat="53.221369" lon="6.543185">
        <ele>42.976375</ele>
        <time>2026-05-06T17:23:27.992Z</time>
      </trkpt>
      <trkpt lat="53.221270" lon="6.543203">
        <ele>42.822242</ele>
        <time>2026-05-06T17:23:29.979Z</time>
      </trkpt>
      <trkpt lat="53.221172" lon="6.543222">
        <ele>42.755370</ele>
        <time>2026-05-06T17:23:31.988Z</time>
      </trkpt>
      <trkpt lat="53.221075" lon="6.543237">
        <ele>42.931471</ele>
        <time>2026-05-06T17:23:33.991Z</time>
      </trkpt>
      <trkpt lat="53.220982" lon="6.543256">
        <ele>43.100843</ele>
        <time>2026-05-06T17:23:35.986Z</time>
      </trkpt>
      <trkpt lat="53.220890" lon="6.543277">
        <ele>43.268701</ele>
        <time>2026-05-06T17:23:37.984Z</time>
      </trkpt>
      <trkpt lat="53.220758" lon="6.543347">
        <ele>43.519062</ele>
        <time>2026-05-06T17:23:40.985Z</time>
      </trkpt>
      <trkpt lat="53.220648" lon="6.543457">
        <ele>43.750830</ele>
        <time>2026-05-06T17:23:43.992Z</time>
      </trkpt>
      <trkpt lat="53.220581" lon="6.543559">
        <ele>43.914714</ele>
        <time>2026-05-06T17:23:45.981Z</time>
      </trkpt>
      <trkpt lat="53.220506" lon="6.543672">
        <ele>44.097309</ele>
        <time>2026-05-06T17:23:47.983Z</time>
      </trkpt>
      <trkpt lat="53.220427" lon="6.543786">
        <ele>44.286041</ele>
        <time>2026-05-06T17:23:49.983Z</time>
      </trkpt>
      <trkpt lat="53.220365" lon="6.543898">
        <ele>44.451139</ele>
        <time>2026-05-06T17:23:51.984Z</time>
      </trkpt>
      <trkpt lat="53.220289" lon="6.544011">
        <ele>44.635080</ele>
        <time>2026-05-06T17:23:53.989Z</time>
      </trkpt>
      <trkpt lat="53.220214" lon="6.544114">
        <ele>44.810610</ele>
        <time>2026-05-06T17:23:55.984Z</time>
      </trkpt>
      <trkpt lat="53.220134" lon="6.544232">
        <ele>45.003552</ele>
        <time>2026-05-06T17:23:57.986Z</time>
      </trkpt>
      <trkpt lat="53.220057" lon="6.544349">
        <ele>45.191734</ele>
        <time>2026-05-06T17:23:59.986Z</time>
      </trkpt>
      <trkpt lat="53.219989" lon="6.544466">
        <ele>45.368222</ele>
        <time>2026-05-06T17:24:01.988Z</time>
      </trkpt>
      <trkpt lat="53.219916" lon="6.544601">
        <ele>45.565112</ele>
        <time>2026-05-06T17:24:03.987Z</time>
      </trkpt>
      <trkpt lat="53.219851" lon="6.544728">
        <ele>45.745951</ele>
        <time>2026-05-06T17:24:05.992Z</time>
      </trkpt>
      <trkpt lat="53.219788" lon="6.544854">
        <ele>45.923630</ele>
        <time>2026-05-06T17:24:07.987Z</time>
      </trkpt>
      <trkpt lat="53.219727" lon="6.544976">
        <ele>45.952547</ele>
        <time>2026-05-06T17:24:09.989Z</time>
      </trkpt>
      <trkpt lat="53.219669" lon="6.545128">
        <ele>45.940907</ele>
        <time>2026-05-06T17:24:11.983Z</time>
      </trkpt>
      <trkpt lat="53.219610" lon="6.545276">
        <ele>45.929424</ele>
        <time>2026-05-06T17:24:13.985Z</time>
      </trkpt>
      <trkpt lat="53.219575" lon="6.545425">
        <ele>45.919088</ele>
        <time>2026-05-06T17:24:15.982Z</time>
      </trkpt>
      <trkpt lat="53.219519" lon="6.545625">
        <ele>45.904829</ele>
        <time>2026-05-06T17:24:18.985Z</time>
      </trkpt>
      <trkpt lat="53.219481" lon="6.545774">
        <ele>45.894370</ele>
        <time>2026-05-06T17:24:20.984Z</time>
      </trkpt>
      <trkpt lat="53.219442" lon="6.545927">
        <ele>45.883631</ele>
        <time>2026-05-06T17:24:22.984Z</time>
      </trkpt>
      <trkpt lat="53.219414" lon="6.546084">
        <ele>45.873052</ele>
        <time>2026-05-06T17:24:24.983Z</time>
      </trkpt>
      <trkpt lat="53.219389" lon="6.546247">
        <ele>45.862185</ele>
        <time>2026-05-06T17:24:26.985Z</time>
      </trkpt>
      <trkpt lat="53.219365" lon="6.546406">
        <ele>45.851595</ele>
        <time>2026-05-06T17:24:28.992Z</time>
      </trkpt>
      <trkpt lat="53.219344" lon="6.546575">
        <ele>45.840449</ele>
        <time>2026-05-06T17:24:30.985Z</time>
      </trkpt>
      <trkpt lat="53.219323" lon="6.546728">
        <ele>45.830311</ele>
        <time>2026-05-06T17:24:32.990Z</time>
      </trkpt>
      <trkpt lat="53.219309" lon="6.546881">
        <ele>45.820316</ele>
        <time>2026-05-06T17:24:34.990Z</time>
      </trkpt>
      <trkpt lat="53.219294" lon="6.547041">
        <ele>45.809857</ele>
        <time>2026-05-06T17:24:36.984Z</time>
      </trkpt>
      <trkpt lat="53.219272" lon="6.547264">
        <ele>45.795261</ele>
        <time>2026-05-06T17:24:39.988Z</time>
      </trkpt>
      <trkpt lat="53.219274" lon="6.547429">
        <ele>45.784603</ele>
        <time>2026-05-06T17:24:41.983Z</time>
      </trkpt>
      <trkpt lat="53.219277" lon="6.547581">
        <ele>45.774781</ele>
        <time>2026-05-06T17:24:43.989Z</time>
      </trkpt>
      <trkpt lat="53.219289" lon="6.547791">
        <ele>45.751801</ele>
        <time>2026-05-06T17:24:46.987Z</time>
      </trkpt>
      <trkpt lat="53.219295" lon="6.547990">
        <ele>45.716832</ele>
        <time>2026-05-06T17:24:49.985Z</time>
      </trkpt>
      <trkpt lat="53.219313" lon="6.548182">
        <ele>45.682726</ele>
        <time>2026-05-06T17:24:52.988Z</time>
      </trkpt>
      <trkpt lat="53.219311" lon="6.548369">
        <ele>45.649902</ele>
        <time>2026-05-06T17:24:55.990Z</time>
      </trkpt>
      <trkpt lat="53.219340" lon="6.548550">
        <ele>45.617019</ele>
        <time>2026-05-06T17:24:58.985Z</time>
      </trkpt>
      <trkpt lat="53.219397" lon="6.548742">
        <ele>45.579408</ele>
        <time>2026-05-06T17:25:01.980Z</time>
      </trkpt>
      <trkpt lat="53.219429" lon="6.548897">
        <ele>45.550634</ele>
        <time>2026-05-06T17:25:03.986Z</time>
      </trkpt>
      <trkpt lat="53.219460" lon="6.549049">
        <ele>45.522453</ele>
        <time>2026-05-06T17:25:05.985Z</time>
      </trkpt>
      <trkpt lat="53.219488" lon="6.549198">
        <ele>45.495046</ele>
        <time>2026-05-06T17:25:07.981Z</time>
      </trkpt>
      <trkpt lat="53.219516" lon="6.549349">
        <ele>45.467304</ele>
        <time>2026-05-06T17:25:09.993Z</time>
      </trkpt>
      <trkpt lat="53.219537" lon="6.549504">
        <ele>45.439414</ele>
        <time>2026-05-06T17:25:11.984Z</time>
      </trkpt>
      <trkpt lat="53.219561" lon="6.549657">
        <ele>45.411657</ele>
        <time>2026-05-06T17:25:13.985Z</time>
      </trkpt>
      <trkpt lat="53.219591" lon="6.549815">
        <ele>45.382567</ele>
        <time>2026-05-06T17:25:15.982Z</time>
      </trkpt>
      <trkpt lat="53.219621" lon="6.549963">
        <ele>45.355145</ele>
        <time>2026-05-06T17:25:17.984Z</time>
      </trkpt>
      <trkpt lat="53.219646" lon="6.550184">
        <ele>45.315674</ele>
        <time>2026-05-06T17:25:20.990Z</time>
      </trkpt>
      <trkpt lat="53.219675" lon="6.550333">
        <ele>45.288177</ele>
        <time>2026-05-06T17:25:22.982Z</time>
      </trkpt>
      <trkpt lat="53.219690" lon="6.550499">
        <ele>45.258715</ele>
        <time>2026-05-06T17:25:24.982Z</time>
      </trkpt>
      <trkpt lat="53.219701" lon="6.550655">
        <ele>45.238236</ele>
        <time>2026-05-06T17:25:26.988Z</time>
      </trkpt>
      <trkpt lat="53.219705" lon="6.550811">
        <ele>45.234351</ele>
        <time>2026-05-06T17:25:28.984Z</time>
      </trkpt>
      <trkpt lat="53.219716" lon="6.550974">
        <ele>45.230271</ele>
        <time>2026-05-06T17:25:30.996Z</time>
      </trkpt>
      <trkpt lat="53.219717" lon="6.551139">
        <ele>45.226166</ele>
        <time>2026-05-06T17:25:32.984Z</time>
      </trkpt>
      <trkpt lat="53.219726" lon="6.551312">
        <ele>45.221845</ele>
        <time>2026-05-06T17:25:34.986Z</time>
      </trkpt>
      <trkpt lat="53.219732" lon="6.551491">
        <ele>45.217385</ele>
        <time>2026-05-06T17:25:36.984Z</time>
      </trkpt>
      <trkpt lat="53.219744" lon="6.551660">
        <ele>45.213152</ele>
        <time>2026-05-06T17:25:38.982Z</time>
      </trkpt>
      <trkpt lat="53.219739" lon="6.551822">
        <ele>45.209116</ele>
        <time>2026-05-06T17:25:40.983Z</time>
      </trkpt>
      <trkpt lat="53.219745" lon="6.551984">
        <ele>45.205078</ele>
        <time>2026-05-06T17:25:42.982Z</time>
      </trkpt>
      <trkpt lat="53.219749" lon="6.552154">
        <ele>45.200846</ele>
        <time>2026-05-06T17:25:44.985Z</time>
      </trkpt>
      <trkpt lat="53.219757" lon="6.552330">
        <ele>45.196454</ele>
        <time>2026-05-06T17:25:46.994Z</time>
      </trkpt>
      <trkpt lat="53.219750" lon="6.552502">
        <ele>45.192166</ele>
        <time>2026-05-06T17:25:48.985Z</time>
      </trkpt>
      <trkpt lat="53.219740" lon="6.552730">
        <ele>45.186478</ele>
        <time>2026-05-06T17:25:51.995Z</time>
      </trkpt>
      <trkpt lat="53.219709" lon="6.552885">
        <ele>45.182413</ele>
        <time>2026-05-06T17:25:53.986Z</time>
      </trkpt>
      <trkpt lat="53.219702" lon="6.553045">
        <ele>45.178422</ele>
        <time>2026-05-06T17:25:55.985Z</time>
      </trkpt>
      <trkpt lat="53.219669" lon="6.553257">
        <ele>45.172972</ele>
        <time>2026-05-06T17:25:58.986Z</time>
      </trkpt>
      <trkpt lat="53.219641" lon="6.553413">
        <ele>45.168921</ele>
        <time>2026-05-06T17:26:00.986Z</time>
      </trkpt>
      <trkpt lat="53.219614" lon="6.553558">
        <ele>45.165143</ele>
        <time>2026-05-06T17:26:02.985Z</time>
      </trkpt>
      <trkpt lat="53.219575" lon="6.553711">
        <ele>45.198823</ele>
        <time>2026-05-06T17:26:04.986Z</time>
      </trkpt>
      <trkpt lat="53.219536" lon="6.553870">
        <ele>45.238627</ele>
        <time>2026-05-06T17:26:06.981Z</time>
      </trkpt>
      <trkpt lat="53.219500" lon="6.554029">
        <ele>45.278007</ele>
        <time>2026-05-06T17:26:08.983Z</time>
      </trkpt>
      <trkpt lat="53.219461" lon="6.554172">
        <ele>45.314409</ele>
        <time>2026-05-06T17:26:10.990Z</time>
      </trkpt>
      <trkpt lat="53.219433" lon="6.554321">
        <ele>45.350586</ele>
        <time>2026-05-06T17:26:12.982Z</time>
      </trkpt>
      <trkpt lat="53.219399" lon="6.554474">
        <ele>45.388392</ele>
        <time>2026-05-06T17:26:14.981Z</time>
      </trkpt>
      <trkpt lat="53.219361" lon="6.554632">
        <ele>45.427837</ele>
        <time>2026-05-06T17:26:16.982Z</time>
      </trkpt>
      <trkpt lat="53.219333" lon="6.554798">
        <ele>45.467790</ele>
        <time>2026-05-06T17:26:18.985Z</time>
      </trkpt>
      <trkpt lat="53.219304" lon="6.554964">
        <ele>45.507849</ele>
        <time>2026-05-06T17:26:20.989Z</time>
      </trkpt>
      <trkpt lat="53.219302" lon="6.555130">
        <ele>45.546312</ele>
        <time>2026-05-06T17:26:22.989Z</time>
      </trkpt>
      <trkpt lat="53.219325" lon="6.555337">
        <ele>45.595084</ele>
        <time>2026-05-06T17:26:25.993Z</time>
      </trkpt>
      <trkpt lat="53.219343" lon="6.555539">
        <ele>45.642395</ele>
        <time>2026-05-06T17:26:28.988Z</time>
      </trkpt>
      <trkpt lat="53.219321" lon="6.555723">
        <ele>45.685862</ele>
        <time>2026-05-06T17:26:31.985Z</time>
      </trkpt>
      <trkpt lat="53.219279" lon="6.555881">
        <ele>45.725910</ele>
        <time>2026-05-06T17:26:34.989Z</time>
      </trkpt>
      <trkpt lat="53.219311" lon="6.556025">
        <ele>45.761492</ele>
        <time>2026-05-06T17:26:37.983Z</time>
      </trkpt>
      <trkpt lat="53.219430" lon="6.556023">
        <ele>45.807536</ele>
        <time>2026-05-06T17:26:41.994Z</time>
      </trkpt>
      <trkpt lat="53.219525" lon="6.555920">
        <ele>45.851358</ele>
        <time>2026-05-06T17:26:44.987Z</time>
      </trkpt>
      <trkpt lat="53.219641" lon="6.555833">
        <ele>45.904409</ele>
        <time>2026-05-06T17:26:47.981Z</time>
      </trkpt>
      <trkpt lat="53.219772" lon="6.555815">
        <ele>45.960165</ele>
        <time>2026-05-06T17:26:50.988Z</time>
      </trkpt>
      <trkpt lat="53.219869" lon="6.555809">
        <ele>46.001339</ele>
        <time>2026-05-06T17:26:52.992Z</time>
      </trkpt>
      <trkpt lat="53.219999" lon="6.555805">
        <ele>46.056492</ele>
        <time>2026-05-06T17:26:55.986Z</time>
      </trkpt>
      <trkpt lat="53.220122" lon="6.555792">
        <ele>46.108771</ele>
        <time>2026-05-06T17:26:58.984Z</time>
      </trkpt>
      <trkpt lat="53.220257" lon="6.555780">
        <ele>46.166117</ele>
        <time>2026-05-06T17:27:01.986Z</time>
      </trkpt>
      <trkpt lat="53.220347" lon="6.555800">
        <ele>46.204630</ele>
        <time>2026-05-06T17:27:03.986Z</time>
      </trkpt>
      <trkpt lat="53.220433" lon="6.555869">
        <ele>46.245101</ele>
        <time>2026-05-06T17:27:05.985Z</time>
      </trkpt>
      <trkpt lat="53.220502" lon="6.555969">
        <ele>46.283853</ele>
        <time>2026-05-06T17:27:07.987Z</time>
      </trkpt>
      <trkpt lat="53.220589" lon="6.556118">
        <ele>46.336710</ele>
        <time>2026-05-06T17:27:10.990Z</time>
      </trkpt>
      <trkpt lat="53.220666" lon="6.556252">
        <ele>46.383881</ele>
        <time>2026-05-06T17:27:13.990Z</time>
      </trkpt>
      <trkpt lat="53.220719" lon="6.556465">
        <ele>46.442463</ele>
        <time>2026-05-06T17:27:16.987Z</time>
      </trkpt>
      <trkpt lat="53.220754" lon="6.556609">
        <ele>46.481934</ele>
        <time>2026-05-06T17:27:18.982Z</time>
      </trkpt>
      <trkpt lat="53.220803" lon="6.556739">
        <ele>46.520948</ele>
        <time>2026-05-06T17:27:20.987Z</time>
      </trkpt>
      <trkpt lat="53.220856" lon="6.556866">
        <ele>46.560264</ele>
        <time>2026-05-06T17:27:22.989Z</time>
      </trkpt>
      <trkpt lat="53.220908" lon="6.556992">
        <ele>46.599130</ele>
        <time>2026-05-06T17:27:24.988Z</time>
      </trkpt>
      <trkpt lat="53.220955" lon="6.557120">
        <ele>46.660491</ele>
        <time>2026-05-06T17:27:26.996Z</time>
      </trkpt>
      <trkpt lat="53.221027" lon="6.557307">
        <ele>46.812456</ele>
        <time>2026-05-06T17:27:29.995Z</time>
      </trkpt>
      <trkpt lat="53.221084" lon="6.557428">
        <ele>46.917691</ele>
        <time>2026-05-06T17:27:31.986Z</time>
      </trkpt>
      <trkpt lat="53.221154" lon="6.557615">
        <ele>47.068433</ele>
        <time>2026-05-06T17:27:34.987Z</time>
      </trkpt>
      <trkpt lat="53.221215" lon="6.557790">
        <ele>47.206843</ele>
        <time>2026-05-06T17:27:37.988Z</time>
      </trkpt>
      <trkpt lat="53.221280" lon="6.557953">
        <ele>47.340705</ele>
        <time>2026-05-06T17:27:40.995Z</time>
      </trkpt>
      <trkpt lat="53.221343" lon="6.558127">
        <ele>47.479691</ele>
        <time>2026-05-06T17:27:43.989Z</time>
      </trkpt>
      <trkpt lat="53.221412" lon="6.558286">
        <ele>47.613914</ele>
        <time>2026-05-06T17:27:46.993Z</time>
      </trkpt>
      <trkpt lat="53.221459" lon="6.558469">
        <ele>47.750018</ele>
        <time>2026-05-06T17:27:49.992Z</time>
      </trkpt>
      <trkpt lat="53.221502" lon="6.558650">
        <ele>47.883116</ele>
        <time>2026-05-06T17:27:52.991Z</time>
      </trkpt>
      <trkpt lat="53.221561" lon="6.558815">
        <ele>48.014477</ele>
        <time>2026-05-06T17:27:55.986Z</time>
      </trkpt>
      <trkpt lat="53.221635" lon="6.558961">
        <ele>48.145226</ele>
        <time>2026-05-06T17:27:58.984Z</time>
      </trkpt>
      <trkpt lat="53.221715" lon="6.559116">
        <ele>48.285100</ele>
        <time>2026-05-06T17:28:01.985Z</time>
      </trkpt>
      <trkpt lat="53.221790" lon="6.559285">
        <ele>48.428884</ele>
        <time>2026-05-06T17:28:04.989Z</time>
      </trkpt>
      <trkpt lat="53.221860" lon="6.559456">
        <ele>48.570471</ele>
        <time>2026-05-06T17:28:07.981Z</time>
      </trkpt>
      <trkpt lat="53.221912" lon="6.559617">
        <ele>48.690024</ele>
        <time>2026-05-06T17:28:10.989Z</time>
      </trkpt>
      <trkpt lat="53.221964" lon="6.559741">
        <ele>48.763051</ele>
        <time>2026-05-06T17:28:13.989Z</time>
      </trkpt>
      <trkpt lat="53.222020" lon="6.559894">
        <ele>48.849552</ele>
        <time>2026-05-06T17:28:17.983Z</time>
      </trkpt>
      <trkpt lat="53.222069" lon="6.560047">
        <ele>48.933249</ele>
        <time>2026-05-06T17:28:20.982Z</time>
      </trkpt>
      <trkpt lat="53.222140" lon="6.560203">
        <ele>49.027772</ele>
        <time>2026-05-06T17:28:23.997Z</time>
      </trkpt>
      <trkpt lat="53.222205" lon="6.560353">
        <ele>49.117091</ele>
        <time>2026-05-06T17:28:26.988Z</time>
      </trkpt>
      <trkpt lat="53.222270" lon="6.560510">
        <ele>49.209165</ele>
        <time>2026-05-06T17:28:29.978Z</time>
      </trkpt>
      <trkpt lat="53.222324" lon="6.560659">
        <ele>49.293180</ele>
        <time>2026-05-06T17:28:32.987Z</time>
      </trkpt>
      <trkpt lat="53.222373" lon="6.560819">
        <ele>49.379869</ele>
        <time>2026-05-06T17:28:35.983Z</time>
      </trkpt>
      <trkpt lat="53.222423" lon="6.560982">
        <ele>49.468213</ele>
        <time>2026-05-06T17:28:38.985Z</time>
      </trkpt>
      <trkpt lat="53.222480" lon="6.561126">
        <ele>49.551482</ele>
        <time>2026-05-06T17:28:41.985Z</time>
      </trkpt>
      <trkpt lat="53.222541" lon="6.561243">
        <ele>49.626318</ele>
        <time>2026-05-06T17:28:46.985Z</time>
      </trkpt>
      <trkpt lat="53.222641" lon="6.561298">
        <ele>49.711141</ele>
        <time>2026-05-06T17:28:52.982Z</time>
      </trkpt>
      <trkpt lat="53.222737" lon="6.561362">
        <ele>49.794419</ele>
        <time>2026-05-06T17:28:56.984Z</time>
      </trkpt>
      <trkpt lat="53.222815" lon="6.561439">
        <ele>49.867417</ele>
        <time>2026-05-06T17:29:00.982Z</time>
      </trkpt>
      <trkpt lat="53.222913" lon="6.561499">
        <ele>49.951510</ele>
        <time>2026-05-06T17:29:04.985Z</time>
      </trkpt>
      <trkpt lat="53.222996" lon="6.561562">
        <ele>50.024962</ele>
        <time>2026-05-06T17:29:07.990Z</time>
      </trkpt>
      <trkpt lat="53.223112" lon="6.561522">
        <ele>50.120390</ele>
        <time>2026-05-06T17:29:11.988Z</time>
      </trkpt>
      <trkpt lat="53.223208" lon="6.561402">
        <ele>49.864053</ele>
        <time>2026-05-06T17:29:15.984Z</time>
      </trkpt>
      <trkpt lat="53.223310" lon="6.561395">
        <ele>49.627303</ele>
        <time>2026-05-06T17:29:19.988Z</time>
      </trkpt>
      <trkpt lat="53.223407" lon="6.561514">
        <ele>49.348189</ele>
        <time>2026-05-06T17:29:23.988Z</time>
      </trkpt>
      <trkpt lat="53.223452" lon="6.561645">
        <ele>49.138489</ele>
        <time>2026-05-06T17:29:26.979Z</time>
      </trkpt>
      <trkpt lat="53.223446" lon="6.561803">
        <ele>48.918673</ele>
        <time>2026-05-06T17:29:30.988Z</time>
      </trkpt>
      <trkpt lat="53.223397" lon="6.561940">
        <ele>48.697096</ele>
        <time>2026-05-06T17:29:34.987Z</time>
      </trkpt>
      <trkpt lat="53.223321" lon="6.562021">
        <ele>48.488018</ele>
        <time>2026-05-06T17:29:37.984Z</time>
      </trkpt>
      <trkpt lat="53.223227" lon="6.562136">
        <ele>48.217799</ele>
        <time>2026-05-06T17:29:41.984Z</time>
      </trkpt>
      <trkpt lat="53.223212" lon="6.562327">
        <ele>47.950331</ele>
        <time>2026-05-06T17:29:45.983Z</time>
      </trkpt>
      <trkpt lat="53.223217" lon="6.562530">
        <ele>47.668236</ele>
        <time>2026-05-06T17:29:49.985Z</time>
      </trkpt>
      <trkpt lat="53.223217" lon="6.562695">
        <ele>47.439140</ele>
        <time>2026-05-06T17:29:52.996Z</time>
      </trkpt>
      <trkpt lat="53.223218" lon="6.562853">
        <ele>47.219751</ele>
        <time>2026-05-06T17:29:55.991Z</time>
      </trkpt>
      <trkpt lat="53.223223" lon="6.563030">
        <ele>46.973721</ele>
        <time>2026-05-06T17:29:58.990Z</time>
      </trkpt>
      <trkpt lat="53.223284" lon="6.563200">
        <ele>46.698536</ele>
        <time>2026-05-06T17:30:01.990Z</time>
      </trkpt>
      <trkpt lat="53.223350" lon="6.563368">
        <ele>46.419540</ele>
        <time>2026-05-06T17:30:04.989Z</time>
      </trkpt>
      <trkpt lat="53.223409" lon="6.563517">
        <ele>46.171506</ele>
        <time>2026-05-06T17:30:07.982Z</time>
      </trkpt>
      <trkpt lat="53.223463" lon="6.563674">
        <ele>45.954715</ele>
        <time>2026-05-06T17:30:11.983Z</time>
      </trkpt>
      <trkpt lat="53.223545" lon="6.563774">
        <ele>45.954715</ele>
        <time>2026-05-06T17:30:16.988Z</time>
      </trkpt>
      <trkpt lat="53.223598" lon="6.563907">
        <ele>45.954715</ele>
        <time>2026-05-06T17:30:20.987Z</time>
      </trkpt>
      <trkpt lat="53.223663" lon="6.564046">
        <ele>45.954715</ele>
        <time>2026-05-06T17:30:23.988Z</time>
      </trkpt>
      <trkpt lat="53.223724" lon="6.564198">
        <ele>45.954715</ele>
        <time>2026-05-06T17:30:26.991Z</time>
      </trkpt>
      <trkpt lat="53.223787" lon="6.564363">
        <ele>45.954715</ele>
        <time>2026-05-06T17:30:29.986Z</time>
      </trkpt>
      <trkpt lat="53.223842" lon="6.564514">
        <ele>45.954715</ele>
        <time>2026-05-06T17:30:32.987Z</time>
      </trkpt>
      <trkpt lat="53.223873" lon="6.564656">
        <ele>45.954715</ele>
        <time>2026-05-06T17:30:37.989Z</time>
      </trkpt>
      <trkpt lat="53.223923" lon="6.564806">
        <ele>45.954715</ele>
        <time>2026-05-06T17:30:42.984Z</time>
      </trkpt>
      <trkpt lat="53.223978" lon="6.564948">
        <ele>45.954715</ele>
        <time>2026-05-06T17:30:47.982Z</time>
      </trkpt>
      <trkpt lat="53.224019" lon="6.565095">
        <ele>45.954715</ele>
        <time>2026-05-06T17:30:50.986Z</time>
      </trkpt>
      <trkpt lat="53.224068" lon="6.565281">
        <ele>45.954715</ele>
        <time>2026-05-06T17:30:53.984Z</time>
      </trkpt>
      <trkpt lat="53.224110" lon="6.565440">
        <ele>45.954715</ele>
        <time>2026-05-06T17:30:56.981Z</time>
      </trkpt>
      <trkpt lat="53.224163" lon="6.565619">
        <ele>45.954715</ele>
        <time>2026-05-06T17:31:00.981Z</time>
      </trkpt>
      <trkpt lat="53.224185" lon="6.565768">
        <ele>45.954715</ele>
        <time>2026-05-06T17:31:03.982Z</time>
      </trkpt>
      <trkpt lat="53.224137" lon="6.565911">
        <ele>45.954715</ele>
        <time>2026-05-06T17:31:07.977Z</time>
      </trkpt>
      <trkpt lat="53.224066" lon="6.566039">
        <ele>45.954715</ele>
        <time>2026-05-06T17:31:11.981Z</time>
      </trkpt>
    </trkseg>
  </trk>
</gpx>